GFSCGP_250_spd_000.txt.gz
Wind_Speed
54 52 41 49 46 34 37 41 38 37 37 31 29 25 29 33 30 30 31 30 31 29 31 34 33 33 33 31 24 24 23 20 21 22 24 27 29 32 34 36 38 40 42 42
52 49 52 50 41 36 42 49 39 39 36 31 29 27 30 32 32 32 32 34 34 33 33 34 33 32 28 25 25 23 23 22 25 27 30 32 34 35 36 37 38 41 44 45
55 56 46 49 44 44 49 46 40 40 37 33 26 26 28 27 30 35 36 35 33 31 31 30 29 26 25 25 26 27 29 31 31 33 36 37 38 41 43 43 47 48 49 50
64 56 53 48 50 50 55 42 42 38 37 32 26 28 28 25 24 29 31 27 25 26 26 27 27 27 27 28 31 34 35 37 38 40 42 42 46 48 48 51 52 56 56 58
62 60 57 52 53 58 51 48 43 40 37 32 28 29 26 25 30 31 28 28 27 27 28 29 29 29 31 34 36 39 42 43 43 44 45 48 51 53 56 58 58 57 61 66
60 56 56 56 58 56 52 47 43 42 34 35 31 30 30 27 29 31 29 28 29 29 29 29 31 33 35 38 42 45 48 48 49 50 51 55 57 59 60 63 66 69 70 70
63 60 59 57 56 54 49 46 43 40 35 35 34 31 31 29 28 30 30 31 31 30 30 32 36 39 42 43 45 46 48 51 53 55 59 61 61 63 64 65 65 70 74 77
59 56 56 54 54 51 48 47 43 40 38 39 38 35 33 30 29 32 32 33 33 35 36 40 41 44 46 47 50 52 55 57 60 61 61 62 63 65 65 65 70 75 77 81
51 55 54 54 52 51 50 48 43 43 41 42 41 39 35 36 35 34 34 36 38 38 42 44 45 48 50 52 55 59 63 62 62 65 68 68 68 69 71 77 79 81 83 86
55 56 55 53 52 50 51 47 45 44 43 43 43 41 38 39 39 40 40 40 41 43 46 48 50 52 55 58 61 64 66 66 69 72 73 76 77 79 82 85 86 88 89 91
48 54 52 52 51 51 50 48 45 44 44 43 43 44 42 41 43 44 44 45 46 50 52 52 56 59 61 64 66 69 70 72 74 78 81 84 88 89 90 90 91 93 94 96
42 49 52 51 51 50 49 48 44 42 43 44 45 49 47 46 47 47 46 48 51 57 56 57 60 63 66 68 72 77 77 80 84 87 88 89 90 91 94 97 100 103 104 104
45 43 49 50 49 51 51 49 47 46 46 49 48 52 51 53 53 53 56 56 60 65 66 66 69 72 74 77 79 82 83 84 87 90 92 95 97 100 104 108 109 108 108 110
50 49 47 43 43 44 48 50 51 49 50 48 53 52 57 59 57 61 64 65 68 71 73 76 78 79 83 84 85 88 91 94 97 100 103 106 108 111 112 113 112 112 112 115
48 48 48 48 49 50 50 51 51 50 54 51 59 57 65 64 67 70 72 73 74 76 79 83 86 90 91 92 93 95 98 100 102 105 108 110 116 117 115 114 116 118 120 118
50 50 49 50 51 53 56 57 55 54 56 57 59 64 65 66 71 76 77 78 80 82 85 88 89 92 96 100 104 107 108 110 114 117 120 122 121 117 118 120 120 119 110 99
51 51 50 52 53 52 56 57 59 60 61 61 65 69 72 74 77 80 83 85 87 88 91 96 98 100 104 107 110 114 118 119 119 121 122 123 124 122 123 121 118 112 108 110
54 54 56 58 55 54 58 63 63 64 66 69 69 71 74 77 81 83 83 89 95 95 97 102 106 109 112 115 119 119 119 120 122 120 118 119 122 123 122 120 119 118 120 122
44 46 49 50 48 49 58 62 62 65 67 71 72 76 80 83 86 90 91 95 100 105 108 113 117 120 121 119 120 120 119 121 121 124 127 130 130 129 127 126 125 125 126 128
46 46 46 47 48 53 63 62 65 66 69 73 77 80 84 87 90 93 98 102 103 107 113 114 112 113 116 117 119 123 125 128 131 133 135 136 138 135 132 132 131 131 130 129
50 50 55 55 58 62 66 67 69 72 75 78 82 87 91 94 96 100 98 99 100 102 107 113 117 120 123 126 128 130 131 135 137 138 138 139 139 137 133 134 132 130 127 125
50 53 56 57 60 63 69 71 72 73 76 79 83 87 90 91 91 92 95 101 107 112 116 119 122 125 128 133 134 133 134 139 139 136 136 139 138 136 136 135 131 131 128 127
46 48 52 52 50 54 60 62 63 65 68 70 76 82 86 90 93 100 105 111 115 119 122 123 125 128 132 134 134 131 133 135 139 137 138 138 136 134 133 129 130 127 125 126
39 40 44 45 56 60 62 65 64 68 74 78 82 88 94 99 101 106 110 114 118 122 126 128 129 130 123 127 126 128 130 130 132 133 130 131 128 125 123 121 115 110 109 109
43 46 50 55 63 63 68 73 74 77 83 83 86 91 96 100 106 110 114 119 122 123 117 114 113 115 120 121 127 129 129 126 122 120 119 118 115 113 113 110 106 104 102 100
51 54 55 58 64 65 71 76 77 82 85 87 90 95 100 104 109 113 117 121 124 115 114 117 116 112 116 120 119 118 116 114 111 108 109 108 107 105 102 99 95 96 94 92

GFSCGP_250_spd_003.txt.gz
Wind_Speed
58 54 46 49 48 40 40 35 32 33 38 29 25 27 29 27 28 27 26 29 27 26 27 28 30 30 32 33 33 33 36 35 32 30 28 27 29 30 33 34 37 39 41 43
64 53 57 57 47 41 43 39 33 33 37 31 24 26 29 27 28 31 28 30 33 33 33 35 35 36 34 33 33 34 35 31 31 32 30 29 33 37 40 42 44 44 44 46
56 58 60 54 40 42 44 39 34 35 36 27 24 25 30 29 30 32 32 34 36 37 39 40 37 34 32 33 35 33 31 33 33 34 34 37 40 44 47 48 48 49 50 52
63 63 57 54 44 44 44 41 37 38 36 30 28 28 30 32 31 30 35 37 36 35 34 35 35 36 35 33 31 32 35 36 36 38 41 43 47 51 53 54 53 56 59 61
62 59 55 51 45 46 47 45 39 39 31 32 26 28 31 33 29 29 32 35 34 36 35 31 30 29 30 32 34 37 37 39 41 45 47 51 53 55 56 57 59 63 66 66
59 59 57 52 47 44 51 43 39 38 32 32 29 28 34 29 26 26 25 29 30 28 30 30 31 33 33 36 38 38 41 44 48 51 54 56 58 60 62 63 66 69 70 69
60 59 57 54 48 45 43 41 36 37 33 31 32 32 34 29 27 26 28 29 30 30 31 32 33 33 35 37 40 43 47 51 55 57 58 59 60 63 66 69 71 70 74 74
59 56 57 51 47 45 46 41 39 37 38 38 36 34 34 33 30 30 29 31 33 33 34 35 37 38 41 44 47 51 54 58 60 61 62 65 68 72 74 73 73 77 78 81
64 59 60 58 55 48 40 43 40 39 42 41 37 36 37 38 35 36 34 34 36 35 36 38 42 44 48 53 55 57 60 61 63 66 68 71 74 76 77 78 80 82 85 88
69 66 61 53 48 46 47 42 41 44 45 42 41 38 40 41 41 39 38 40 40 42 43 45 47 50 54 56 59 62 64 66 68 71 73 75 78 81 83 85 88 90 92 93
52 52 52 50 50 48 44 44 44 45 46 44 45 41 42 45 45 44 44 45 48 50 50 51 53 57 59 60 64 68 69 71 74 75 78 81 84 88 90 92 95 97 99 101
43 45 49 49 45 42 42 44 45 46 46 46 46 44 45 46 45 46 48 49 51 54 56 57 59 62 63 67 71 74 76 79 82 85 89 92 95 98 100 102 104 107 108 111
38 39 27 35 41 43 45 45 44 44 46 47 46 48 47 49 49 49 52 54 57 59 61 64 67 69 71 73 76 80 84 86 89 92 95 98 101 105 106 109 112 115 118 121
33 31 36 37 41 41 43 43 43 44 47 45 52 50 54 49 51 56 57 56 60 63 66 71 74 76 78 81 85 88 90 93 95 98 101 103 106 108 112 115 119 122 125 126
35 38 39 39 38 39 42 43 42 46 47 46 51 52 53 55 57 59 62 63 66 68 72 76 79 82 85 89 92 95 98 101 103 106 109 112 114 117 122 124 127 128 127 127
35 36 39 38 39 41 43 43 43 41 42 44 49 57 55 60 64 66 68 69 71 75 77 80 85 88 90 92 96 100 105 108 112 115 118 120 123 124 124 124 124 125 128 130
39 39 41 42 42 44 48 48 49 51 54 56 58 63 66 66 69 70 73 76 77 79 83 87 91 94 98 102 106 109 112 115 116 117 118 120 121 124 126 130 132 133 134 134
41 44 44 44 44 46 47 46 49 51 54 57 61 64 66 70 73 75 79 82 85 88 90 93 96 99 104 108 112 114 114 116 120 123 126 128 129 130 133 135 137 137 141 142
45 43 42 42 44 47 48 49 52 56 61 60 64 67 71 73 75 76 79 83 86 90 94 98 102 103 103 104 108 112 118 122 126 130 132 135 135 136 138 138 138 139 139 138
43 46 46 46 49 53 54 57 58 58 59 61 65 69 73 75 76 80 83 88 92 94 94 93 97 102 105 109 113 119 124 127 130 134 137 138 139 141 141 143 142 139 136 135
40 41 42 44 48 52 53 56 57 59 62 66 68 71 74 78 81 83 85 84 85 88 93 98 101 105 109 114 119 124 128 132 134 135 135 137 139 140 138 140 139 131 128 127
45 46 45 48 52 53 53 54 59 62 66 69 71 73 72 70 71 74 79 84 90 94 96 99 104 109 114 119 124 127 130 130 128 129 136 136 136 136 137 128 121 117 111 108
48 50 55 59 60 58 58 59 60 62 63 64 64 67 70 71 74 79 82 87 93 98 101 102 109 115 120 126 128 127 122 122 124 131 131 130 126 121 113 109 105 102 102 98
45 44 45 42 46 45 48 49 51 54 58 62 66 69 72 77 81 84 87 92 96 98 104 112 117 121 127 131 128 122 117 115 115 118 117 114 110 106 106 103 101 97 95 93
25 31 35 41 44 46 52 52 54 58 62 65 69 73 79 84 88 95 99 100 103 107 111 119 125 133 135 129 122 116 116 118 116 112 110 109 108 106 102 100 99 98 97 95
32 40 41 46 48 50 55 58 61 62 66 71 75 80 86 90 94 95 99 103 109 115 120 128 134 135 130 126 124 121 116 113 111 108 106 104 102 101 100 98 95 97 96 92

GFSCGP_250_spd_006.txt.gz
Wind_Speed
68 62 57 53 53 56 43 40 38 37 37 30 33 35 31 30 25 26 28 29 30 28 27 24 25 25 26 26 26 27 33 35 38 40 39 41 43 41 40 38 39 40 42 45
67 58 57 57 57 52 48 44 39 40 38 34 32 35 28 31 26 25 27 30 31 32 30 28 28 27 27 28 30 32 36 39 41 43 43 42 40 42 42 42 44 45 49 52
67 61 63 61 59 51 50 47 45 41 37 33 34 37 27 28 29 26 27 31 32 35 36 34 33 33 33 33 35 37 38 40 42 44 43 42 43 45 46 47 48 51 55 58
72 71 65 64 58 53 53 49 46 42 40 38 33 31 28 26 29 26 28 33 35 38 40 39 39 39 39 38 39 41 44 46 46 44 43 45 48 49 51 53 55 59 61 63
70 67 65 61 60 56 58 50 48 44 43 38 33 30 26 29 30 29 29 33 36 37 38 38 39 39 39 40 45 45 44 43 43 44 46 50 51 52 54 58 61 65 68 68
71 69 64 65 60 58 56 52 50 46 44 39 30 31 29 31 33 29 29 31 32 34 35 39 40 40 43 40 39 39 41 42 45 48 51 53 54 56 60 63 67 70 72 74
69 66 63 63 60 59 57 51 49 49 47 43 37 31 32 33 33 28 30 32 32 33 33 33 35 37 37 38 40 43 44 45 47 50 52 55 60 64 67 71 73 75 78 80
68 62 62 62 61 62 58 54 51 48 49 46 42 33 32 33 35 30 35 35 31 31 31 34 37 37 39 42 45 46 47 49 52 55 59 63 67 71 74 76 79 81 82 84
64 63 65 65 64 62 54 47 48 47 49 47 40 35 36 35 35 35 37 38 36 35 37 38 39 41 43 46 48 50 52 55 58 62 66 70 73 76 79 81 83 85 87 89
62 66 64 62 60 59 56 50 45 48 48 46 40 38 41 36 36 39 41 41 40 42 42 43 44 45 49 51 54 57 59 62 65 69 72 76 79 81 84 86 90 93 96 98
60 61 60 60 58 57 57 52 44 50 45 48 42 42 43 38 39 40 43 46 47 48 47 47 49 52 55 58 61 62 65 68 71 74 77 81 84 88 90 94 97 99 102 104
61 61 59 61 59 56 56 51 45 45 48 46 44 45 44 43 43 43 45 48 51 52 52 54 56 58 60 61 64 68 71 75 78 82 85 88 91 95 99 102 105 108 110 113
61 57 58 56 54 56 55 53 47 48 47 47 45 45 45 47 46 48 50 52 52 53 55 58 60 61 62 65 68 72 76 80 84 88 92 96 99 103 106 110 113 116 118 121
61 64 66 66 67 63 58 52 47 46 45 44 46 43 48 45 50 54 54 54 55 57 58 61 63 64 68 73 76 79 83 87 91 95 99 102 105 109 113 117 120 124 126 128
36 40 42 43 46 47 47 46 47 45 37 40 41 47 43 46 50 54 56 58 61 62 64 66 68 72 76 79 83 88 92 96 99 102 105 108 113 117 120 121 123 126 128 131
36 41 36 39 43 33 33 38 39 38 39 44 44 48 46 49 52 51 54 58 61 65 69 72 75 77 81 86 90 93 95 99 103 107 111 113 113 117 118 122 127 131 134 139
29 38 41 37 40 41 37 38 40 41 42 43 45 47 49 54 56 58 61 64 67 70 72 76 79 84 88 90 93 96 100 105 105 105 107 110 114 120 125 130 135 139 140 144
22 27 28 31 34 35 36 35 37 40 42 47 51 56 58 58 60 63 64 66 69 73 76 81 85 88 90 94 98 100 98 99 104 109 113 118 121 127 132 137 140 146 147 143
30 30 30 29 30 32 35 39 42 45 47 51 54 56 57 58 61 66 69 72 74 78 82 84 88 92 93 93 93 94 100 106 109 113 117 123 127 130 133 138 143 142 141 141
30 32 31 30 33 36 38 41 45 48 50 54 55 58 61 64 66 70 72 75 80 81 85 89 87 86 88 92 97 102 105 107 112 117 120 125 130 131 132 138 144 144 135 127
38 34 36 38 40 40 43 48 50 53 56 58 60 63 65 67 70 72 73 77 82 84 80 82 84 88 91 96 94 100 105 112 118 122 125 127 128 131 137 135 128 124 118 111
42 42 43 44 46 50 53 54 56 57 58 61 62 63 65 67 71 75 76 74 72 75 79 82 88 91 96 100 103 109 117 121 125 127 127 127 130 133 129 122 117 111 104 98
45 44 46 49 51 53 55 58 60 61 61 63 64 66 70 68 63 65 67 69 73 75 81 89 90 97 103 106 113 119 123 127 128 126 125 126 123 120 115 109 103 99 95 91
47 45 49 51 54 56 59 60 60 62 63 62 61 57 59 63 65 67 70 73 76 79 83 95 100 104 110 114 120 123 130 130 126 123 123 122 117 112 107 103 98 94 92 87
45 51 54 56 54 53 53 53 53 51 51 53 56 59 62 66 68 72 75 78 81 90 96 102 106 111 115 121 126 130 127 124 124 123 120 116 111 104 98 96 94 93 90 85
28 33 36 39 40 42 44 45 48 51 53 56 60 63 67 72 78 81 82 86 92 97 103 107 109 115 120 125 129 126 125 125 122 118 115 111 102 96 93 90 88 91 91 89

GFSCGP_250_spd_009.txt.gz
Wind_Speed
70 65 58 54 51 48 50 44 43 40 37 35 33 30 33 38 32 31 32 27 30 32 30 29 31 33 33 30 30 28 27 28 29 32 35 39 41 45 46 48 49 52 50 50
76 68 63 58 50 54 50 47 46 42 40 37 34 35 32 38 33 31 29 29 30 30 29 27 32 32 32 29 28 26 27 29 32 35 39 42 45 48 49 50 54 52 52 52
75 67 65 57 53 55 50 51 49 46 43 41 37 37 34 35 35 33 29 30 28 28 29 28 32 35 35 34 32 31 32 35 38 41 44 45 48 50 52 54 53 52 54 56
78 72 66 55 57 54 49 55 52 47 46 44 38 38 38 38 37 33 32 32 33 30 29 32 33 37 41 40 39 39 39 41 42 45 47 49 52 55 55 53 53 55 59 60
73 69 65 58 60 59 59 58 53 48 47 45 41 39 39 41 38 33 33 31 33 31 31 34 35 34 38 44 45 44 43 44 46 48 54 55 53 51 51 53 57 60 62 65
80 75 68 68 67 61 57 57 53 48 46 42 43 42 44 44 39 37 34 31 32 31 32 33 34 34 37 41 43 43 43 46 49 46 46 48 50 52 54 56 59 62 66 70
79 76 72 70 66 60 58 58 55 49 45 46 45 43 46 46 42 36 35 36 34 32 31 33 37 38 37 37 38 41 43 43 44 47 49 51 53 55 58 62 65 69 74 77
75 70 68 66 62 62 65 61 58 53 49 50 46 44 45 47 44 39 37 36 36 34 31 35 39 37 35 36 37 40 42 45 49 51 53 56 58 61 65 69 73 76 80 84
76 75 72 71 70 68 64 61 61 55 51 50 49 52 47 51 49 44 38 35 33 34 35 36 40 41 39 40 43 46 48 51 53 55 57 60 63 67 71 74 78 81 85 89
75 76 74 73 72 64 62 65 59 55 53 52 48 50 48 52 52 48 43 38 36 36 36 39 44 44 44 47 48 49 51 54 57 60 64 66 69 73 77 81 85 89 93 95
73 73 72 70 65 64 65 64 61 58 56 55 52 52 54 52 52 48 45 42 42 38 40 45 46 48 50 51 52 54 58 60 63 66 69 72 75 80 84 87 92 96 101 105
66 67 68 68 68 67 65 62 59 57 57 53 52 52 54 56 57 53 46 45 46 43 46 48 50 52 53 55 57 58 61 63 67 70 75 79 84 88 93 97 101 105 107 111
56 60 64 66 66 64 63 62 61 61 60 57 53 52 57 54 54 50 50 50 49 50 52 53 53 55 57 58 60 63 67 71 75 79 82 86 91 96 99 102 105 109 113 115
50 54 58 62 66 67 65 64 62 60 58 61 57 55 48 52 53 48 51 51 53 55 56 56 58 60 62 64 67 69 73 78 81 84 88 94 97 100 104 108 112 114 117 120
49 52 54 56 58 59 61 60 59 59 60 56 56 54 51 48 48 48 48 49 53 57 59 60 60 62 62 65 70 75 78 82 86 90 96 99 104 107 107 109 110 116 119 123
51 51 55 56 56 58 59 59 59 56 55 58 57 49 46 50 48 48 49 50 53 54 56 57 59 64 67 72 76 80 85 88 92 97 101 104 99 101 107 110 114 116 122 126
57 56 57 57 56 57 57 60 62 62 57 50 46 47 48 51 52 52 52 53 55 56 59 63 66 68 71 76 82 85 88 93 98 98 93 97 100 104 109 112 118 122 126 130
45 57 51 54 56 57 47 49 49 45 43 44 47 49 53 51 51 51 54 56 58 62 63 65 69 73 78 82 85 89 93 94 95 94 97 101 104 112 116 121 123 126 129 131
28 29 33 37 41 41 43 43 37 41 39 39 42 46 47 48 52 54 57 58 60 63 67 72 75 79 83 86 90 92 91 89 91 96 106 111 115 117 123 127 127 127 128 130
27 25 25 28 31 33 34 35 35 38 39 44 45 46 48 51 53 57 58 62 66 70 73 77 80 83 85 87 85 87 87 93 98 104 107 113 117 121 127 127 127 130 136 133
31 32 25 28 31 32 30 32 35 35 42 43 45 49 51 53 56 61 65 68 71 74 77 81 82 79 82 82 86 90 95 99 106 112 115 119 123 127 128 127 128 130 124 116
32 30 29 30 31 34 38 40 41 43 46 48 51 53 57 61 64 67 70 72 74 76 78 77 76 77 80 87 93 94 98 105 110 117 120 122 126 127 126 126 126 119 114 109
42 43 43 41 42 42 43 45 46 48 52 56 59 63 65 66 67 70 72 75 73 70 73 74 77 82 88 91 93 96 102 108 114 118 121 125 125 125 126 120 113 112 110 103
44 45 47 48 50 51 51 52 55 57 61 62 64 65 67 69 70 70 63 63 68 72 75 78 83 87 88 94 101 104 109 114 120 124 126 127 123 122 117 112 112 109 103 95
47 45 50 53 54 53 54 54 55 58 60 62 65 67 66 63 59 61 66 69 73 76 79 84 88 89 96 104 109 111 115 121 125 127 126 123 119 115 108 109 108 100 97 92
45 48 49 51 49 50 53 55 58 62 63 61 58 55 56 60 64 67 71 73 76 81 85 88 94 99 105 111 114 117 122 126 127 125 121 119 114 108 105 102 96 99 94 93

GFSCGP_250_spd_012.txt.gz
Wind_Speed
74 69 56 56 59 56 48 43 42 38 34 33 29 29 29 31 30 30 28 27 26 25 26 28 33 33 32 32 32 33 30 28 28 29 30 31 32 35 37 40 45 48 51 52
78 68 67 67 58 51 48 47 44 40 37 38 31 31 30 32 30 30 30 27 28 24 27 30 32 33 31 30 31 32 31 29 28 28 30 32 35 39 42 45 48 52 54 55
76 71 71 63 58 53 51 45 41 42 39 40 34 33 32 32 32 32 30 27 29 27 30 33 32 32 32 28 30 34 34 33 32 33 35 37 40 43 47 49 50 53 57 59
79 78 72 62 61 57 55 50 44 43 42 42 35 37 34 34 34 35 35 29 33 30 33 35 35 33 33 30 32 33 37 39 39 40 41 44 45 48 50 52 55 55 55 55
80 78 75 64 63 63 62 51 50 47 44 43 39 36 38 37 38 38 38 31 31 32 32 33 33 32 35 35 34 33 35 40 44 44 45 47 49 51 54 53 54 56 59 61
87 85 77 72 71 69 59 52 50 47 44 41 42 38 43 38 41 42 41 37 34 34 34 32 31 33 36 35 33 33 35 40 42 45 46 46 50 52 52 55 58 60 62 64
86 82 79 77 70 65 57 53 51 47 44 46 43 38 46 43 42 44 44 41 38 39 38 36 39 39 39 34 32 33 34 37 40 42 44 46 48 51 55 59 60 63 67 70
84 77 76 69 67 65 60 57 51 48 46 47 45 44 49 47 44 45 45 45 39 43 44 42 43 41 39 37 33 34 38 38 40 42 44 47 52 54 57 61 65 68 71 75
82 83 80 77 75 69 63 58 58 50 48 48 48 49 53 51 47 48 49 49 45 45 46 47 45 38 36 37 38 39 41 42 44 46 48 51 55 58 61 65 68 73 76 80
85 83 81 79 75 69 64 63 55 52 54 54 52 53 54 52 51 51 51 53 50 49 50 49 49 43 40 40 41 43 45 47 50 52 55 58 60 63 66 71 75 80 85 88
87 84 82 79 73 71 68 63 61 60 58 56 57 57 57 55 54 54 54 53 54 52 54 54 50 49 46 44 46 48 50 53 55 58 60 62 65 69 74 78 82 86 90 95
84 86 81 77 74 72 70 65 62 61 60 61 60 61 58 58 56 55 54 54 56 59 59 59 55 53 50 49 52 55 55 56 59 62 65 69 73 76 80 84 88 94 98 101
73 78 79 76 72 69 68 65 64 65 66 63 61 64 60 58 56 57 55 57 58 59 59 61 56 53 57 56 59 61 62 63 66 69 70 73 77 82 86 91 95 98 102 103
62 68 70 71 72 75 73 72 70 68 63 64 61 62 59 56 55 58 59 58 55 56 59 60 54 57 60 62 63 64 63 65 68 71 76 79 83 87 92 95 100 101 98 99
53 60 65 68 69 69 68 67 66 64 65 61 64 60 58 57 59 63 60 63 64 61 59 56 55 59 59 59 59 61 65 69 72 76 80 84 89 93 97 99 98 97 101 106
44 49 57 62 65 65 67 65 63 64 64 62 63 61 58 57 60 61 64 63 62 57 57 60 60 59 59 60 63 67 70 73 77 82 87 90 93 96 94 96 99 102 106 111
37 41 46 51 54 55 54 56 56 59 59 59 58 59 58 59 61 64 65 63 61 63 65 65 60 59 60 64 67 72 75 80 85 88 91 93 92 93 98 99 101 105 110 115
38 39 41 44 43 42 48 50 51 51 53 53 57 60 61 61 63 66 66 64 66 63 60 59 60 63 65 68 73 77 82 86 89 92 92 91 91 95 97 103 108 112 116 122
39 40 41 42 47 49 50 51 53 55 56 58 60 61 64 64 65 62 63 64 64 64 63 62 63 65 69 74 79 83 87 90 92 89 89 90 92 98 105 113 118 121 126 131
38 44 45 48 51 53 55 55 56 59 61 66 67 66 60 59 60 56 52 49 52 55 58 61 66 71 75 80 84 87 89 90 88 89 92 97 100 105 114 118 121 127 132 130
23 24 27 30 32 38 42 45 45 48 50 52 54 52 53 53 52 51 51 51 55 59 63 68 72 76 80 84 86 87 86 87 90 94 99 103 110 113 118 126 129 131 128 128
29 32 29 29 30 32 34 34 36 40 41 44 45 45 45 46 48 50 53 57 62 66 70 74 77 80 82 83 82 84 87 90 95 100 105 109 114 121 121 126 129 131 127 126
39 38 36 37 35 35 37 37 42 43 42 43 45 48 49 50 54 57 61 64 68 72 75 77 77 79 77 80 83 87 91 96 101 106 109 113 118 123 126 129 130 127 127 122
35 36 37 37 39 40 39 40 41 44 47 49 50 50 52 56 61 64 68 71 73 73 72 72 73 76 80 83 87 92 98 103 105 108 110 118 122 126 128 130 128 126 122 115
43 42 47 48 47 46 48 48 50 52 53 55 56 58 60 63 66 68 68 70 68 67 70 74 78 80 85 90 93 97 101 103 106 110 117 121 126 126 129 129 125 121 117 109
46 48 47 48 51 52 53 53 55 56 57 58 60 63 64 64 64 67 63 63 67 72 76 77 81 87 92 96 99 102 105 109 113 115 120 125 127 130 130 122 116 116 109 106

GFSCGP_250_spd_015.txt.gz
Wind_Speed
91 76 66 61 61 66 60 52 46 41 35 34 29 31 30 28 22 21 20 22 25 28 20 20 21 22 24 27 29 31 33 30 29 28 27 26 26 28 30 33 35 38 41 43
90 72 71 71 72 66 59 53 48 41 37 35 31 30 28 27 23 20 20 21 24 26 22 23 25 23 25 27 29 30 31 30 29 28 29 28 27 29 31 33 36 39 44 47
83 75 77 70 70 64 59 56 50 42 37 33 34 33 31 29 25 23 21 21 23 26 24 24 27 25 27 31 32 33 34 32 30 31 32 32 33 35 37 39 43 46 49 51
85 84 78 72 69 65 61 60 50 41 37 36 36 36 35 31 27 25 27 25 24 27 26 27 31 29 29 28 31 34 36 33 33 32 35 38 40 42 43 46 48 49 51 54
86 83 77 72 72 68 65 58 48 41 37 37 39 38 36 30 28 30 31 31 32 32 31 28 32 33 30 30 34 34 34 35 33 33 35 37 40 43 46 49 49 51 53 53
88 81 79 79 76 71 66 53 49 44 40 38 35 37 35 33 32 32 34 32 33 35 36 32 31 35 34 34 34 35 34 35 33 34 35 37 39 42 45 47 49 51 54 58
91 87 81 79 76 68 58 54 50 46 43 43 37 37 39 35 35 37 36 34 35 38 39 39 34 32 36 37 39 38 36 36 38 36 34 36 39 42 45 48 51 55 58 61
84 83 80 74 71 65 61 56 52 49 47 44 39 39 41 38 37 39 40 38 38 40 43 44 40 36 35 40 44 42 43 40 39 37 39 41 42 45 49 53 56 59 63 67
83 80 74 70 70 70 59 51 57 54 49 47 43 43 43 42 41 40 42 41 41 42 45 49 50 45 42 43 45 47 48 46 44 43 44 47 50 53 57 60 62 65 68 72
81 79 76 72 71 60 60 59 54 52 52 50 47 47 45 43 43 44 45 46 47 45 48 50 52 52 49 47 50 53 53 53 52 50 50 52 56 59 62 64 66 70 74 78
78 77 76 74 68 66 68 62 59 58 54 52 52 54 51 48 46 47 48 50 51 52 52 53 54 53 52 53 53 54 59 59 57 57 58 59 62 65 68 69 72 75 78 82
79 76 74 72 72 71 70 68 63 59 56 58 58 58 57 52 50 51 53 55 56 56 56 55 56 55 56 56 57 57 60 61 61 64 65 67 70 68 68 72 76 80 85 89
81 78 75 73 70 67 65 67 67 68 68 66 62 64 60 57 56 55 56 58 60 59 58 57 58 58 58 59 59 59 63 65 67 68 69 69 70 69 74 77 81 86 89 94
83 81 77 73 74 77 75 74 73 70 63 67 63 67 63 60 58 59 61 59 60 59 59 59 60 63 64 66 70 67 68 69 70 70 70 69 70 74 78 84 88 92 95 97
70 79 80 79 78 75 75 74 71 67 68 64 70 66 66 63 62 64 63 61 60 60 61 62 64 68 70 72 72 72 71 72 67 67 68 72 75 80 85 89 94 97 98 100
51 63 76 80 81 79 78 75 71 69 68 68 71 70 67 64 65 65 62 62 61 61 64 65 66 69 72 74 74 72 71 71 68 70 74 78 82 87 91 94 97 99 100 101
46 51 60 68 75 77 75 76 75 74 71 70 68 71 65 65 64 64 62 62 63 65 65 67 70 72 74 77 73 69 64 69 72 76 78 84 88 92 95 97 96 97 98 98
35 39 45 52 56 61 69 70 70 68 69 68 68 67 64 62 62 62 63 63 62 64 67 69 71 74 73 73 70 72 70 70 76 81 85 89 93 95 96 93 96 95 99 107
32 35 38 41 46 51 55 60 63 64 64 64 63 61 60 59 59 60 59 60 64 66 68 71 74 72 69 63 62 66 73 78 82 87 91 93 94 91 92 95 97 103 109 115
28 29 29 31 34 39 44 47 50 52 52 53 54 56 57 57 57 59 61 63 65 69 71 69 65 60 63 65 68 74 79 85 89 91 93 90 87 92 95 100 104 111 117 118
32 33 33 33 36 39 40 40 40 43 49 49 51 52 54 55 59 61 65 66 64 65 62 61 63 62 64 69 75 80 85 89 91 88 85 89 92 96 101 107 112 117 118 119
31 35 36 38 37 38 42 43 43 43 46 49 52 51 52 55 55 57 58 59 60 59 56 59 62 66 71 76 81 86 88 86 82 85 89 94 99 103 108 113 117 119 123 128
25 26 26 25 25 28 29 30 34 34 37 40 42 46 48 48 49 52 53 53 54 57 59 63 68 73 78 80 84 85 80 82 86 91 96 101 106 110 114 118 121 125 131 134
32 32 31 33 34 34 35 37 37 38 41 42 43 45 49 51 52 53 55 58 59 62 66 70 74 77 79 80 76 80 84 88 93 99 103 107 111 114 119 123 127 132 135 132
31 32 37 41 41 41 42 43 43 44 46 48 51 54 55 55 56 56 59 61 64 67 71 74 75 75 73 77 81 85 90 95 100 104 108 112 115 119 122 128 133 134 132 128
39 39 40 41 41 43 43 44 46 48 50 50 52 53 55 57 58 60 62 65 67 69 69 67 69 74 79 83 87 92 96 99 103 109 114 116 118 122 128 132 132 131 128 124

GFSCGP_250_spd_018.txt.gz
Wind_Speed
107 101 100 88 76 73 68 71 65 62 58 48 45 47 36 34 30 28 28 26 22 20 26 25 23 23 25 24 24 22 24 27 28 30 31 28 26 26 28 30 32 36 39 40
106 95 96 88 80 75 75 69 65 57 55 49 45 47 36 34 29 26 26 22 20 16 23 22 23 23 24 27 26 25 26 28 30 31 33 33 30 29 28 30 31 33 36 39
98 92 96 88 80 75 70 68 66 59 56 50 46 43 36 34 29 27 27 24 22 15 18 19 21 20 25 27 28 28 28 30 31 32 34 35 37 36 35 36 37 38 41 44
91 97 95 87 79 74 71 69 62 58 56 50 46 39 35 33 29 29 30 24 23 21 21 22 20 23 23 29 31 31 31 32 35 36 34 34 37 40 41 41 43 45 47 49
91 95 92 82 77 76 76 70 58 59 54 51 46 42 37 34 31 31 29 26 25 26 26 23 23 23 25 26 31 33 34 34 35 37 37 38 39 40 39 41 43 45 47 50
94 93 87 84 82 80 75 66 59 60 54 52 47 45 35 34 33 32 30 32 28 27 28 27 27 26 27 29 30 33 36 38 38 40 41 43 41 38 39 41 43 44 47 50
100 99 92 87 83 78 71 65 62 58 53 53 46 44 37 36 34 33 32 34 32 31 31 30 33 33 33 32 33 34 36 38 41 43 44 46 47 48 46 46 49 51 54 56
98 94 90 84 77 70 68 66 62 56 55 52 46 46 37 33 32 32 33 34 35 34 34 34 37 38 39 40 41 41 41 42 44 45 47 50 52 54 55 58 59 59 61 63
96 91 92 83 76 72 69 64 59 59 58 54 49 46 41 36 32 33 34 36 36 37 39 39 40 41 42 45 46 47 46 47 47 49 51 53 56 61 63 63 65 66 68 69
94 89 80 79 77 72 70 65 61 59 59 55 51 48 44 41 36 35 36 38 39 40 41 43 43 45 46 47 49 50 53 53 52 52 52 55 60 62 65 67 70 72 74 76
87 84 80 79 75 70 67 63 61 60 57 54 53 50 47 44 42 40 39 38 40 43 46 48 49 50 51 52 53 55 56 57 57 56 58 60 63 67 70 72 76 79 80 81
81 78 77 76 72 72 70 68 65 58 57 58 60 53 48 47 46 45 46 46 46 48 49 51 52 54 55 55 56 59 59 61 63 64 65 67 70 72 73 76 80 81 83 85
78 76 73 70 69 67 63 62 63 64 66 62 59 61 56 52 50 49 49 51 52 53 54 55 57 59 60 58 60 62 63 65 67 69 71 74 74 75 77 80 81 79 82 87
79 77 72 70 70 68 65 68 71 70 63 65 63 65 58 55 53 53 56 56 57 58 60 60 60 63 63 63 64 66 68 69 71 72 73 75 79 79 78 80 79 81 86 90
75 75 73 71 71 71 70 65 64 61 67 61 67 62 64 60 62 62 62 63 63 64 65 64 65 67 68 66 67 68 72 73 72 73 76 79 79 76 78 81 84 86 89 95
74 75 73 71 70 69 68 66 63 63 65 64 68 69 72 66 66 65 65 67 68 68 69 69 70 70 70 69 70 73 74 73 74 76 78 78 77 80 81 83 88 91 96 98
70 74 73 72 71 68 65 67 69 68 67 69 67 75 68 68 68 69 69 69 70 71 72 72 71 72 72 72 73 73 74 75 76 77 74 73 75 79 85 88 91 95 94 89
51 67 73 72 71 68 71 70 69 69 70 70 74 75 72 70 70 70 71 71 72 72 72 73 72 71 71 72 71 73 73 76 75 70 72 77 81 85 88 92 93 89 89 92
41 46 56 67 73 75 76 76 75 74 74 74 75 75 75 74 74 73 73 72 73 74 74 73 70 69 69 70 71 73 75 72 71 74 76 80 85 89 91 92 87 90 94 100
36 41 44 49 56 65 71 71 72 73 75 75 76 76 75 76 74 72 70 71 69 67 64 63 64 67 68 69 71 71 71 71 72 78 82 85 88 91 88 89 93 98 101 106
23 26 31 34 38 43 46 51 54 57 61 61 63 62 62 63 63 61 59 58 58 59 62 64 64 63 65 67 69 68 70 74 78 82 85 89 89 87 91 96 98 104 110 116
25 24 24 26 29 31 33 34 34 36 37 40 42 43 47 49 51 53 55 58 59 58 57 58 60 65 66 64 66 71 76 80 82 85 87 84 88 91 95 101 107 113 117 122
29 30 31 32 33 33 35 36 37 39 41 42 44 47 49 51 53 54 53 53 54 58 59 59 60 60 64 70 73 77 79 81 83 82 84 88 92 96 103 109 115 120 125 128
23 26 29 31 31 33 37 39 40 40 42 43 43 43 44 44 46 49 51 55 55 56 58 61 65 69 70 73 75 77 78 77 79 84 88 93 99 105 111 117 122 126 130 133
26 24 24 26 27 27 28 30 33 34 36 38 40 41 43 46 49 51 53 56 59 61 61 63 66 67 69 71 71 71 75 79 85 90 96 101 107 113 118 124 127 130 136 138
26 27 30 32 34 37 37 36 37 41 44 45 46 47 50 53 55 57 57 57 58 60 61 62 65 66 63 67 71 75 81 86 92 97 103 110 114 119 122 124 129 135 135 134

GFSCGP_250_spd_021.txt.gz
Wind_Speed
70 83 89 97 100 90 91 86 80 74 68 60 58 55 45 44 43 38 36 34 34 34 33 36 36 37 32 28 28 30 29 30 32 32 30 30 32 32 32 34 35 37 39 38
70 78 80 98 99 95 92 87 80 77 64 60 61 56 49 46 44 37 34 34 32 31 29 30 33 28 26 23 28 31 31 32 34 34 33 32 34 33 34 35 37 40 41 41
59 58 82 98 102 98 94 87 84 73 63 64 60 58 52 47 45 41 36 32 31 28 26 24 24 19 21 21 22 29 34 34 36 37 37 36 35 35 37 39 41 42 44 46
41 61 77 93 99 94 91 86 82 72 64 68 62 61 54 46 47 42 38 35 31 27 26 22 21 20 21 23 25 25 29 34 37 37 37 35 36 35 38 41 42 43 43 45
49 62 72 93 100 94 90 86 81 71 64 67 64 61 56 50 47 42 41 34 31 28 27 24 24 24 24 25 26 26 27 29 32 35 39 39 39 38 39 41 44 45 47 47
51 64 79 93 94 91 91 87 81 71 65 66 66 61 58 51 43 41 38 34 31 31 29 26 26 25 27 30 29 30 29 31 32 34 37 39 40 41 44 46 47 46 48 51
59 68 91 99 99 99 95 85 78 65 65 67 63 60 59 48 44 41 37 35 34 35 32 31 30 29 31 32 33 34 36 38 39 39 40 42 43 45 46 47 49 52 55 58
68 84 97 95 96 91 84 76 66 60 64 63 64 59 57 49 45 40 37 35 35 33 34 35 34 34 33 35 38 40 42 43 45 47 49 49 50 52 52 52 52 54 57 61
86 94 94 94 91 87 80 74 63 64 63 60 61 60 58 49 46 41 38 36 33 33 34 36 35 35 37 38 40 43 46 48 50 52 53 54 56 57 58 60 61 63 65 67
85 86 91 98 94 84 75 72 66 67 64 63 64 61 54 49 45 41 38 34 32 33 34 36 37 38 40 42 44 47 50 52 54 56 57 59 61 62 64 65 68 69 72 75
88 87 84 80 78 75 70 65 68 66 62 64 66 60 53 48 45 41 39 36 36 35 36 38 39 41 44 46 49 52 55 57 58 61 63 64 65 67 68 70 71 73 75 77
92 91 88 84 77 74 72 72 71 69 65 64 64 57 54 49 47 45 44 40 39 40 41 44 46 47 50 52 54 57 60 62 65 66 68 69 70 72 73 74 74 76 78 82
87 89 88 81 75 72 68 68 68 66 63 64 63 57 55 53 49 47 43 42 43 45 47 49 50 52 55 57 60 63 65 68 69 71 72 73 75 76 76 76 77 79 82 84
77 79 81 80 77 74 72 72 71 68 66 63 60 55 55 52 48 45 45 48 49 51 53 54 57 60 63 63 66 69 71 73 74 76 76 78 79 78 78 78 80 83 84 83
70 73 72 70 70 73 74 72 66 62 65 59 60 56 56 50 49 52 53 55 56 58 60 61 63 66 67 68 71 73 75 78 79 79 81 80 79 79 79 80 83 83 82 84
68 70 70 70 68 67 66 64 58 59 59 60 62 61 63 61 61 58 60 61 64 65 65 67 68 70 72 73 76 78 80 80 80 82 82 79 79 79 81 82 84 83 85 88
68 69 70 70 66 64 63 62 62 64 62 63 63 69 64 62 62 63 65 66 67 68 69 70 72 73 76 78 79 82 82 82 83 80 78 77 79 81 82 82 84 85 89 94
64 68 67 68 68 65 65 67 65 63 64 63 64 68 64 65 64 66 68 68 69 70 72 74 76 77 79 82 83 82 82 80 76 76 77 79 80 81 82 83 87 90 93 93
57 64 67 68 67 67 68 66 65 65 66 65 67 66 68 67 67 67 71 72 73 75 76 77 80 82 82 81 81 78 75 75 76 76 77 79 79 80 84 89 91 91 91 92
45 55 63 67 68 69 67 66 66 66 68 68 68 69 70 70 70 72 73 74 76 78 80 79 78 77 78 75 72 72 74 74 74 75 76 76 79 85 89 90 89 89 94 98
38 43 52 60 64 67 67 68 68 69 70 69 70 71 72 72 73 76 76 78 77 74 74 72 70 68 67 70 70 70 72 71 71 72 77 83 86 87 86 85 90 95 99 104
30 34 37 41 47 55 61 64 65 66 67 68 69 71 71 70 69 70 69 70 65 60 61 63 65 66 67 66 69 67 68 71 75 79 82 83 83 82 85 91 97 102 106 112
28 30 31 32 36 38 40 44 48 53 55 58 60 60 59 60 58 57 56 56 57 60 62 62 62 63 63 64 65 69 73 76 77 78 80 78 82 87 93 98 103 109 116 121
26 27 28 29 30 32 33 35 37 40 43 43 45 47 48 50 51 52 54 56 55 54 55 57 58 60 63 68 72 72 73 75 76 76 78 82 89 95 100 105 112 118 123 127
26 28 29 30 31 33 35 35 36 38 41 43 45 45 46 47 47 46 46 48 51 53 56 59 61 65 69 70 72 71 72 73 74 78 83 90 95 101 107 114 119 124 128 132
19 21 22 24 26 28 28 28 29 31 32 33 36 38 41 43 46 49 51 54 56 58 62 64 66 68 71 72 69 67 69 73 79 84 90 97 102 109 114 118 122 127 133 135

GFSCGP_250_spd_024.txt.gz
Wind_Speed
86 88 81 82 82 77 84 94 91 85 83 82 73 68 65 56 47 47 47 43 39 36 33 35 34 32 34 36 38 42 41 41 37 35 33 36 38 39 39 40 38 37 37 37
83 75 71 81 77 71 82 93 96 87 84 86 77 68 63 56 49 49 46 40 36 36 33 33 32 30 34 37 41 38 35 34 36 35 34 36 37 38 39 39 37 38 37 39
78 67 69 67 66 69 77 90 94 86 90 85 75 67 64 56 53 49 45 40 36 35 34 33 33 27 31 37 34 30 28 27 30 35 36 36 37 39 37 38 40 42 41 40
62 59 60 59 61 67 79 86 94 89 91 81 74 68 67 54 53 46 44 40 38 35 35 34 29 28 30 30 25 26 27 29 29 29 29 31 35 38 39 39 40 41 42 44
52 53 49 55 54 64 79 86 94 91 90 85 74 68 66 55 54 51 46 43 39 36 35 33 32 31 33 29 28 26 26 27 28 27 28 30 33 35 38 39 41 43 46 48
41 40 41 46 60 73 84 85 90 89 88 82 70 67 69 56 57 55 48 45 42 39 37 34 33 31 33 30 29 29 29 30 31 32 33 35 37 39 41 43 45 46 49 51
28 33 39 48 67 86 87 91 95 99 91 77 73 71 67 60 57 54 50 44 43 41 40 37 36 34 34 32 31 32 33 34 35 36 38 40 42 45 48 50 52 53 55 58
24 31 40 54 68 84 94 99 100 84 82 73 68 67 63 58 57 52 48 45 44 44 42 38 37 37 38 36 35 36 36 36 38 41 43 46 48 50 53 56 59 61 62 63
30 42 54 70 80 79 83 91 88 84 82 76 70 71 66 62 58 50 47 46 46 42 41 38 37 37 37 36 36 37 38 39 43 46 48 50 54 57 60 63 65 67 68 70
44 61 74 81 83 81 85 83 79 78 76 70 70 70 66 63 57 53 51 47 45 42 41 38 36 37 35 35 37 38 40 44 48 52 54 57 60 62 66 69 71 73 75 77
60 75 78 79 77 75 84 85 80 80 73 72 68 68 64 61 58 55 53 49 46 40 38 38 37 37 36 37 39 42 47 49 52 56 60 63 67 69 72 74 78 79 80 82
68 77 78 82 82 81 87 82 81 76 72 70 67 62 63 60 58 56 53 50 43 38 38 39 40 40 40 42 44 48 52 55 59 63 66 69 72 75 77 81 83 83 84 85
70 69 74 80 83 80 78 78 77 71 71 69 62 59 60 58 57 55 53 48 43 41 42 43 45 45 47 48 50 54 58 61 65 68 71 74 77 80 82 85 86 87 88 86
70 72 74 78 78 78 79 76 69 66 66 64 61 57 59 57 56 54 52 49 45 44 47 49 51 51 53 54 56 60 65 68 71 73 75 79 82 84 86 88 89 89 87 86
67 68 74 75 69 71 72 69 66 64 65 60 58 57 57 57 54 53 51 49 47 48 50 53 55 56 57 60 64 67 71 73 74 77 80 83 86 88 89 89 88 87 86 88
70 71 71 70 72 69 66 63 62 62 61 60 55 53 53 55 56 57 49 50 52 54 56 57 59 61 65 67 70 74 75 75 79 82 85 89 90 89 89 88 86 87 88 89
57 57 69 71 71 70 66 64 64 64 60 60 56 58 50 52 54 54 54 55 56 56 58 60 63 66 70 73 75 76 79 81 83 86 90 90 90 89 85 86 86 87 88 89
49 52 57 66 66 59 57 57 58 57 55 54 55 55 49 51 53 56 53 56 59 61 64 67 69 71 73 75 78 81 82 84 88 90 90 89 85 84 85 86 85 85 89 92
40 46 53 56 56 55 57 57 56 56 56 55 55 55 49 55 57 55 57 60 62 64 67 69 70 73 76 80 81 83 87 89 90 87 82 81 82 83 83 83 86 90 93 95
38 43 50 55 59 58 54 55 56 56 56 57 57 56 56 56 55 60 60 61 64 66 69 72 76 79 81 82 84 88 89 86 79 79 79 80 81 81 84 87 90 92 93 93
38 41 47 53 57 59 59 57 58 59 60 59 59 58 60 60 62 63 65 67 69 72 75 77 79 81 84 85 85 79 74 75 76 77 77 78 80 84 87 89 90 91 92 97
33 37 43 48 54 58 59 61 61 61 60 61 62 62 63 65 66 67 69 71 73 75 77 79 82 83 79 74 71 72 74 74 75 75 76 80 84 87 87 88 89 93 98 104
29 31 34 40 45 49 55 58 60 62 63 64 65 66 66 67 69 71 73 75 75 78 79 74 71 67 66 68 69 69 69 72 74 77 81 84 83 81 82 87 93 99 106 112
28 30 34 36 37 41 46 51 55 57 59 60 62 64 65 67 69 70 71 69 66 61 59 61 63 64 63 65 68 70 71 74 77 80 80 77 78 83 88 95 101 107 113 118
25 26 28 31 33 35 37 40 43 46 49 50 51 52 53 54 52 52 52 53 55 55 55 55 58 62 64 66 69 70 73 76 73 69 73 78 83 89 96 102 109 115 120 124
27 27 27 28 29 30 31 32 34 36 37 37 38 40 42 45 48 50 50 49 50 52 55 59 62 65 67 68 70 73 66 64 68 72 78 84 90 96 102 108 114 120 126 131

GFSCGP_250_spd_027.txt.gz
Wind_Speed
71 57 51 64 66 68 68 66 66 66 75 86 78 77 80 82 71 64 56 52 45 44 41 40 42 43 38 39 40 43 40 36 35 38 42 42 44 40 41 42 41 40 40 40
68 52 68 76 77 76 76 73 67 69 75 89 85 79 84 82 70 65 56 52 45 45 40 39 39 37 33 32 33 33 32 33 37 41 38 38 38 41 42 44 44 43 41 41
73 69 81 83 85 82 80 73 73 70 79 89 88 83 85 78 69 66 57 54 43 45 39 37 36 31 30 31 32 31 34 36 38 36 34 33 33 32 35 38 39 40 41 43
82 86 87 88 84 84 81 80 81 74 79 88 94 83 83 76 73 65 57 50 42 45 39 38 34 32 33 33 32 30 31 30 32 31 31 31 32 32 33 34 34 36 37 40
87 86 88 85 77 83 73 79 77 76 77 87 93 83 81 80 72 60 58 48 46 44 39 39 36 36 38 36 33 32 32 29 29 29 30 31 32 33 34 36 39 40 41 43
79 77 76 75 73 69 66 69 71 74 79 90 90 80 83 77 68 61 58 47 46 47 42 42 40 41 38 37 34 35 33 31 33 33 33 35 37 37 40 41 43 46 49 51
54 51 48 48 50 52 51 64 64 69 78 76 85 81 82 77 68 63 56 50 49 50 44 43 42 43 40 38 37 34 34 35 36 36 36 38 39 40 42 45 48 51 55 58
31 31 34 36 40 43 52 66 61 60 72 80 83 82 80 75 68 61 55 51 51 51 46 44 44 44 41 40 40 37 37 38 39 41 40 40 43 45 47 49 53 56 59 63
20 22 23 25 27 33 44 49 64 72 80 86 82 79 84 73 66 61 56 55 55 53 47 45 45 44 43 42 41 38 40 41 41 41 41 42 46 50 53 56 60 63 67 69
13 15 19 24 32 45 55 61 69 75 78 80 79 83 79 71 65 61 58 58 55 52 48 46 45 45 46 43 41 40 40 42 41 44 46 48 51 56 59 62 66 69 72 75
11 17 29 39 44 52 56 67 71 71 69 79 79 78 74 67 64 62 60 59 55 51 47 45 47 48 46 43 43 43 42 43 45 48 50 54 59 62 66 69 72 75 78 81
47 48 60 61 62 57 66 59 53 60 72 78 75 77 70 66 64 61 60 58 54 50 47 47 48 45 45 45 46 46 47 47 50 53 56 59 64 68 72 75 78 82 84 87
58 59 62 69 65 56 51 49 53 74 76 74 74 73 69 64 62 60 59 56 51 49 48 49 49 46 46 47 49 50 51 52 55 60 63 66 71 75 79 81 84 87 90 94
57 59 50 43 53 48 33 47 60 66 73 71 72 70 67 63 62 60 58 56 52 51 52 52 50 48 49 50 52 54 55 58 62 65 68 73 77 81 83 86 89 91 96 99
54 56 45 43 52 57 51 58 69 68 72 72 69 67 64 62 60 58 56 56 54 54 54 54 53 52 52 53 56 59 60 63 66 71 75 79 82 85 87 91 93 98 99 98
55 54 54 53 52 53 59 67 70 71 72 71 70 65 60 57 56 55 54 54 53 54 56 56 56 56 56 58 60 62 65 68 72 76 80 83 85 89 92 95 98 99 95 93
56 56 53 53 57 60 62 67 67 68 65 60 60 60 56 53 51 50 51 51 54 56 57 58 58 59 61 62 64 66 69 74 77 80 82 86 90 93 96 99 97 91 91 92
52 57 53 51 50 50 56 57 59 59 58 57 59 55 50 50 50 48 50 50 52 55 57 58 60 62 64 65 67 70 74 77 79 82 87 90 94 97 97 91 89 90 90 90
36 43 45 44 44 45 54 57 57 54 51 52 52 48 49 50 50 47 47 49 52 56 59 61 63 64 65 68 71 74 76 79 84 88 91 94 95 91 86 87 88 89 90 93
32 32 38 39 41 45 54 54 51 48 48 48 47 49 51 49 49 48 49 51 51 55 58 60 62 64 66 71 74 76 81 84 88 90 92 87 82 83 85 86 87 89 92 94
25 28 30 35 39 46 51 51 49 47 47 47 47 48 48 49 50 51 52 52 54 56 59 61 65 68 71 74 78 82 85 88 88 83 79 80 81 82 83 85 89 90 89 88
25 26 27 32 42 46 49 48 48 48 50 49 48 48 49 50 50 52 54 56 58 61 64 67 70 72 76 79 82 84 84 80 77 77 77 79 80 81 84 87 85 84 89 94
23 23 26 32 40 48 51 51 50 49 49 50 50 51 53 54 54 56 59 61 64 66 69 72 74 76 78 80 79 76 73 73 73 74 77 77 81 84 82 79 85 90 96 101
24 26 27 29 33 42 47 50 52 53 53 54 54 56 57 58 60 62 64 66 68 71 72 73 74 75 73 71 69 69 69 70 73 75 77 80 79 76 79 85 90 97 103 108
23 25 27 28 31 35 41 47 51 53 56 57 58 58 60 62 63 64 65 66 66 66 65 64 62 62 62 64 65 67 70 72 73 75 75 72 73 79 85 92 98 104 110 114
20 20 20 23 26 28 31 35 39 42 44 45 47 50 52 53 54 54 53 53 54 55 56 56 58 61 64 65 68 69 70 72 71 69 68 73 78 84 91 97 103 110 116 123

GFSCGP_250_spd_030.txt.gz
Wind_Speed
66 60 61 67 69 66 65 62 56 58 61 65 63 69 75 77 75 77 77 75 67 62 57 52 46 44 44 38 40 45 51 55 55 57 54 54 48 48 45 47 46 47 47 47
68 65 69 73 73 70 69 67 57 63 66 67 67 64 74 77 76 76 77 74 69 63 57 49 45 41 39 39 38 40 43 44 42 40 41 41 41 43 45 44 40 41 41 41
72 71 74 76 77 76 74 73 65 65 72 67 70 68 74 76 80 75 74 73 68 63 58 47 42 40 37 38 41 41 40 36 35 35 35 37 42 42 41 40 40 40 40 40
71 77 80 81 78 84 81 79 75 76 76 70 74 67 74 78 81 75 75 75 68 62 57 49 42 40 38 38 37 35 34 32 34 34 37 40 41 40 39 38 39 41 41 40
76 80 85 84 89 97 87 89 85 84 83 81 73 72 69 76 79 74 74 75 66 61 55 48 40 40 39 37 35 35 36 34 34 33 35 37 38 38 40 40 42 44 44 43
81 86 88 90 95 94 91 93 92 90 89 78 69 66 63 77 76 78 76 75 67 61 55 50 42 42 41 39 38 40 39 38 37 36 39 39 41 41 43 45 45 45 46 47
83 84 85 85 85 83 83 86 88 90 81 39 71 63 50 72 81 81 76 77 69 62 55 49 44 44 42 42 42 44 42 40 40 40 40 43 42 43 45 48 48 48 50 52
81 77 61 54 56 59 63 65 67 66 50 53 73 51 46 70 85 82 76 77 70 61 56 48 43 44 44 45 46 47 45 44 44 42 43 44 45 47 49 51 51 53 55 59
54 44 42 39 37 39 43 45 56 51 58 66 63 46 65 78 82 81 74 73 66 61 55 49 44 47 47 47 48 48 48 46 46 46 47 48 52 52 52 52 55 57 60 64
27 29 26 25 25 27 30 32 35 39 47 49 47 64 70 80 79 76 73 73 67 61 54 49 49 50 48 49 50 48 50 49 49 49 50 51 52 54 55 55 59 62 65 70
11 9 2 6 10 15 21 23 29 42 54 52 53 60 75 73 82 77 77 72 65 59 54 51 50 51 50 51 50 50 52 52 50 51 52 54 56 57 58 61 64 67 72 77
22 38 32 26 20 15 17 26 39 48 47 48 53 66 69 75 77 76 76 70 63 57 53 52 51 52 51 51 51 53 54 52 52 53 55 58 59 61 64 67 70 73 79 83
44 46 37 37 42 32 36 34 35 45 56 56 58 68 70 73 73 73 70 64 59 57 53 52 53 53 52 52 52 54 54 52 53 56 59 61 63 66 69 73 75 81 85 89
40 45 41 45 50 44 35 38 38 43 52 58 64 73 73 70 73 71 65 60 57 54 53 53 54 54 53 52 53 54 53 55 57 60 63 64 67 70 74 77 82 86 90 93
30 42 43 46 48 41 42 47 46 41 51 57 64 70 70 72 72 66 61 58 56 55 54 53 53 54 52 52 54 55 56 59 61 63 65 68 71 75 79 82 87 91 94 98
35 46 36 42 47 37 32 36 26 25 49 57 63 66 68 69 67 63 60 58 57 55 54 52 52 52 53 55 57 58 61 63 64 67 70 72 76 80 83 87 90 94 99 103
24 38 34 35 28 44 42 39 44 22 47 58 64 66 68 67 63 58 55 54 53 52 52 51 51 53 56 58 60 62 64 66 69 71 74 78 80 83 87 90 94 99 102 102
28 38 37 37 33 34 40 39 47 45 59 63 67 66 64 59 54 53 53 53 52 51 51 53 54 57 58 60 63 65 67 70 72 75 78 81 83 87 90 95 99 102 96 92
30 31 38 37 37 29 30 32 44 53 61 58 55 59 57 54 52 51 50 49 50 51 52 53 55 58 59 62 65 68 70 73 76 78 80 83 86 90 95 99 98 91 91 92
23 22 22 18 20 19 24 31 47 49 54 52 57 57 55 53 50 48 48 50 50 51 52 54 55 58 60 61 62 66 71 74 77 79 82 86 91 95 97 93 89 88 90 90
14 14 15 13 10 18 19 33 41 41 46 52 53 51 50 49 47 48 48 49 51 53 53 54 56 58 59 62 64 67 71 74 78 82 86 91 94 93 87 86 87 87 87 87
15 15 14 10 13 18 24 33 35 43 48 51 50 49 49 50 50 50 50 50 51 53 55 56 57 59 62 65 68 71 74 79 83 87 90 90 85 83 83 85 84 84 81 83
16 17 17 17 20 23 27 35 38 44 46 47 47 48 49 50 50 50 49 51 53 54 55 58 60 62 66 68 72 76 80 84 87 87 81 79 80 82 82 81 80 79 83 89
19 17 16 16 19 25 30 38 43 45 47 46 46 47 48 48 48 49 50 51 52 55 57 60 63 67 70 74 77 81 83 81 77 76 77 79 79 78 78 75 77 83 88 94
20 19 20 20 21 26 31 39 44 46 47 47 47 47 47 48 49 51 53 54 57 60 63 66 69 72 75 76 75 74 72 72 73 75 76 75 73 70 72 77 83 89 96 101
18 19 18 18 20 24 31 40 45 47 48 49 49 50 51 52 53 55 58 60 62 64 66 67 67 66 66 67 67 68 70 71 73 73 68 64 65 70 76 83 90 96 100 106

GFSCGP_250_spd_033.txt.gz
Wind_Speed
74 68 66 67 69 66 63 61 58 60 61 64 56 51 50 53 59 72 74 69 68 72 77 75 71 65 60 54 52 48 49 50 51 56 58 59 61 62 62 62 63 57 52 48
76 71 71 72 71 70 68 66 64 65 68 67 65 52 52 53 57 64 72 70 65 68 74 74 73 67 61 55 51 50 45 40 41 44 46 50 51 54 53 51 49 48 46 48
84 76 76 75 75 75 73 71 72 71 75 72 67 56 53 54 60 61 67 72 66 63 70 72 71 67 61 55 50 47 45 44 41 39 41 43 44 45 44 44 43 44 46 44
82 83 83 82 80 82 78 78 79 78 78 76 71 57 54 52 59 60 61 69 69 63 68 71 70 66 62 55 49 45 43 42 40 38 39 41 40 42 41 41 41 44 44 44
77 85 89 85 85 87 81 84 83 83 82 82 73 68 51 49 58 61 61 66 71 66 67 71 71 67 58 53 49 45 42 39 39 39 40 39 40 39 40 40 42 45 44 46
70 77 83 84 87 87 87 88 89 89 89 85 77 67 47 49 53 63 66 68 73 69 68 70 69 65 56 54 50 45 41 39 39 39 40 41 40 40 42 42 44 45 46 50
65 72 73 74 79 84 86 90 94 98 97 75 84 77 42 52 57 60 63 68 72 70 67 70 69 66 57 54 48 44 42 40 41 42 43 44 44 45 44 46 48 49 51 53
62 67 73 78 84 86 90 94 94 96 93 83 97 77 48 61 69 67 61 63 67 69 69 71 69 65 56 52 48 47 43 42 44 45 46 47 48 47 48 49 50 52 54 57
66 74 76 74 70 64 62 60 65 63 65 75 77 62 60 66 75 68 61 59 65 71 71 71 70 63 55 53 50 47 44 45 48 50 49 50 51 51 53 53 53 55 59 62
67 69 64 51 43 43 40 40 45 47 51 45 43 52 51 66 74 68 62 59 67 73 73 72 69 59 56 54 50 48 47 49 51 52 51 53 54 53 55 57 57 60 63 65
56 48 41 35 22 23 22 25 29 30 32 35 47 54 66 69 74 65 66 67 73 77 77 75 68 60 57 53 50 49 49 51 52 53 53 54 55 57 58 60 62 64 67 71
42 33 16 23 20 13 8 8 11 18 25 43 54 68 66 61 63 63 67 69 73 76 73 71 67 58 55 52 52 50 51 52 53 54 53 55 56 59 60 62 66 70 72 75
15 8 23 28 31 25 21 13 6 3 12 33 62 68 56 59 64 63 66 65 70 73 72 70 63 59 56 53 52 51 51 53 53 54 55 56 58 60 63 66 70 72 76 78
25 31 26 30 27 30 27 25 15 12 17 35 53 60 65 60 53 62 64 66 70 72 72 68 60 57 55 53 53 52 52 52 53 54 56 59 61 64 66 70 73 75 78 81
34 35 31 40 40 38 24 31 28 29 28 34 41 45 46 49 54 59 64 68 67 68 68 64 59 56 55 53 52 52 52 53 54 57 59 62 64 67 71 74 77 81 83 87
34 26 32 43 36 32 29 22 18 28 29 19 30 35 43 47 51 59 62 66 69 68 64 60 56 55 53 51 51 51 53 56 57 59 62 65 69 71 75 79 82 84 88 91
23 33 31 38 35 32 27 11 17 17 15 22 24 37 43 47 53 59 63 65 66 63 59 56 52 50 50 49 49 52 56 58 59 61 65 68 72 75 79 81 84 88 92 96
30 35 22 38 37 31 32 15 17 26 16 19 21 37 43 48 55 58 58 61 60 57 53 49 48 47 46 47 49 53 57 59 61 64 68 71 75 78 81 84 87 92 95 98
25 38 37 29 37 33 34 28 13 23 26 13 29 37 45 52 54 55 55 55 51 49 47 47 45 45 46 48 51 54 57 60 64 67 70 73 76 78 81 85 89 93 98 103
22 25 22 7 13 30 32 25 17 26 31 24 39 44 49 51 54 52 50 47 47 47 46 46 46 46 48 51 53 56 59 63 66 69 71 73 76 80 84 89 93 98 103 100
14 6 8 3 7 4 8 16 17 22 27 32 36 41 47 48 49 49 48 46 44 43 44 45 46 49 51 53 56 59 61 63 66 70 74 77 81 85 89 94 99 98 92 93
6 5 6 7 12 7 5 8 2 12 26 34 37 42 44 48 49 47 44 42 43 44 45 46 48 51 53 56 58 60 63 67 70 73 77 81 85 90 94 95 89 88 89 85
12 12 10 11 12 11 7 7 10 11 21 32 34 40 44 47 47 45 43 43 43 43 44 46 49 51 54 57 60 63 67 70 73 76 81 86 89 90 85 85 85 82 75 75
13 11 9 10 13 14 14 13 12 16 18 28 34 39 45 45 44 43 44 44 43 45 47 49 51 53 56 59 62 66 70 74 78 82 83 83 80 81 82 79 72 70 76 81
14 11 12 14 13 14 17 18 17 20 25 31 36 41 44 44 44 44 45 45 47 49 50 52 54 56 59 63 68 71 74 76 76 76 74 76 78 76 68 66 69 75 82 87
14 16 15 14 15 16 17 19 22 22 24 30 37 41 42 42 42 43 44 46 48 50 53 56 58 62 65 70 70 68 67 67 69 71 74 74 68 63 64 70 76 81 87 94

GFSCGP_250_spd_036.txt.gz
Wind_Speed
74 72 71 77 77 76 73 72 71 69 68 68 66 59 55 59 57 54 51 47 51 58 67 66 67 71 75 75 74 70 64 61 55 54 52 52 52 53 54 55 58 61 60 62
74 73 76 80 80 79 79 78 78 75 75 74 71 60 58 57 55 54 49 46 47 54 62 67 66 67 71 72 73 71 64 59 55 52 49 48 47 50 50 54 55 56 57 57
76 78 77 78 78 81 84 87 85 83 82 79 75 63 64 59 56 55 50 48 48 48 54 65 66 67 69 71 70 68 64 59 56 50 49 46 43 44 46 47 49 50 50 49
74 76 79 82 84 90 90 93 92 89 85 82 83 64 63 60 56 52 51 51 48 48 51 60 66 66 67 70 69 66 64 59 53 50 48 47 48 45 44 45 46 45 43 44
73 77 82 81 82 84 83 85 88 89 88 87 80 72 57 63 59 53 53 51 49 50 53 57 66 67 65 66 69 67 62 58 52 50 47 47 45 44 43 45 44 42 42 44
67 66 69 75 81 82 83 83 84 85 85 77 79 77 56 62 64 61 59 54 53 54 55 56 65 66 63 63 65 66 63 58 51 48 47 45 43 44 46 44 44 43 44 44
60 66 71 76 79 76 69 71 72 75 79 65 76 83 53 64 64 68 63 57 53 56 56 56 60 66 64 63 64 65 64 58 51 49 46 43 44 44 44 44 44 44 46 47
61 67 72 65 65 68 67 70 74 77 75 67 79 70 53 68 72 73 70 61 55 55 57 60 61 65 65 62 63 65 62 55 51 48 46 43 44 45 46 46 46 48 49 52
61 60 55 62 71 73 71 67 72 74 74 74 77 68 63 68 70 77 78 68 56 57 63 63 61 67 68 62 63 64 61 55 51 49 47 45 47 48 49 49 49 51 53 56
53 51 58 61 53 58 61 58 57 54 51 57 53 49 57 74 85 85 84 71 66 59 63 64 63 67 70 62 64 62 60 55 51 49 47 47 50 51 52 52 52 54 57 59
50 55 50 46 56 54 50 42 45 48 47 44 42 39 52 74 89 93 88 74 64 62 65 65 64 68 68 62 63 61 59 54 51 49 48 49 51 53 53 55 56 58 60 63
48 45 40 48 50 27 17 21 27 31 31 30 29 45 61 71 81 90 90 78 65 60 63 65 65 65 65 61 63 61 59 54 50 49 49 51 52 54 55 57 58 60 63 67
27 21 21 12 11 18 19 22 16 11 14 20 31 41 54 67 78 85 83 71 63 64 64 63 64 63 63 62 64 60 56 53 50 49 50 51 52 53 55 58 61 63 66 70
25 14 5 9 9 20 32 27 23 11 4 7 11 28 46 62 72 78 70 63 61 58 59 63 64 63 64 62 61 57 55 52 50 49 49 52 53 55 57 60 64 67 70 73
16 9 13 25 26 27 32 29 24 24 17 9 11 20 42 60 67 62 57 49 47 54 61 67 66 65 62 60 58 55 53 50 48 48 50 53 54 57 60 63 67 71 74 78
17 19 17 19 21 17 26 27 29 27 18 11 7 10 31 40 41 46 45 46 51 55 61 61 59 61 58 58 53 52 51 48 47 50 52 54 56 60 63 67 70 74 78 83
27 24 18 15 16 25 16 20 26 26 29 17 13 19 24 28 32 36 42 49 52 53 53 55 57 55 54 51 49 49 47 46 48 51 53 56 60 63 67 71 74 78 82 86
27 25 21 15 17 16 14 14 20 18 17 15 16 15 18 22 26 32 39 44 45 44 48 52 53 52 51 49 48 46 45 46 49 52 55 58 62 66 70 74 78 82 85 88
28 28 24 19 19 16 8 13 15 21 15 13 16 14 15 19 23 29 38 39 38 41 46 50 50 50 47 45 44 43 46 49 53 56 57 59 62 67 71 76 79 83 85 89
27 25 24 11 16 11 11 12 13 13 7 6 11 9 12 18 21 22 27 34 38 41 46 47 46 43 42 40 40 42 47 50 53 55 59 62 66 70 74 77 81 85 89 93
26 21 8 4 14 14 6 9 10 11 4 5 3 4 12 17 20 21 27 34 39 43 43 41 39 39 37 38 41 44 47 50 54 57 61 66 70 74 77 82 86 89 94 98
21 20 9 2 10 13 13 11 12 16 14 14 7 9 13 17 18 24 31 34 39 40 38 37 36 36 37 41 44 48 50 53 57 61 66 69 73 77 80 85 89 93 95 94
12 9 7 8 9 11 9 14 9 13 13 12 10 14 16 21 25 31 32 38 40 37 36 36 38 39 41 43 46 49 53 56 60 64 68 72 76 81 86 89 91 90 87 88
8 7 7 7 8 11 10 10 12 10 7 6 9 14 20 27 31 33 34 36 35 34 34 35 36 39 42 45 48 51 55 60 65 68 72 77 81 85 86 85 84 86 82 76
10 8 8 9 11 11 12 8 8 7 7 6 8 16 22 25 29 32 34 35 35 34 35 36 39 42 45 49 52 57 61 65 69 74 78 80 80 79 79 82 82 76 73 74
9 10 9 10 10 12 12 13 12 10 8 7 9 12 17 23 28 32 35 36 36 36 38 42 45 47 51 54 58 62 67 71 74 75 73 73 74 78 79 77 72 70 74 78

GFSCGP_250_spd_039.txt.gz
Wind_Speed
82 78 75 75 76 76 76 73 69 70 74 74 74 66 60 61 59 59 58 56 55 58 61 59 56 56 68 73 75 72 72 73 72 69 66 61 56 54 52 51 50 49 52 55
77 79 80 81 81 80 78 76 76 77 81 80 75 67 69 68 62 60 63 60 57 58 61 61 56 52 62 73 73 71 71 70 70 69 66 62 54 53 52 52 47 48 50 52
74 76 77 78 78 77 80 82 84 84 85 84 84 73 75 74 70 69 64 64 62 59 60 61 56 49 54 67 72 70 68 68 68 67 65 62 56 51 51 51 49 48 47 49
70 72 71 72 74 81 82 84 87 88 89 88 91 78 76 78 77 72 69 69 66 62 61 61 57 50 49 61 70 68 65 64 65 65 64 61 57 52 51 51 49 49 50 50
67 67 68 71 78 81 82 84 89 93 96 94 90 93 78 82 80 79 75 75 72 68 62 61 58 54 51 54 66 67 62 60 62 63 63 60 57 51 51 51 49 49 50 50
65 67 69 74 77 80 82 86 88 90 93 83 86 90 65 77 79 82 79 78 74 71 67 63 61 56 49 52 58 64 61 59 59 61 62 59 55 50 51 50 49 50 49 50
63 65 68 73 75 74 69 74 81 84 87 79 86 87 67 75 77 81 83 80 76 73 70 66 61 55 51 51 54 63 60 58 57 59 61 58 54 51 51 49 50 49 50 50
61 65 68 61 60 66 72 78 85 79 77 72 79 72 65 67 73 79 83 86 82 78 75 68 64 56 52 51 53 58 58 56 57 58 58 56 53 52 51 50 50 50 50 50
50 50 54 57 63 67 72 71 76 77 75 71 68 69 70 70 72 74 82 90 83 76 75 71 64 56 52 53 53 54 56 55 56 58 58 55 53 52 52 51 51 51 51 53
41 46 55 57 63 59 62 59 59 68 63 64 53 52 63 67 70 74 87 87 86 78 72 70 65 57 53 55 54 52 54 55 56 59 58 55 53 52 52 52 53 53 54 55
39 49 55 53 54 50 45 51 56 56 51 54 46 39 56 55 64 79 81 85 87 79 72 69 63 57 55 57 53 51 55 55 57 59 57 54 54 54 53 53 55 55 57 59
40 49 47 47 38 36 36 39 44 46 45 38 42 43 38 45 55 74 81 84 86 77 73 68 62 54 52 54 52 50 53 57 58 59 57 55 55 54 54 54 55 57 58 61
42 39 33 27 27 31 27 29 38 37 42 39 38 36 30 33 44 56 78 83 83 73 70 67 60 54 47 50 52 50 54 58 58 58 56 54 54 54 54 54 55 58 60 62
36 24 14 17 10 17 25 29 37 46 26 17 29 27 19 18 30 40 60 82 77 71 64 61 56 50 46 49 54 53 55 58 59 59 56 53 53 54 55 55 56 58 61 63
23 10 13 7 6 9 24 34 39 46 43 26 9 11 14 9 18 32 47 69 74 68 62 57 54 49 48 52 55 54 55 58 58 58 55 53 53 54 55 55 56 59 61 64
8 21 20 11 9 16 20 33 32 38 38 35 34 27 11 10 5 23 35 54 71 66 56 54 50 49 50 52 54 53 53 55 55 56 54 53 53 53 54 54 56 60 63 67
21 23 7 6 12 11 20 26 30 34 37 34 30 27 25 18 8 7 24 42 55 56 55 52 51 49 49 52 54 49 52 53 55 54 52 50 50 51 53 54 58 61 66 70
23 18 10 8 6 5 17 22 26 31 35 32 29 25 24 24 25 28 34 38 41 43 43 46 50 49 50 52 51 48 52 52 51 50 49 49 49 52 53 56 60 65 70 74
18 20 12 9 5 10 7 15 24 26 29 31 28 27 24 20 25 31 32 34 35 35 42 42 41 42 45 45 46 46 46 46 46 47 47 48 51 53 56 61 65 70 74 77
28 21 12 11 4 1 8 10 11 21 24 26 23 26 22 24 17 22 29 29 31 28 21 22 26 30 34 38 41 40 40 40 42 43 46 50 53 55 60 65 69 72 76 80
24 22 17 12 7 5 3 1 4 10 20 21 21 16 16 14 14 12 12 17 17 17 16 20 25 29 33 34 35 36 37 39 41 44 46 49 53 58 62 67 71 75 80 84
24 30 21 12 10 9 15 11 11 8 11 16 11 12 9 12 8 9 9 10 15 17 17 20 24 27 30 30 32 34 36 38 41 43 47 52 57 61 66 71 75 80 84 88
21 27 18 11 9 9 13 15 11 8 11 16 10 2 8 8 5 8 7 7 12 15 19 22 24 26 28 30 31 33 36 39 42 47 51 56 61 66 70 75 80 83 88 93
20 20 18 17 13 11 13 13 13 8 6 12 14 7 9 12 7 5 7 7 13 15 20 23 24 26 27 29 32 35 38 43 47 52 56 60 66 71 75 79 84 89 93 90
14 17 19 18 15 15 12 11 13 11 9 13 15 12 12 10 11 12 13 15 17 20 25 26 26 26 29 32 36 40 44 48 52 56 61 66 71 75 80 85 88 86 85 87
13 16 17 15 14 14 12 11 11 10 12 13 13 12 11 11 11 15 16 18 21 24 28 29 30 32 35 38 41 45 49 53 58 62 67 72 76 81 82 82 82 82 79 74

GFSCGP_250_spd_042.txt.gz
Wind_Speed
80 79 82 80 78 74 73 72 71 74 76 72 70 64 64 64 65 65 65 63 59 53 56 61 62 62 62 63 64 63 63 62 63 66 69 69 71 70 67 63 59 58 58 56
81 81 82 83 82 80 78 77 77 78 80 76 74 67 70 68 66 68 69 67 66 62 61 59 64 65 61 62 64 66 63 60 60 64 66 68 69 69 67 64 61 61 58 54
80 81 83 83 82 81 81 80 83 80 80 79 78 71 76 72 73 75 77 75 74 71 70 66 62 67 65 61 61 66 65 60 60 62 65 66 68 68 66 65 62 61 59 56
82 83 84 84 85 85 84 83 82 82 85 84 83 78 76 79 81 82 83 82 82 81 80 75 71 68 70 65 63 63 66 61 60 60 64 65 65 66 65 63 60 61 61 58
83 85 86 87 88 85 83 78 77 78 78 77 81 87 75 84 84 89 89 91 88 85 83 81 79 69 72 69 63 61 63 59 59 60 64 65 62 63 63 60 60 60 60 60
81 83 82 81 79 76 73 72 76 75 77 78 85 92 79 92 92 94 96 99 98 93 88 86 84 81 74 70 64 61 62 57 56 58 63 65 62 58 59 58 59 60 59 60
63 65 66 67 64 65 68 72 73 77 79 79 84 87 84 88 86 89 92 97 95 91 88 89 89 85 77 71 66 63 61 56 53 55 61 62 59 56 52 58 59 59 58 60
52 53 56 60 62 63 67 69 75 72 76 76 76 80 85 91 91 88 88 92 93 94 88 83 81 79 75 72 67 65 62 54 52 52 58 59 57 56 56 58 58 57 59 60
50 54 57 58 61 62 62 64 65 67 73 75 79 81 81 89 94 83 76 85 89 92 94 90 85 77 72 69 65 64 62 54 50 52 57 56 55 55 58 59 58 59 60 60
49 52 54 53 52 48 50 57 65 70 72 73 75 71 69 81 84 80 71 79 84 83 84 86 87 82 75 71 66 63 59 53 49 49 55 55 54 55 59 59 59 59 61 60
44 44 50 42 39 45 52 59 65 66 64 64 63 59 78 72 75 60 57 70 78 80 80 77 79 80 75 71 64 61 57 52 49 48 54 55 55 56 58 60 60 60 59 59
32 36 36 36 41 48 53 57 56 52 54 53 49 43 59 51 52 55 49 54 65 77 78 76 74 76 73 70 65 58 51 47 48 49 51 56 57 56 58 61 60 60 59 59
26 31 34 37 46 47 48 42 40 46 38 41 39 41 52 35 29 38 41 48 56 68 73 72 69 70 69 65 60 53 47 47 48 47 49 54 55 57 60 62 61 59 60 60
25 29 35 41 41 33 22 18 27 38 36 34 24 20 37 26 17 23 31 37 40 54 67 64 63 66 65 60 54 50 45 45 47 48 49 50 56 59 61 62 61 59 59 60
25 29 33 33 13 20 23 15 26 34 33 32 24 12 13 19 18 18 22 28 29 46 59 54 60 61 59 55 50 46 44 44 48 49 49 48 57 58 61 61 60 58 59 61
24 26 23 14 18 16 12 19 22 30 35 32 29 15 11 6 7 11 17 19 30 48 50 51 58 57 54 50 48 47 46 45 48 50 49 48 55 58 61 60 58 57 59 61
23 18 12 7 8 3 12 18 23 31 36 31 30 26 26 25 22 17 14 20 38 46 43 47 50 49 48 47 46 43 45 46 46 49 51 50 55 56 56 57 57 58 59 61
17 8 11 8 3 8 13 20 22 30 36 32 28 28 38 45 44 34 21 26 40 38 37 40 42 43 43 41 40 42 45 47 49 51 50 48 51 53 54 56 57 57 59 61
15 14 12 8 3 7 12 20 23 26 31 32 30 28 31 44 44 23 23 27 40 42 39 40 41 41 41 40 39 40 44 46 47 48 47 44 48 50 52 53 56 58 60 64
20 19 18 13 8 7 11 14 18 26 25 28 31 32 29 33 41 31 21 11 23 38 43 41 40 40 39 40 38 41 45 45 44 41 41 41 44 46 49 53 55 59 63 68
22 24 19 17 10 10 11 11 9 20 16 20 24 24 27 26 22 27 29 17 12 20 24 28 32 35 37 37 38 38 36 35 34 33 34 37 39 43 47 51 56 60 65 71
24 28 23 15 12 12 10 14 11 13 13 13 17 17 18 18 16 14 12 10 7 9 11 12 17 23 25 26 26 25 23 22 24 28 31 34 39 44 49 54 59 64 69 74
29 32 26 24 18 15 13 15 18 8 7 10 10 10 4 9 12 13 15 13 12 12 12 15 14 13 11 11 12 14 17 20 24 28 33 38 43 48 53 58 63 69 74 79
28 26 26 28 25 17 20 18 15 12 4 5 7 4 9 6 6 11 10 11 10 9 8 8 9 9 10 11 13 16 19 24 29 34 38 43 48 52 58 64 69 74 80 85
21 21 19 26 24 21 22 18 13 13 6 3 6 10 12 11 6 8 7 7 8 9 10 9 9 9 12 14 18 22 26 29 34 38 44 48 54 60 65 70 75 80 85 89
21 18 22 28 24 23 20 15 11 11 7 10 7 10 11 10 10 9 8 8 8 9 10 12 14 16 18 20 24 28 32 36 41 45 51 56 61 66 71 75 80 84 86 86

GFSCGP_250_spd_045.txt.gz
Wind_Speed
91 91 91 92 90 87 86 83 81 81 80 79 76 72 68 68 68 68 67 66 64 61 62 60 61 62 63 59 57 56 61 64 63 62 61 61 61 62 64 62 66 72 75 73
92 90 90 88 87 85 87 87 86 88 87 84 82 71 69 68 69 71 75 75 75 72 67 64 64 64 65 65 60 58 59 62 64 61 60 61 57 60 62 60 63 68 71 72
90 90 88 87 85 84 85 85 85 82 80 78 76 67 73 70 71 77 81 80 80 79 76 70 67 66 66 67 67 63 59 61 64 61 57 57 56 58 58 62 62 65 67 66
82 87 86 86 85 85 83 83 82 80 80 79 79 73 73 74 77 82 83 84 83 86 84 79 75 73 71 69 69 71 65 62 65 63 58 56 55 55 57 62 64 65 66 67
76 77 79 83 86 85 84 84 84 84 82 80 80 81 66 78 83 86 88 90 90 91 92 86 82 79 77 74 73 73 72 65 63 65 60 58 55 54 57 60 63 65 66 68
71 76 78 80 81 83 83 84 85 84 83 80 81 85 73 83 86 87 89 94 94 94 94 93 90 89 85 83 79 77 75 70 66 68 62 60 55 56 55 56 59 62 64 66
61 69 73 75 78 80 81 83 84 84 82 80 85 88 79 80 87 83 86 89 92 94 95 96 96 93 91 88 83 78 75 75 69 70 63 62 57 56 56 53 54 59 64 66
58 61 66 72 76 79 80 81 84 82 85 85 78 70 76 80 84 83 87 93 96 98 99 98 100 100 96 94 86 80 81 77 70 70 67 62 60 57 56 51 53 59 64 66
59 62 67 71 74 76 76 78 73 68 67 65 66 72 75 80 88 88 88 89 91 92 92 90 89 88 87 87 84 81 80 78 75 71 65 62 61 57 55 54 52 59 63 64
46 46 45 46 47 46 44 50 54 57 57 63 65 67 74 81 87 91 96 99 92 86 86 86 88 92 91 82 77 72 74 73 74 68 61 61 60 58 56 54 52 59 61 65
35 34 38 40 34 36 40 49 50 50 53 61 64 70 80 84 84 89 94 92 84 77 70 73 82 88 87 82 82 78 72 66 67 63 59 57 58 58 55 53 52 58 60 63
34 35 35 26 29 33 40 39 43 49 56 61 65 51 71 72 77 81 70 70 60 60 64 67 70 75 76 81 76 78 74 67 63 59 57 55 57 56 55 53 52 57 59 61
30 28 24 21 22 29 35 39 46 49 47 45 50 42 61 57 64 64 53 45 48 50 48 49 64 65 70 73 67 70 72 67 59 58 57 54 54 55 54 51 50 56 59 61
20 18 17 19 24 31 35 39 33 29 25 27 45 40 53 49 49 47 37 33 38 38 37 43 54 59 64 60 59 63 66 67 57 57 54 52 52 53 51 50 49 53 57 60
16 15 18 20 25 30 27 20 10 23 30 34 33 32 34 36 34 33 29 23 22 24 22 26 35 44 47 51 55 55 61 56 55 55 52 51 52 51 51 50 48 49 55 58
15 14 18 23 23 16 9 4 10 25 32 39 19 27 28 16 13 13 12 9 5 10 16 20 26 33 42 47 47 53 51 51 52 49 48 50 50 52 52 50 50 51 50 55
13 18 21 21 10 2 4 8 18 25 32 30 19 21 27 26 24 17 13 10 7 10 18 23 29 35 37 40 44 45 47 47 45 45 48 50 51 50 51 52 52 52 50 54
19 19 17 11 6 2 7 13 19 22 26 24 19 22 32 41 40 29 30 29 28 24 22 23 27 33 35 36 39 40 41 42 43 45 45 48 48 48 50 53 53 51 49 53
19 17 12 13 11 4 7 16 20 19 25 19 14 18 23 37 38 22 29 26 24 24 24 24 26 29 31 34 36 38 40 39 39 40 43 44 47 48 50 51 51 49 48 52
18 17 16 17 11 3 9 15 16 16 21 19 21 13 18 25 25 26 19 16 17 17 19 21 23 26 28 29 31 33 32 34 36 38 41 44 45 47 48 48 47 44 47 50
18 19 18 16 14 12 10 14 18 17 16 12 17 12 10 18 16 22 14 11 12 16 16 17 19 21 22 24 28 30 32 33 36 40 42 42 41 42 41 38 38 41 45 49
16 22 20 17 17 14 8 11 18 18 18 4 16 6 10 5 3 4 11 15 11 13 14 15 18 20 21 24 27 29 33 35 35 33 33 34 32 30 30 33 37 42 49 55
24 25 24 18 14 14 13 12 18 20 16 7 9 8 8 15 5 1 5 8 11 12 14 14 15 16 20 24 23 22 21 22 22 20 20 21 23 28 32 38 44 50 55 61
30 29 26 25 22 21 20 15 17 20 16 8 4 1 4 6 2 1 1 6 5 5 6 7 10 9 10 12 12 12 12 12 13 17 21 25 30 35 40 46 51 56 62 68
31 30 26 25 24 21 21 19 16 16 12 4 7 8 7 11 11 9 7 11 10 9 10 10 8 8 9 6 6 8 11 15 19 24 28 32 37 42 47 53 59 64 70 76
30 26 22 19 21 22 17 18 15 15 11 6 7 5 10 9 7 8 8 7 9 9 8 9 9 9 9 11 13 16 19 22 26 31 35 40 45 50 55 60 67 73 77 82

GFSCGP_250_spd_048.txt.gz
Wind_Speed
83 87 91 92 89 86 79 81 83 84 82 82 77 73 71 70 66 73 70 68 68 67 68 66 66 66 64 63 62 60 59 55 56 54 53 55 56 55 60 62 60 59 59 62
82 83 92 92 89 88 85 83 84 84 84 80 78 73 71 73 71 72 73 74 75 75 70 69 69 67 68 66 67 66 64 59 59 56 54 52 46 52 59 59 60 61 61 60
88 82 85 88 91 89 90 89 89 85 82 82 79 74 75 73 75 78 80 82 83 79 75 72 71 70 70 72 75 74 70 67 58 63 59 51 48 52 52 55 58 59 59 61
78 80 86 83 90 92 89 89 89 90 87 86 85 81 80 82 83 83 85 84 82 80 78 79 78 77 75 75 78 77 75 73 69 65 63 59 56 53 55 49 54 52 56 57
79 79 82 89 88 88 90 89 89 90 91 89 88 87 76 83 82 81 79 79 83 83 83 84 83 81 82 81 79 81 80 77 76 69 68 63 61 58 54 54 54 54 54 55
67 74 79 85 86 86 87 89 88 88 88 86 85 84 71 78 78 81 85 84 86 88 89 89 89 89 90 89 85 83 81 79 79 74 73 66 68 64 62 63 59 54 54 53
58 63 66 71 76 81 83 83 84 86 84 80 82 81 77 78 80 85 90 92 91 94 96 97 97 97 95 91 89 89 86 84 83 81 77 76 69 66 65 65 60 56 54 51
48 50 53 60 64 70 76 78 81 81 82 82 82 77 77 81 84 92 93 96 99 101 102 103 100 94 94 92 88 88 85 84 83 81 80 80 66 67 65 66 61 58 55 53
40 45 47 51 57 63 69 70 73 72 74 74 74 77 79 85 88 95 98 99 102 103 97 94 91 89 89 89 90 89 85 81 84 81 84 76 64 69 67 63 62 62 57 53
37 39 40 44 48 51 56 62 65 67 68 71 72 76 82 84 89 87 88 88 90 92 92 93 92 93 92 90 89 91 88 83 85 85 84 77 74 74 70 63 62 62 58 53
35 39 44 46 46 48 53 57 59 61 64 65 62 59 63 70 72 76 83 87 90 90 90 94 93 95 94 91 85 82 85 80 77 73 69 70 70 71 65 63 61 62 57 54
35 39 43 43 44 43 41 42 39 35 35 41 43 43 62 70 79 79 83 84 85 83 80 78 80 80 71 74 76 76 74 72 76 71 69 66 63 60 61 62 60 59 55 53
33 35 33 26 23 21 22 22 23 26 33 44 47 50 62 65 69 69 71 73 73 66 57 56 60 57 65 71 71 71 65 55 62 68 72 67 56 51 55 57 57 55 54 54
25 22 17 16 16 19 18 18 24 29 34 24 39 35 40 50 55 60 55 46 41 36 35 42 41 39 46 52 57 60 57 57 59 63 64 63 59 50 51 53 53 54 55 54
21 17 18 16 14 16 17 22 26 16 14 15 31 29 27 45 34 34 36 35 33 30 26 27 23 24 28 34 38 48 59 54 54 55 54 54 52 48 49 49 51 54 55 55
21 19 15 13 15 14 20 15 11 8 13 22 27 27 21 25 19 24 21 17 17 14 11 10 9 11 20 32 41 52 46 43 43 44 47 49 47 45 46 49 51 53 54 56
17 13 13 10 11 13 11 11 10 10 17 22 23 10 21 16 23 29 31 29 25 19 15 6 8 12 12 20 25 31 32 33 36 38 43 44 44 44 46 48 49 51 55 56
14 13 7 10 12 17 8 7 4 11 18 16 16 19 11 13 18 26 32 31 32 33 34 33 32 32 30 28 27 26 27 27 30 33 37 39 38 40 43 45 50 52 54 55
12 8 9 12 17 16 4 7 6 12 17 15 20 12 16 9 16 21 23 29 32 31 33 31 31 31 30 27 26 25 25 25 24 24 26 30 36 39 42 47 50 51 54 55
10 11 11 14 16 13 6 7 7 13 16 16 15 10 11 16 18 18 13 19 28 26 28 28 29 28 26 22 20 19 18 17 19 23 27 31 34 38 43 47 50 52 52 52
13 13 14 18 21 17 12 5 7 10 19 17 15 8 8 8 16 15 11 9 15 19 20 22 22 25 21 10 10 9 13 13 14 22 25 25 31 40 42 47 47 46 46 44
17 15 16 21 23 20 10 7 6 12 12 20 13 9 11 9 9 9 13 9 5 9 10 14 17 19 21 16 19 16 10 15 17 24 29 33 38 45 47 43 40 37 38 42
16 15 17 21 20 19 15 12 11 12 7 16 7 6 1 5 10 6 9 13 10 1 5 6 10 15 21 24 25 23 26 27 28 33 39 39 38 35 31 31 35 39 44 48
16 18 21 25 19 17 17 12 9 10 12 11 6 9 8 4 6 7 4 4 8 6 4 3 9 10 14 21 26 28 26 25 24 23 22 22 24 26 30 36 41 45 50 56
20 21 25 25 23 22 21 15 12 12 9 9 6 8 13 9 5 6 4 4 4 2 2 2 4 5 9 9 12 12 12 12 13 16 20 24 28 32 38 42 47 52 57 63
19 23 29 23 22 18 17 16 11 11 10 8 10 10 9 12 12 11 6 7 8 5 4 6 7 6 6 7 9 12 14 16 19 22 26 30 34 38 42 47 52 58 64 69

GFSCGP_250_spd_051.txt.gz
Wind_Speed
82 82 88 95 92 89 84 81 78 78 78 76 77 74 75 72 67 70 69 68 66 68 71 67 67 68 68 66 64 65 68 64 60 61 59 59 60 54 54 53 53 53 56 56
81 82 86 85 88 87 84 81 79 79 76 71 75 74 77 77 72 73 75 74 72 72 68 66 67 69 72 71 70 70 69 70 64 64 62 59 59 57 55 54 54 49 50 53
85 85 82 82 84 89 89 86 83 77 77 75 73 70 75 77 78 80 81 79 78 77 74 73 73 73 75 75 77 79 75 73 72 69 68 64 63 59 55 56 56 56 55 52
82 80 79 80 82 82 85 88 87 85 81 78 77 72 73 77 80 81 82 80 80 78 77 78 79 81 82 83 83 81 78 76 73 73 73 69 68 68 63 63 58 58 55 53
85 81 76 78 75 74 79 83 90 88 86 83 82 78 76 78 78 79 79 81 82 82 83 85 87 89 89 86 83 81 80 80 79 76 76 77 73 71 69 67 63 58 55 50
73 84 80 76 73 75 74 77 82 87 89 85 86 82 77 79 83 86 87 88 89 91 93 95 94 92 90 88 85 84 85 86 85 83 78 79 81 78 73 70 64 61 61 61
73 75 82 80 76 79 77 75 74 78 82 84 86 85 78 81 84 88 90 93 94 95 95 95 94 92 91 91 92 91 90 89 90 89 84 83 83 85 79 69 68 68 69 67
72 72 72 76 78 77 75 77 82 80 78 78 80 80 81 85 88 88 90 92 94 95 96 97 97 98 98 98 98 98 96 93 94 92 88 89 85 83 80 76 72 68 68 70
60 62 67 67 69 71 70 71 72 76 80 79 77 74 76 80 86 91 93 94 96 98 102 103 103 103 104 104 103 103 103 103 98 97 93 80 74 71 67 70 71 72 70 68
45 48 49 51 54 57 59 60 62 63 62 66 72 73 76 81 83 85 86 88 92 96 100 102 103 103 104 106 107 106 105 102 95 86 78 70 66 65 66 66 69 70 68 67
33 33 37 39 38 39 41 44 45 47 50 53 60 65 74 76 75 80 84 89 94 95 95 95 96 104 108 104 99 99 96 89 80 77 76 74 72 72 72 72 71 69 69 69
27 26 27 25 29 31 33 33 35 38 41 47 47 58 65 68 71 76 81 87 87 88 91 89 92 97 101 106 102 100 99 91 87 79 82 79 71 70 69 68 65 64 65 65
26 25 25 28 30 32 32 33 35 38 40 44 43 49 52 52 60 64 65 71 78 82 74 67 68 73 76 73 74 77 81 79 79 75 76 78 78 74 71 65 61 57 55 57
26 26 26 27 29 30 30 28 26 28 26 27 32 38 45 51 55 54 51 51 55 64 51 47 45 51 56 59 62 64 68 71 71 74 68 64 66 62 61 58 56 54 51 51
23 22 22 24 23 23 19 18 16 18 21 25 29 34 38 38 36 32 28 32 37 48 49 39 36 34 40 42 43 46 48 51 53 58 55 52 49 48 51 48 52 52 48 50
20 26 27 25 22 18 15 13 17 18 13 18 24 33 20 21 31 20 15 20 26 29 28 24 20 21 20 20 21 26 30 30 33 38 43 42 38 41 42 42 49 48 48 48
27 27 26 21 16 12 13 17 16 16 10 13 12 14 16 22 20 17 12 17 20 26 26 17 4 4 4 4 3 13 17 21 27 33 37 35 34 34 34 41 44 43 42 42
27 24 20 16 13 12 13 13 15 21 10 12 11 10 8 13 14 14 14 19 23 28 30 29 24 23 23 23 20 21 20 20 21 24 24 23 23 26 33 37 37 37 40 44
21 19 18 14 10 8 16 15 16 4 5 9 9 13 10 11 14 16 13 17 23 35 37 40 40 40 38 36 35 32 30 29 25 21 16 17 17 26 28 30 33 39 43 47
18 17 15 7 8 18 25 16 9 3 4 12 9 14 14 15 15 18 12 13 18 28 34 41 38 37 38 37 36 34 32 31 28 17 18 15 18 21 27 31 36 41 45 45
18 16 11 6 13 24 24 17 10 5 5 8 10 11 13 17 19 16 9 6 10 16 22 28 26 26 28 29 22 22 22 24 19 7 10 15 21 19 23 30 38 38 40 45
17 11 8 6 16 27 21 14 13 8 2 6 9 8 10 15 9 13 8 4 6 7 9 18 15 18 20 21 16 19 17 14 18 20 18 20 22 26 27 29 34 40 45 49
15 12 8 8 17 27 25 18 16 9 5 7 8 8 12 5 4 4 7 4 5 5 2 2 10 7 13 12 13 17 15 16 11 6 13 18 20 25 29 35 41 49 53 50
16 13 10 11 19 25 23 23 18 10 10 8 9 10 13 11 10 8 5 4 5 6 5 5 6 9 9 9 11 11 11 11 13 17 23 27 30 33 38 43 44 44 45 47
18 15 13 15 20 22 21 19 17 14 14 11 10 11 12 9 13 14 5 4 7 5 2 1 2 5 14 17 20 20 22 26 29 28 26 27 29 30 32 35 39 43 47 51
18 16 17 19 18 21 23 16 20 14 14 11 13 11 13 12 12 11 12 6 13 10 4 4 3 2 8 9 9 11 13 13 14 17 20 24 27 31 35 40 44 47 52 57

GFSCGP_250_spd_054.txt.gz
Wind_Speed
82 78 84 90 94 95 86 83 80 80 78 72 72 69 75 78 71 69 71 72 70 68 70 68 68 69 70 69 70 70 67 65 66 64 64 67 68 65 63 60 60 62 62 60
84 78 79 89 93 93 88 83 83 83 78 74 74 70 75 74 70 70 74 75 74 71 70 70 71 70 69 71 72 72 71 72 67 66 67 66 64 62 63 62 62 66 64 60
88 84 82 82 89 91 90 89 86 82 79 78 77 74 75 76 73 73 76 76 76 75 74 74 73 73 75 76 76 76 76 76 72 70 69 69 72 67 63 64 66 68 68 68
84 84 76 71 80 83 86 90 86 83 81 77 77 73 78 76 75 77 77 77 81 81 81 80 79 80 83 83 83 83 83 80 77 75 73 72 77 78 72 69 67 69 67 68
79 80 77 71 72 79 79 83 90 86 84 80 78 75 78 77 78 78 79 78 81 82 83 83 83 85 87 87 87 87 86 84 84 81 80 81 79 79 76 71 65 66 63 62
80 81 80 79 72 69 73 76 80 89 89 82 82 77 77 80 79 80 81 82 82 83 83 85 86 86 88 89 90 90 89 90 90 90 88 86 83 79 75 74 70 68 69 66
75 82 79 76 74 74 72 70 71 73 75 78 85 83 85 83 83 83 86 87 87 88 88 87 87 90 91 93 95 97 98 100 101 100 96 90 83 80 80 80 79 76 76 72
66 69 75 76 72 70 73 72 70 66 69 73 75 75 83 87 89 89 89 90 90 92 93 94 96 99 102 104 106 108 109 109 109 106 100 93 88 84 83 84 83 80 78 79
52 58 66 71 71 73 71 68 68 67 66 65 68 69 76 81 89 90 89 91 94 96 96 98 100 104 107 109 111 114 116 114 110 106 101 98 93 90 88 87 87 83 83 79
50 57 58 60 68 68 73 72 71 70 67 66 69 72 74 76 79 85 88 90 93 96 99 99 101 104 107 109 112 112 111 109 106 102 98 97 95 92 89 87 87 86 85 74
43 48 56 59 62 61 59 67 76 73 69 70 68 69 72 74 76 78 82 85 88 91 95 97 98 101 104 106 108 110 108 100 97 96 95 94 97 95 92 87 83 73 63 63
37 42 51 56 58 58 57 56 55 53 59 63 64 72 69 64 64 65 65 72 79 86 86 88 93 97 100 101 104 105 102 98 97 94 94 93 92 91 85 76 70 67 65 62
28 28 31 37 42 46 43 42 43 43 45 46 48 48 46 46 50 54 60 66 67 74 81 85 90 91 90 90 90 89 92 97 98 99 95 93 92 90 86 81 73 66 61 58
26 27 27 28 29 30 29 31 32 35 32 35 34 43 37 43 47 54 54 55 59 65 68 75 76 72 65 64 60 62 67 73 77 79 81 83 82 82 81 77 71 68 64 62
25 26 26 26 27 28 29 30 31 30 29 34 30 34 36 37 42 41 43 45 44 49 54 62 61 62 51 42 42 44 48 55 58 60 64 66 67 67 70 68 60 54 55 59
23 23 25 28 27 26 26 26 23 23 25 25 24 27 30 31 34 35 28 26 32 40 42 45 48 39 36 31 28 27 29 32 33 35 38 43 48 49 47 45 36 41 46 51
23 24 25 25 25 22 24 22 20 20 19 18 17 14 21 26 19 16 16 11 25 30 20 21 24 23 21 19 13 15 16 17 19 19 22 26 28 31 30 29 32 31 35 38
26 27 29 26 24 25 23 19 19 19 20 13 13 16 20 12 9 11 13 4 8 5 14 20 23 20 16 13 10 13 14 8 16 12 17 23 28 25 20 18 19 20 13 24
30 32 28 26 23 19 16 19 20 19 15 14 15 15 7 10 12 12 9 6 5 4 10 19 24 28 31 31 33 35 35 32 29 30 32 31 30 24 18 17 15 11 25 36
32 28 24 21 18 15 18 20 18 18 18 18 14 12 9 12 12 15 11 4 7 8 6 12 21 24 29 33 34 41 40 40 38 40 34 28 22 18 13 16 16 22 30 35
26 22 21 17 14 15 21 21 22 20 12 9 6 7 9 10 12 15 12 6 6 8 9 5 9 14 20 26 23 29 34 28 30 26 28 26 25 18 23 22 28 32 35 38
20 20 19 15 13 18 23 25 21 17 15 11 6 8 8 10 9 7 7 7 4 7 9 9 5 4 6 11 18 15 16 20 23 19 17 16 17 18 21 25 28 32 33 34
20 20 18 15 12 18 24 22 22 20 17 12 10 9 9 9 9 6 8 5 5 10 11 8 4 4 2 4 3 5 7 7 4 5 1 8 10 11 16 20 24 27 31 37
20 20 18 14 10 15 25 27 24 21 17 18 15 12 14 13 12 13 9 9 7 9 12 14 10 8 8 5 3 2 2 1 4 10 12 14 17 21 24 26 29 33 38 44
21 20 17 14 10 12 21 27 26 25 23 22 20 17 16 17 11 11 13 13 14 14 12 11 9 12 14 15 13 11 9 12 15 18 20 23 22 23 26 28 32 36 41 45
23 21 18 16 12 13 19 23 22 19 24 22 21 18 20 19 11 10 13 11 13 15 14 16 11 8 7 7 9 11 12 16 21 20 19 21 23 25 28 32 36 41 45 48

GFSCGP_250_spd_057.txt.gz
Wind_Speed
89 91 91 92 98 103 96 91 89 85 84 83 81 81 85 87 83 81 79 80 79 80 83 78 79 82 78 75 73 72 73 72 73 70 68 69 68 64 63 64 68 71 70 66
86 85 92 89 89 98 100 92 89 89 84 77 77 72 75 80 80 79 76 75 77 77 77 78 77 78 77 76 72 71 70 70 71 72 72 72 72 67 65 65 67 65 65 65
86 85 87 88 86 90 91 97 94 91 86 82 78 74 74 75 75 77 78 76 73 73 73 74 74 77 78 74 74 74 72 72 72 71 74 75 75 72 67 64 65 69 72 72
91 92 88 85 81 79 83 91 95 92 87 81 82 76 78 75 76 77 77 77 77 77 76 76 75 76 76 77 77 77 78 78 76 75 75 78 79 81 79 76 76 75 74 72
83 91 86 84 79 76 74 81 87 89 87 82 81 78 83 79 79 79 80 78 76 76 77 76 75 77 78 79 81 82 84 84 85 84 83 83 83 84 84 81 79 77 77 71
70 81 82 78 79 73 69 68 74 85 87 85 84 78 84 84 82 82 82 80 79 79 80 81 80 80 82 84 86 88 89 91 91 91 89 87 87 86 86 87 83 79 76 81
67 73 75 77 76 75 74 74 71 74 81 84 86 82 86 84 85 85 82 82 82 83 84 85 87 87 87 87 89 89 91 93 95 95 95 94 92 91 91 90 89 87 88 91
69 69 67 69 71 76 76 70 65 66 68 72 80 85 85 84 85 86 87 86 86 85 87 88 90 91 93 94 95 96 97 99 100 100 100 99 96 96 95 96 96 97 97 97
55 64 66 71 70 72 68 60 59 59 62 68 71 73 81 84 85 86 86 87 87 87 89 91 93 94 95 98 101 103 106 107 108 109 108 108 106 105 105 104 105 103 101 97
45 55 67 75 75 72 69 65 67 64 58 61 63 68 71 74 79 81 84 85 88 95 97 98 99 100 102 104 107 109 112 114 115 115 114 113 112 110 108 108 107 103 100 94
39 48 57 62 71 72 68 67 66 64 65 65 65 68 69 69 72 75 79 84 87 88 89 91 94 98 105 110 114 117 121 123 123 122 119 116 113 110 106 103 101 96 92 89
32 39 45 50 51 55 63 70 70 66 61 61 65 67 66 67 66 68 72 71 72 75 82 86 88 92 97 101 106 110 112 112 112 110 107 104 103 103 101 98 96 92 91 87
33 36 43 48 49 50 53 58 60 60 66 67 68 66 66 62 66 65 64 66 70 74 74 72 72 75 81 89 96 100 99 98 99 99 100 98 96 96 95 93 92 88 86 82
28 30 33 38 44 48 49 49 52 58 57 56 57 56 51 55 54 52 51 51 52 52 54 60 66 72 79 84 89 87 77 78 80 83 83 80 80 79 82 83 85 84 82 79
24 25 27 30 34 37 40 42 45 47 48 48 43 39 35 36 37 38 39 40 43 44 49 53 59 63 66 68 59 53 54 56 58 62 66 71 71 69 68 69 70 71 70 69
27 26 25 26 26 26 27 28 31 32 33 28 30 28 29 30 32 33 34 34 37 37 35 37 47 53 56 57 59 51 36 35 40 44 49 53 54 55 56 56 56 57 58 59
27 27 27 26 26 26 28 28 27 27 30 28 25 24 26 26 23 23 26 29 24 24 26 30 39 40 49 49 45 39 32 29 28 29 31 35 37 37 37 36 35 35 38 41
24 25 24 24 25 26 26 25 25 25 24 23 23 22 19 18 18 21 20 20 19 20 19 26 22 25 32 33 29 27 19 13 12 11 16 16 18 19 20 18 18 20 19 15
23 23 23 24 25 25 25 25 24 24 23 22 17 16 14 14 17 17 19 15 17 14 14 23 24 15 18 20 15 17 16 17 16 14 7 13 22 25 29 30 28 20 15 13
23 24 24 23 26 27 26 24 22 21 22 21 17 14 16 20 19 16 14 15 17 17 16 19 21 24 23 19 17 15 16 18 26 31 34 37 35 33 27 29 32 21 12 21
24 24 25 28 29 26 22 22 23 23 20 16 17 17 16 15 14 11 4 8 13 17 18 18 20 20 18 17 18 17 18 15 19 22 23 27 24 21 18 15 12 13 19 23
26 27 27 26 22 20 19 22 25 22 18 19 18 15 13 13 13 9 5 5 9 14 16 16 20 21 13 15 18 13 16 21 21 19 19 16 13 10 7 4 8 14 18 21
27 25 24 22 17 16 17 25 26 24 23 22 18 15 12 13 15 13 10 9 9 13 18 18 15 18 12 12 13 12 12 10 12 18 15 12 8 5 5 9 14 19 24 28
24 23 22 19 15 11 14 21 21 24 25 25 23 19 17 18 16 19 17 15 14 12 12 17 19 19 17 15 13 13 11 11 7 12 14 11 13 13 16 18 20 22 24 28
23 22 21 19 14 11 13 19 24 26 25 25 23 23 21 21 21 20 20 16 18 16 12 13 13 16 17 18 15 15 15 17 16 17 18 19 21 20 20 22 25 28 31 34
25 23 21 20 19 16 17 21 26 30 31 29 27 27 22 22 21 22 18 16 15 13 15 14 14 12 13 13 11 10 12 13 14 15 17 18 19 21 23 26 29 32 35 38

GFSCGP_250_spd_060.txt.gz
Wind_Speed
91 98 104 103 101 102 102 99 91 94 96 93 92 89 92 92 87 88 86 85 83 85 86 86 84 81 80 81 81 80 81 82 82 78 80 79 76 75 72 69 66 65 67 68
88 91 96 101 102 99 98 97 96 92 91 89 89 87 86 89 88 86 86 86 85 84 86 88 85 82 80 81 81 79 78 79 80 79 80 77 77 72 70 69 66 65 65 65
84 89 90 93 98 99 97 95 96 96 92 85 81 83 87 87 86 86 87 86 83 82 83 84 83 80 79 81 81 79 78 78 80 80 79 77 76 74 73 73 74 75 70 69
82 88 91 93 96 103 101 96 96 96 94 88 82 74 79 81 84 83 82 81 82 82 82 81 80 81 81 80 79 78 78 77 77 78 79 78 77 77 78 78 78 77 76 77
78 85 89 86 86 93 100 94 94 95 93 90 87 79 81 78 80 78 75 75 77 77 77 78 79 79 77 77 77 78 78 77 77 78 78 78 77 79 82 83 83 82 82 82
76 77 88 84 81 82 85 86 89 90 91 92 89 84 85 82 78 76 77 77 75 74 76 76 77 78 79 79 80 80 81 81 81 81 81 81 83 84 85 87 89 90 89 88
64 66 80 85 82 76 71 76 77 77 79 83 91 93 88 87 84 81 78 78 77 78 78 77 77 78 79 81 82 83 83 85 86 87 88 88 89 89 90 92 93 94 96 93
57 61 74 82 79 73 69 67 68 69 68 71 79 83 94 92 88 86 83 83 81 81 82 82 82 82 84 85 87 88 90 92 93 94 96 97 98 98 97 97 97 97 97 98
49 57 64 75 78 74 67 65 65 66 67 64 61 67 78 86 92 91 87 84 83 83 82 83 84 85 86 87 90 92 94 96 99 101 102 103 105 106 106 106 104 103 102 100
40 47 52 56 69 73 71 70 65 66 65 63 65 66 68 72 79 84 90 89 88 87 85 85 86 89 91 93 95 97 99 101 104 107 108 109 111 112 113 113 111 109 107 106
36 45 53 53 54 57 62 68 68 63 64 69 68 65 63 63 64 69 77 83 87 90 91 91 92 93 94 95 98 102 104 108 111 115 118 121 123 123 123 122 120 117 116 115
33 38 48 54 54 55 55 56 61 63 67 69 68 67 63 58 59 60 65 71 74 78 82 83 86 89 92 95 99 102 106 109 112 114 115 115 114 112 111 111 111 110 109 108
28 33 40 49 57 58 56 56 59 60 61 63 61 61 60 58 57 57 60 62 65 67 70 73 75 76 79 84 87 91 96 98 100 101 102 104 104 105 106 104 100 97 96 95
24 30 37 45 50 55 58 62 63 65 63 60 60 62 58 54 56 55 55 58 61 63 64 66 66 66 67 69 76 79 79 83 87 89 85 84 88 91 92 93 93 95 91 89
23 26 31 37 42 46 50 56 62 60 56 59 62 59 56 57 55 52 54 55 53 51 48 48 50 54 54 63 65 60 57 58 57 54 55 61 69 71 73 75 75 75 74 73
24 25 26 29 35 40 42 42 42 43 46 44 47 46 49 47 45 45 42 36 36 38 39 39 47 45 47 45 46 49 47 47 47 36 34 39 41 44 47 48 52 57 60 66
21 22 24 26 28 31 34 36 36 38 38 37 33 32 37 33 32 32 31 29 31 33 34 38 34 31 30 40 45 48 51 48 47 34 29 27 30 30 30 29 30 36 44 52
21 21 20 21 22 23 24 25 25 23 21 21 22 22 25 26 26 23 24 27 29 28 28 28 26 23 26 35 40 43 47 50 46 35 26 20 16 13 12 12 13 18 24 29
18 17 18 18 19 20 20 19 17 18 21 22 22 21 20 20 20 18 19 22 26 24 24 25 25 23 20 29 29 37 38 37 38 33 29 18 9 9 11 18 21 20 19 19
17 16 17 18 19 20 20 19 19 19 19 17 17 19 21 19 16 17 19 23 26 26 28 26 25 24 20 24 25 28 27 29 29 33 35 26 22 25 25 26 25 26 17 14
15 17 18 20 19 20 19 19 19 19 20 20 21 20 18 14 16 19 20 20 23 23 25 26 25 26 25 24 21 18 20 18 22 24 25 27 29 28 20 16 12 7 8 4
20 20 19 19 22 22 20 18 20 21 23 20 19 18 15 12 15 17 16 14 15 18 23 25 23 23 19 20 22 19 16 18 21 20 20 23 22 23 21 19 16 13 11 13
21 20 23 25 23 20 19 20 20 23 22 20 18 19 19 17 15 16 15 15 14 16 16 19 18 19 20 20 20 20 18 16 18 20 22 21 20 22 22 21 21 21 20 20
23 26 25 24 21 18 18 17 21 22 24 22 20 22 21 17 17 17 18 16 17 21 19 15 15 13 12 13 15 16 19 16 14 16 17 19 19 19 19 19 19 21 24 27
27 25 24 22 20 18 16 16 20 23 24 22 23 25 28 27 24 20 21 22 20 20 20 13 12 13 13 14 14 12 12 14 15 15 15 16 17 19 19 21 22 24 26 29
26 24 23 23 22 19 17 15 13 19 24 25 27 26 26 26 27 22 24 21 20 19 19 16 14 14 14 15 14 14 14 15 16 17 17 19 20 19 18 20 24 27 31 35

GFSCGP_250_spd_063.txt.gz
Wind_Speed
88 91 93 96 101 106 116 112 104 112 110 107 102 100 98 95 95 95 96 93 91 90 91 85 82 82 80 80 80 81 79 79 79 78 78 79 77 78 78 79 77 76 77 78
85 87 88 91 96 99 105 117 101 95 99 98 99 96 98 99 98 96 93 94 93 89 87 86 83 81 82 81 79 78 79 79 80 79 79 79 78 76 78 79 79 79 79 78
79 80 81 84 88 95 102 108 109 96 86 90 90 94 97 97 95 93 89 87 85 85 87 85 82 80 78 79 78 80 82 82 82 81 81 79 79 78 79 81 81 81 79 76
75 74 78 81 87 90 95 100 114 103 91 79 80 82 90 90 89 89 86 85 84 82 83 83 83 81 81 81 81 81 84 84 82 80 79 79 79 80 80 80 81 80 78 78
70 71 74 83 85 90 89 96 102 114 102 89 77 77 84 83 84 84 84 83 81 79 79 81 81 82 82 81 81 81 82 80 80 79 78 80 78 80 82 81 81 81 81 81
65 67 69 75 78 84 89 93 97 99 105 96 88 81 78 76 78 81 81 81 81 79 79 81 83 82 82 81 81 82 84 85 85 83 80 78 77 79 80 82 84 85 84 84
62 64 68 75 77 76 79 85 85 88 90 94 95 90 88 83 79 72 73 75 77 79 80 79 78 80 78 78 78 80 82 82 83 84 83 84 84 85 85 87 89 89 89 90
59 59 63 70 74 69 74 76 76 79 82 84 88 90 93 96 92 84 76 72 73 74 76 77 78 78 77 77 77 78 79 81 84 87 88 89 90 91 92 94 94 95 95 96
49 52 56 62 64 61 61 68 70 73 75 78 83 88 92 95 95 93 90 85 81 78 76 75 76 77 78 78 80 82 84 86 87 89 90 92 94 96 97 99 100 102 102 103
46 48 52 58 61 60 57 56 62 64 66 71 77 84 85 84 84 89 94 92 89 86 84 81 79 79 80 81 83 85 87 88 90 92 95 98 100 102 104 106 108 109 110 111
36 43 45 52 56 58 60 59 62 60 61 62 66 70 70 67 68 71 74 81 90 94 92 89 88 86 88 89 89 89 91 93 97 100 102 105 108 110 113 115 117 118 118 117
33 35 40 44 49 45 47 51 61 61 61 59 59 62 63 65 66 65 64 65 66 71 76 83 90 93 90 90 94 96 99 102 104 107 109 112 117 121 121 118 116 114 114 115
32 35 39 43 45 49 50 54 60 60 64 62 63 62 59 60 60 60 62 61 59 58 59 61 65 70 74 78 82 89 92 95 99 102 101 102 106 107 106 105 102 103 103 102
27 31 35 41 44 44 42 40 43 50 60 64 62 59 58 53 60 61 59 59 61 60 55 54 56 61 66 68 72 76 78 83 80 73 76 82 94 97 98 98 97 98 95 92
22 26 30 35 40 43 43 43 45 47 47 48 49 55 58 60 58 56 54 56 53 53 54 54 55 56 59 62 59 58 60 59 58 60 67 81 89 86 89 87 87 86 86 84
20 21 27 32 37 44 49 51 50 48 46 44 47 46 52 51 51 50 51 48 48 49 49 49 50 50 49 45 45 49 45 43 43 44 48 48 50 52 49 49 53 52 51 51
20 20 23 28 34 39 44 48 49 50 48 47 45 44 47 50 45 44 44 43 40 42 41 40 40 43 40 37 36 33 32 32 38 40 40 32 26 21 23 26 29 31 34 34
18 20 23 25 28 33 35 36 39 40 39 36 36 35 35 34 34 34 32 33 32 32 32 33 36 35 32 28 26 26 27 27 33 35 38 45 41 28 16 14 14 10 9 6
16 17 18 20 22 26 29 31 33 32 30 29 29 29 28 27 26 25 25 24 24 25 28 28 31 30 27 24 25 25 27 21 26 30 29 34 36 39 32 26 21 12 14 12
13 13 14 15 16 18 19 20 20 21 22 22 21 21 22 20 19 20 19 19 21 24 26 31 31 29 25 26 25 26 24 18 17 25 26 26 29 32 30 31 30 29 25 20
11 12 13 14 15 16 17 18 19 19 18 17 19 19 19 19 18 17 18 19 21 23 26 28 26 26 24 26 25 25 20 19 19 19 22 21 21 23 23 23 23 22 23 23
12 12 13 14 14 16 18 18 18 18 19 19 19 18 18 18 17 15 15 15 18 18 19 19 22 23 22 23 26 28 27 23 21 21 19 18 17 17 16 17 19 20 22 21
16 17 18 17 18 19 20 20 19 20 20 19 17 17 17 17 15 13 15 13 14 14 16 16 17 17 19 20 21 18 20 22 22 20 18 17 18 18 21 23 22 22 23 23
19 20 19 22 23 23 23 21 19 18 18 19 20 21 20 18 16 16 15 15 16 17 17 17 18 17 16 15 14 13 13 12 11 9 11 13 14 16 18 20 20 18 20 22
19 20 23 27 28 25 22 19 17 18 19 19 21 22 21 20 21 20 22 23 23 22 21 20 19 18 16 16 15 14 14 13 13 14 16 16 18 20 21 21 20 20 20 25
23 24 27 28 29 25 21 17 17 16 19 20 20 25 22 21 22 26 26 27 27 24 20 22 21 19 18 17 18 19 17 17 18 19 20 22 23 23 23 24 24 25 26 30

GFSCGP_250_spd_066.txt.gz
Wind_Speed
84 89 91 94 97 106 108 118 124 123 126 124 120 116 114 110 107 105 103 98 95 92 90 88 88 87 87 87 86 86 84 86 84 82 81 80 80 80 80 81 80 82 81 81
83 85 89 90 93 98 103 111 122 128 125 124 122 118 115 112 111 109 105 102 98 94 92 89 87 87 87 85 85 85 85 86 85 83 83 82 81 79 79 79 81 81 83 82
79 83 87 86 87 93 99 106 114 123 126 121 120 121 118 115 111 110 108 105 103 100 97 94 91 88 86 86 86 85 85 86 88 85 84 78 77 76 78 80 83 82 83 82
77 79 82 79 80 86 93 99 108 116 123 123 119 118 118 116 113 110 106 104 103 101 99 96 94 91 89 87 85 84 82 83 85 83 79 78 79 78 82 83 85 85 83 83
72 76 74 75 76 82 89 93 102 109 115 121 118 115 113 115 112 110 106 105 103 97 96 96 92 88 87 87 85 84 83 83 83 82 81 82 82 83 82 85 87 86 84 84
69 68 73 75 75 76 83 87 94 104 107 113 113 110 107 108 109 107 105 101 102 100 95 95 95 94 91 88 85 83 82 83 83 83 84 85 85 86 86 88 87 88 88 88
67 67 70 68 70 74 79 82 87 95 100 106 110 104 95 97 96 100 100 99 99 96 94 95 91 90 87 84 83 83 85 85 84 84 86 87 88 88 89 90 90 90 89 90
58 62 61 64 68 70 72 75 78 83 89 96 104 105 90 82 85 85 86 85 85 84 81 80 80 80 80 81 81 82 81 81 83 84 84 87 87 87 87 89 90 91 93 95
56 55 59 59 60 62 64 66 71 74 82 86 94 96 97 86 73 73 77 76 75 73 74 75 76 79 80 81 81 82 82 82 83 85 86 86 88 88 90 92 94 96 97 99
47 50 49 49 51 52 52 56 62 66 71 77 82 90 90 95 89 80 75 73 73 74 74 74 75 75 76 77 78 79 80 83 84 85 87 89 92 93 95 96 99 101 103 105
38 40 42 44 46 46 45 48 53 58 65 68 72 76 85 89 94 90 87 85 82 83 83 81 82 81 79 79 79 80 82 82 83 86 88 91 94 97 99 103 106 110 112 113
34 35 38 40 40 38 39 41 46 51 55 60 65 68 74 82 87 89 90 91 90 91 92 94 94 92 94 98 98 96 95 94 94 96 97 101 104 107 111 116 119 122 124 124
29 31 35 36 37 37 38 42 43 46 51 53 59 64 64 65 67 74 82 82 81 81 82 83 83 82 82 80 81 86 91 95 98 98 99 99 99 101 103 105 108 108 106 104
27 30 32 37 38 36 38 39 41 42 48 52 54 58 58 58 61 63 63 62 63 67 69 69 67 66 65 66 65 67 70 71 72 77 77 79 81 84 87 97 96 94 92 92
26 28 30 33 37 36 37 40 40 42 43 41 51 55 58 57 56 55 56 58 60 60 61 61 61 62 62 65 65 65 64 65 66 65 63 63 68 68 76 86 82 80 79 81
23 25 29 31 34 38 40 41 40 39 37 37 41 50 58 58 59 59 57 56 57 58 59 59 60 58 59 59 58 57 57 54 51 51 51 50 51 52 54 50 45 45 41 46
23 24 26 29 31 37 38 39 38 36 33 34 33 37 44 50 55 54 56 55 56 56 55 54 53 52 52 51 49 45 43 46 42 42 39 38 38 43 39 30 29 28 26 27
19 20 21 27 29 33 38 40 40 39 40 37 34 35 37 39 40 43 46 49 51 50 49 47 43 43 43 42 39 40 40 40 34 33 32 31 30 30 26 29 28 30 31 26
19 21 20 20 25 29 32 37 40 40 40 40 40 39 40 41 42 44 44 45 41 37 36 36 35 35 36 36 35 34 33 31 29 29 28 29 31 28 23 20 23 23 23 25
13 16 18 20 21 23 27 30 31 31 33 34 33 33 32 33 33 33 32 31 28 28 28 28 31 33 34 35 33 30 30 30 26 27 27 27 29 28 21 20 20 21 24 25
14 15 15 16 19 22 24 26 27 27 30 28 29 30 29 29 27 25 25 25 24 24 24 29 31 32 31 30 29 28 28 27 28 29 30 29 27 25 21 21 20 20 20 20
17 14 13 14 16 18 20 22 24 25 24 25 25 24 25 24 24 23 22 21 21 24 26 23 23 22 21 19 22 24 25 28 30 34 33 32 30 24 21 19 19 21 21 21
17 17 17 17 18 19 20 22 23 24 25 25 25 24 24 22 20 19 17 18 19 19 18 20 18 17 19 19 20 22 24 24 26 29 30 29 25 23 22 23 23 23 21 21
17 17 18 19 20 22 23 24 25 25 25 23 24 21 21 20 22 21 19 17 17 17 17 17 17 18 20 22 22 22 21 22 23 19 20 21 23 23 24 25 24 24 25 27
21 20 20 22 24 26 26 27 27 27 24 23 21 21 23 22 24 23 22 20 20 21 23 21 21 21 22 22 22 22 22 23 22 22 23 23 24 25 26 26 26 26 29 31
27 23 23 23 28 28 29 30 28 24 20 18 18 21 22 23 24 25 25 24 26 28 27 27 27 25 24 23 23 25 25 25 26 27 27 26 26 27 27 28 28 30 32 34

GFSCGP_250_spd_069.txt.gz
Wind_Speed
89 89 83 88 94 101 103 111 125 133 129 128 126 123 118 114 111 108 105 102 97 94 96 94 91 87 85 83 83 84 83 83 84 82 82 83 84 82 82 82 83 83 83 83
89 80 84 88 91 95 99 103 113 128 130 129 129 126 122 117 114 111 109 105 99 95 92 92 91 89 87 86 85 84 84 84 84 82 83 83 83 84 84 84 86 86 86 87
84 82 84 86 90 91 95 98 105 113 127 131 128 127 123 120 115 112 110 109 103 99 96 93 91 90 88 87 86 85 85 85 87 86 85 85 84 85 86 86 87 87 87 86
82 80 80 83 88 88 90 95 100 106 116 126 128 128 127 124 118 115 112 108 105 101 98 96 95 93 92 91 90 89 89 88 88 89 89 90 91 90 92 93 91 90 91 89
74 73 76 83 83 84 84 89 91 99 111 116 125 128 126 124 122 117 113 110 107 103 101 99 98 98 96 94 94 94 94 95 95 95 95 96 97 97 98 98 98 100 95 93
67 69 74 78 78 78 78 82 87 93 101 111 117 127 126 126 122 119 117 114 111 107 105 103 101 100 99 98 98 98 98 97 97 97 97 97 99 98 98 98 97 98 100 99
61 66 72 72 72 73 74 78 83 88 95 101 106 118 123 122 123 121 118 117 113 111 110 107 106 105 102 101 101 100 97 97 96 96 98 99 99 99 97 95 96 96 95 94
62 64 68 65 66 68 71 73 78 81 84 91 99 108 116 115 116 117 118 118 117 116 113 110 108 105 105 103 103 104 104 102 99 96 96 99 97 94 94 95 94 93 94 94
60 62 62 61 63 65 66 68 70 74 79 82 91 96 107 112 114 109 110 114 114 113 113 113 112 109 108 105 105 103 102 102 103 103 100 99 100 98 91 93 93 96 95 96
50 53 55 56 56 57 59 60 63 67 72 75 81 88 96 103 109 108 103 98 100 105 109 112 111 108 107 108 105 104 99 96 96 97 92 90 90 89 90 91 93 95 96 98
41 43 44 43 45 46 48 49 54 58 61 66 74 80 85 95 100 101 100 97 94 89 84 89 96 100 95 92 92 92 88 84 84 83 82 84 85 86 87 91 93 95 98 103
31 32 34 34 37 38 40 41 43 48 53 57 63 70 75 83 90 94 92 89 85 78 73 72 74 76 79 81 82 85 80 81 82 81 83 87 88 91 98 103 108 113 117 122
26 27 29 30 31 32 34 37 39 42 46 53 58 61 65 72 79 87 91 89 78 69 68 68 72 75 77 80 79 80 80 83 85 88 92 97 103 101 98 93 93 96 101 104
23 26 27 28 30 30 32 35 37 39 43 46 51 57 61 65 70 75 80 87 88 86 81 79 81 82 81 82 85 86 89 93 96 92 89 87 84 82 80 81 84 86 88 92
24 26 28 28 28 31 31 33 35 39 42 45 47 50 55 61 65 66 68 69 78 82 82 83 83 85 86 89 92 92 88 82 79 77 74 74 75 74 74 73 70 71 74 79
23 24 25 27 30 32 33 34 33 33 36 40 42 46 51 58 60 61 63 65 66 68 72 75 76 77 77 77 74 71 71 71 70 71 68 67 65 63 60 59 59 57 54 54
23 26 27 28 30 31 34 34 34 34 34 34 38 42 52 53 56 62 65 64 62 61 63 64 63 61 64 66 66 64 64 62 62 60 58 57 54 52 53 49 47 46 46 40
19 22 23 25 28 31 32 34 34 35 36 36 36 40 45 50 55 57 59 60 60 58 59 59 60 64 64 62 60 58 56 55 53 51 49 48 45 46 47 42 40 38 36 30
17 21 23 23 25 27 30 32 35 37 36 33 33 34 35 37 42 52 58 58 60 61 61 62 60 60 57 54 56 52 48 44 43 43 43 40 40 40 40 38 39 36 34 34
20 21 21 21 21 27 27 29 31 32 33 36 37 36 34 31 30 34 38 43 43 44 46 47 47 46 48 46 41 39 40 39 38 40 39 38 38 38 37 39 40 36 34 35
18 21 22 23 21 22 26 28 31 35 40 40 40 41 41 39 39 39 39 41 43 44 43 42 40 38 35 34 36 37 38 39 39 37 36 35 36 37 38 38 37 36 35 35
16 16 17 21 22 24 25 27 29 32 35 35 36 38 38 36 35 34 33 33 33 32 30 29 29 30 32 32 33 33 34 32 32 32 33 35 36 38 35 34 32 33 35 36
20 19 16 16 19 20 24 25 26 28 29 30 30 30 31 30 29 26 25 25 25 26 26 25 27 30 28 25 24 25 25 26 28 31 33 35 35 35 31 28 30 34 36 36
20 19 20 21 20 20 19 21 24 25 25 25 25 25 25 25 26 26 26 26 25 23 23 24 24 24 24 23 23 25 26 28 29 31 32 31 30 29 28 30 33 34 36 36
25 24 23 21 22 22 23 23 24 25 26 26 27 28 28 28 28 27 27 24 22 24 25 27 28 26 25 25 25 26 28 29 31 31 31 30 30 30 30 32 34 36 36 37
31 27 26 25 25 24 26 27 28 29 29 30 30 30 29 28 28 26 28 27 28 27 27 28 29 31 30 28 28 29 29 29 30 31 31 32 32 32 33 35 36 37 36 36

GFSCGP_250_spd_072.txt.gz
Wind_Speed
86 86 81 81 88 91 95 101 106 112 123 124 128 130 128 122 116 113 111 108 107 102 100 99 97 94 91 89 89 86 83 81 82 81 80 82 79 79 80 80 80 80 81 83
86 82 81 84 83 88 90 97 100 105 116 123 130 129 130 125 118 115 114 110 106 103 99 96 94 93 93 91 89 86 84 82 83 81 81 84 83 81 78 78 82 83 83 86
79 80 84 82 82 85 87 88 93 101 108 114 124 130 129 126 123 118 114 112 106 103 100 96 94 93 91 89 89 87 86 86 86 86 82 79 79 80 79 81 84 86 87 89
78 83 83 81 81 81 84 85 87 94 100 107 121 128 129 128 126 123 117 113 112 105 102 97 96 94 93 91 88 87 86 84 84 83 82 79 82 85 87 88 91 92 93 96
75 79 82 78 77 77 81 82 83 90 93 105 115 122 126 127 126 125 120 115 109 108 105 102 100 97 95 93 91 90 88 87 87 86 87 89 89 89 93 93 96 97 100 100
63 72 73 72 76 77 79 81 81 84 86 97 104 112 123 125 125 125 122 118 114 108 106 105 103 101 99 98 96 95 94 93 92 92 92 92 96 96 95 97 101 104 106 109
65 67 69 71 72 73 75 76 79 79 79 87 95 102 107 124 123 123 121 121 117 112 108 106 105 103 102 100 98 98 97 96 96 97 98 97 99 101 102 103 106 109 108 110
56 59 63 65 65 68 68 69 69 71 72 81 87 90 97 112 122 124 121 119 118 116 114 111 107 103 102 101 100 100 99 98 98 99 101 102 104 105 106 107 107 106 109 110
47 54 58 62 63 61 59 59 63 63 69 74 80 82 89 96 113 122 120 119 117 115 114 113 111 109 105 103 101 100 101 101 100 100 103 104 106 106 107 107 107 111 110 109
46 52 54 51 51 50 54 56 57 59 62 67 72 77 80 89 98 110 121 122 119 119 117 115 114 112 110 108 107 106 106 105 105 104 105 106 107 108 109 111 111 108 106 97
41 43 45 43 44 48 51 51 51 52 55 61 67 68 73 81 92 98 104 111 117 121 120 118 117 115 114 112 111 111 109 110 111 110 112 112 109 110 108 107 104 96 94 92
27 29 33 36 40 41 43 44 45 45 48 53 58 62 68 74 81 88 94 99 104 109 112 115 116 116 114 113 113 114 115 113 112 112 111 109 106 105 99 91 91 91 92 94
18 20 22 26 27 31 34 35 36 38 42 47 52 57 60 65 71 78 84 90 95 98 102 104 104 104 103 103 102 104 103 100 97 98 102 96 89 83 89 87 89 93 94 102
15 17 19 23 25 25 28 30 32 35 38 41 45 51 54 59 65 70 77 83 90 92 93 95 96 96 93 91 88 84 82 87 86 87 85 82 85 86 88 89 92 98 103 93
17 19 21 23 24 26 28 30 32 34 35 36 41 45 49 53 59 64 69 76 81 83 83 78 79 79 78 73 74 76 76 79 80 81 82 83 84 86 92 100 99 87 81 80
20 22 24 26 28 29 29 31 32 32 34 38 38 40 44 49 54 59 63 67 71 77 83 83 80 73 73 69 72 76 77 76 78 83 85 89 93 97 91 83 77 72 70 67
20 22 24 26 27 29 31 33 34 36 37 38 41 43 45 48 50 52 56 60 63 67 74 79 82 82 85 83 82 82 83 83 83 86 88 86 79 75 71 68 64 63 62 59
19 22 24 25 26 29 31 33 34 36 37 40 39 44 47 48 50 51 53 56 58 63 66 66 67 69 71 75 81 83 84 83 80 75 72 69 69 66 62 58 57 56 55 51
15 18 22 24 26 27 29 32 36 37 38 38 39 41 45 46 47 51 53 55 54 56 60 63 63 64 62 63 65 65 63 62 64 67 67 65 61 55 52 51 51 51 51 48
16 17 19 22 24 26 26 29 31 34 35 38 40 42 43 45 47 49 52 51 52 56 58 61 64 63 62 60 58 59 61 63 68 64 60 52 49 49 49 49 49 49 48 46
20 21 21 21 22 22 23 27 29 31 36 36 36 38 38 40 41 43 45 47 49 55 55 53 55 58 58 60 61 64 61 55 52 48 46 46 46 47 47 46 45 45 45 45
18 19 22 24 23 23 21 24 27 29 32 33 34 36 37 37 37 36 35 35 37 40 46 52 56 58 55 52 49 47 43 41 43 44 44 44 43 42 41 42 42 43 40 38
16 17 19 22 26 24 24 23 25 27 29 32 35 37 37 38 39 39 37 36 38 40 41 42 43 43 42 39 35 34 36 36 35 35 35 35 36 37 39 40 39 37 33 34
19 19 19 19 19 22 25 26 27 29 30 31 33 35 35 37 38 38 37 35 34 35 34 33 31 29 30 31 32 32 31 31 31 32 33 33 35 36 36 35 34 34 35 37
25 22 21 20 19 18 20 23 25 28 29 30 31 32 32 32 31 31 30 29 28 26 26 25 26 27 28 29 28 29 30 30 30 31 32 32 34 33 34 34 35 37 38 40
30 28 26 23 22 20 21 19 19 21 23 26 28 29 29 28 27 26 26 25 25 25 25 26 27 29 29 30 32 33 34 34 33 32 31 32 32 33 34 35 35 35 37 39

GFSCGP_250_spd_075.txt.gz
Wind_Speed
76 78 74 73 84 87 90 96 104 113 113 115 116 121 123 122 118 114 110 109 107 103 102 100 99 96 92 89 88 88 86 86 84 82 81 81 81 80 79 80 80 82 83 82
75 75 76 80 83 85 88 91 96 105 112 113 120 119 122 124 121 117 115 113 111 108 103 100 97 95 94 94 92 91 89 87 86 86 85 83 83 81 80 79 80 81 79 76
74 75 80 78 79 82 84 88 93 99 106 111 117 118 117 120 122 121 119 116 113 109 105 102 98 95 94 95 95 93 91 89 88 86 85 83 82 79 78 79 78 77 78 78
75 75 76 75 75 78 82 87 90 93 99 105 115 116 117 117 120 121 120 118 114 112 108 104 101 97 96 97 96 93 92 90 88 85 81 80 80 80 81 80 79 79 83 84
74 73 73 73 74 75 78 80 82 86 92 99 102 109 114 118 118 120 123 122 118 113 110 107 105 102 100 98 97 96 96 95 93 90 89 85 82 82 83 83 87 88 87 88
67 71 71 71 74 74 76 76 78 82 85 86 93 102 112 116 113 118 122 125 121 116 115 113 109 105 103 101 98 97 96 96 96 94 91 89 87 86 88 89 88 93 95 96
59 64 65 68 70 73 72 72 72 73 71 76 85 95 101 108 113 114 120 121 124 120 116 116 113 110 106 103 101 99 97 94 94 93 93 91 91 92 92 93 94 95 100 103
60 61 63 67 66 67 68 68 64 64 68 74 79 83 91 101 104 107 112 116 121 121 118 115 114 113 110 107 103 101 99 98 97 96 95 95 96 97 97 96 98 99 101 102
45 50 56 59 62 64 64 61 61 61 64 66 70 76 82 90 93 96 104 110 115 118 120 117 113 112 112 111 109 106 104 103 100 100 99 98 99 99 99 100 100 101 101 103
39 41 43 48 54 58 58 58 55 56 56 60 63 67 74 80 86 90 97 101 109 113 116 117 116 114 113 112 110 108 108 107 105 103 102 100 101 101 101 103 103 105 104 107
31 38 42 48 52 51 52 51 50 53 51 55 57 63 67 74 78 83 89 95 101 107 113 115 115 115 114 112 110 108 108 107 104 104 105 104 104 105 105 105 106 108 111 113
21 29 35 39 40 41 42 42 44 45 47 49 51 56 61 65 73 77 82 84 92 100 103 109 114 115 114 113 111 108 107 106 105 105 106 107 106 107 108 109 112 113 113 112
10 14 22 28 34 35 34 35 37 38 39 40 43 49 54 61 65 70 73 78 81 88 94 98 103 109 113 114 113 110 109 107 106 108 108 108 109 109 109 110 111 107 104 101
12 12 14 17 22 25 28 28 30 32 33 35 37 42 48 53 58 62 67 71 74 80 85 88 91 95 101 106 109 108 108 108 110 111 112 109 105 100 99 96 96 93 91 88
15 17 18 20 22 23 26 28 29 31 30 32 37 40 43 48 53 57 62 67 70 74 78 82 84 86 87 88 90 92 92 93 91 92 93 89 89 87 86 89 88 83 86 88
17 19 20 22 26 27 27 28 30 31 33 35 37 39 42 46 51 55 58 63 66 69 72 77 79 80 80 82 82 83 82 76 78 78 71 76 78 78 81 79 81 84 87 89
16 18 20 23 25 29 31 31 31 32 33 33 34 37 39 44 49 52 55 59 62 65 67 71 76 78 76 76 75 77 72 71 70 71 72 72 73 73 77 81 81 87 92 98
17 19 20 22 25 26 29 34 36 37 36 37 38 38 40 43 47 49 51 54 57 60 63 66 70 78 78 74 76 70 64 61 61 65 66 68 73 77 80 87 92 93 81 77
17 19 21 23 24 26 27 29 33 39 41 42 40 41 43 41 41 44 48 51 52 56 59 62 65 69 72 75 77 72 73 73 74 77 81 82 84 86 83 76 73 73 74 69
17 19 22 24 26 27 25 27 30 32 37 41 43 44 44 42 43 42 43 45 46 48 50 53 54 56 60 63 70 73 77 78 75 70 68 68 67 66 67 69 71 64 59 58
20 20 21 22 25 24 26 28 30 32 36 38 41 43 44 43 44 46 47 48 49 50 50 50 50 51 54 56 60 61 62 59 59 59 61 62 63 65 67 61 55 55 56 56
24 24 23 23 23 23 25 27 28 31 32 35 39 41 42 44 45 46 48 48 47 47 47 47 49 51 52 53 52 52 54 59 58 60 58 64 63 57 50 51 53 52 51 47
24 22 22 23 24 25 26 26 26 30 31 34 36 39 38 39 40 40 40 40 40 42 43 44 45 49 54 53 50 52 53 56 59 57 55 51 45 46 47 45 42 42 41 40
23 23 21 20 20 23 27 28 27 27 30 31 34 36 37 38 38 38 39 38 37 38 37 37 38 39 41 46 51 53 51 51 48 43 41 40 40 41 40 38 37 36 35 35
26 24 22 20 20 21 24 25 26 27 28 30 31 33 35 36 36 36 38 40 40 39 38 39 41 42 43 43 42 39 37 36 37 38 38 38 38 36 36 36 36 36 35 36
28 28 28 25 24 22 20 20 25 27 28 28 29 32 34 36 37 38 38 38 38 38 39 37 36 34 33 31 31 32 33 34 35 36 37 37 37 38 38 36 37 37 37 38

GFSCGP_250_spd_078.txt.gz
Wind_Speed
76 76 71 67 72 78 84 87 92 100 109 114 117 117 120 122 120 120 113 106 104 101 98 96 93 91 87 87 88 87 86 86 82 81 79 78 78 77 76 77 77 78 77 76
71 72 72 73 74 78 83 86 92 101 108 116 119 118 120 119 117 117 117 113 109 107 101 97 96 93 91 90 90 91 91 88 86 83 81 81 81 80 80 81 81 80 80 82
65 72 73 74 74 75 80 84 90 96 103 110 116 117 116 113 115 115 117 115 112 108 105 100 98 97 95 94 93 92 92 92 90 88 85 83 83 83 82 81 81 80 81 83
61 68 73 73 74 76 79 83 87 92 98 101 112 112 113 114 112 114 114 116 115 111 107 105 101 100 98 96 96 95 93 91 91 91 90 88 86 84 84 83 82 82 82 80
57 64 71 72 73 74 76 79 81 88 93 98 101 107 111 114 113 110 113 115 117 115 112 109 107 104 102 100 99 97 95 93 91 90 90 91 91 90 87 84 82 82 84 84
54 61 68 69 70 71 73 75 79 85 88 90 95 97 105 111 111 114 114 116 116 116 115 113 111 108 106 104 103 101 98 96 94 91 88 87 88 91 92 92 92 92 93 93
50 56 62 64 66 68 68 70 73 77 80 83 87 90 92 100 106 110 112 114 114 114 115 117 115 113 110 108 106 104 102 100 98 96 94 91 90 90 90 90 91 92 94 98
44 48 55 58 60 64 66 64 68 73 76 81 83 80 86 94 97 104 109 111 111 110 112 116 117 116 113 112 111 109 106 103 102 100 97 96 94 94 94 93 93 92 92 94
40 43 44 50 58 61 60 59 62 65 69 72 70 75 82 86 90 95 101 105 106 109 110 111 113 117 117 116 114 113 111 109 107 103 101 100 99 98 97 95 94 95 94 96
40 44 44 46 51 54 57 61 61 59 55 57 61 68 74 81 83 88 93 99 102 103 108 109 108 109 113 115 117 117 115 113 111 108 106 105 104 102 101 99 98 98 101 102
30 38 36 41 44 50 54 56 55 51 48 52 55 61 65 71 76 82 87 93 97 99 104 108 109 109 109 110 110 113 116 116 114 112 111 109 108 106 104 105 105 104 104 104
27 28 35 36 38 43 49 49 49 47 48 47 53 58 60 63 68 75 78 82 88 89 94 100 103 107 108 109 109 109 110 110 112 112 112 111 109 109 107 107 105 104 104 103
23 30 35 36 37 39 43 47 46 44 43 44 50 53 55 58 60 67 71 74 81 84 86 90 95 99 101 103 106 105 106 106 106 107 107 107 105 107 105 105 104 103 102 101
18 18 24 29 31 35 36 34 36 35 37 41 43 47 48 52 56 59 66 70 71 73 75 81 84 86 89 91 96 98 100 101 102 104 103 102 102 103 104 104 103 101 104 100
20 20 21 23 27 30 31 30 29 32 34 35 40 42 44 45 49 53 58 63 66 69 72 75 78 80 81 82 83 86 89 91 94 97 99 101 103 105 104 106 103 103 100 90
17 21 23 25 26 26 28 29 30 29 31 34 34 36 39 40 43 49 52 56 60 62 67 70 71 72 74 74 75 76 80 82 85 88 89 88 90 92 88 85 82 76 74 74
19 23 25 27 30 31 31 30 30 30 32 32 34 35 34 37 42 45 50 53 55 58 62 65 68 68 69 70 71 73 74 75 76 77 77 75 75 72 72 69 68 68 69 72
20 22 23 25 28 31 32 33 34 34 34 35 35 34 35 38 40 43 46 50 53 56 59 60 62 63 65 66 68 70 71 70 71 71 67 69 64 63 66 63 63 66 70 75
21 24 26 27 28 30 31 32 33 38 38 39 38 36 37 38 41 42 44 46 49 51 53 55 57 60 62 63 64 65 66 67 63 63 59 60 59 57 60 62 67 71 73 77
22 23 24 26 26 27 28 29 32 32 35 39 41 41 41 39 39 40 43 45 47 48 50 52 54 57 58 61 65 65 66 67 68 64 62 60 63 66 65 67 72 76 83 81
24 26 27 26 26 26 28 31 32 33 35 36 38 40 41 42 41 41 41 43 43 44 46 46 48 51 54 56 58 60 64 69 71 70 70 74 70 70 74 81 81 70 67 68
23 24 25 26 26 28 29 29 31 32 33 36 39 41 42 42 42 43 42 41 42 43 44 43 42 42 42 43 45 48 51 54 55 57 60 63 65 66 65 59 59 63 62 59
24 24 25 27 28 27 27 28 31 31 32 33 34 38 41 39 40 40 43 42 43 45 44 44 44 45 44 44 45 46 47 48 47 48 51 51 52 54 58 57 59 55 48 48
21 23 23 24 25 27 29 28 29 29 30 30 33 34 37 40 40 40 43 44 42 44 45 44 43 43 44 44 46 47 49 51 51 51 49 50 51 55 54 50 44 44 42 41
23 23 23 23 25 26 25 28 29 30 29 29 31 33 35 37 40 42 42 41 40 43 41 40 39 40 40 41 41 42 44 46 47 48 51 52 50 45 41 41 41 40 40 41
25 25 26 26 25 24 23 25 28 30 30 30 29 31 32 34 37 40 40 39 38 38 37 39 38 38 38 39 40 41 42 42 42 43 42 40 39 40 41 40 40 40 42 43

GFSCGP_250_spd_081.txt.gz
Wind_Speed
72 75 73 73 71 72 72 77 81 86 88 91 96 102 106 106 114 113 112 112 114 109 106 104 101 92 87 89 86 82 80 80 76 75 74 74 71 67 69 71 70 73 75 75
63 69 72 72 73 73 73 74 78 83 86 88 96 102 109 108 113 112 115 113 114 113 108 104 100 96 91 88 92 91 89 87 86 85 83 81 80 80 79 77 78 78 77 78
61 68 74 76 72 69 69 71 77 80 83 87 95 99 107 106 111 112 115 113 111 111 109 105 102 99 95 93 91 90 92 91 88 87 87 86 85 84 84 82 81 79 80 79
59 65 71 71 69 70 69 72 72 74 78 82 89 94 101 109 110 112 115 114 114 110 110 107 104 102 99 97 93 91 90 91 91 90 88 87 86 86 86 84 83 82 81 81
53 55 66 71 69 69 68 70 70 74 78 81 86 92 99 107 109 107 112 113 111 110 110 110 108 104 101 98 95 93 92 91 91 91 90 89 88 87 87 86 85 85 85 85
49 51 57 62 65 66 69 68 70 72 77 78 85 89 98 103 107 111 115 113 112 112 110 110 110 108 105 102 101 99 97 94 93 92 91 91 90 90 89 88 87 87 88 88
41 46 53 59 65 69 68 67 69 68 70 75 80 83 96 100 105 109 110 110 110 109 106 106 108 110 109 107 104 103 101 98 96 94 94 93 92 92 93 92 90 89 87 87
37 43 50 56 61 63 62 60 60 59 63 70 74 78 88 95 101 106 108 110 110 106 104 104 106 110 111 112 111 108 105 103 101 99 97 96 96 95 95 95 95 94 93 93
32 38 44 47 50 57 58 57 56 59 60 64 67 76 84 90 93 97 102 104 107 106 106 105 105 109 111 112 112 112 110 107 105 104 103 101 100 98 96 95 96 96 96 96
29 34 36 41 45 51 53 57 56 56 58 60 64 70 76 84 86 89 91 95 100 105 107 106 107 106 107 108 110 112 113 112 111 110 109 107 105 104 101 99 99 98 97 97
24 28 31 34 40 47 50 51 50 53 52 55 58 62 68 74 77 80 84 87 92 97 102 103 106 105 105 105 106 107 109 111 113 113 112 112 110 109 108 105 105 105 104 104
16 22 28 36 41 45 48 49 49 46 50 52 52 54 60 63 72 75 79 81 84 88 91 93 98 100 103 104 106 106 105 105 106 109 113 114 113 111 112 110 110 110 110 110
17 18 21 23 28 37 43 46 48 48 49 49 48 53 57 60 64 68 73 76 79 81 83 86 89 92 96 97 99 101 102 102 102 104 104 105 109 111 112 111 110 110 109 110
18 22 24 26 30 32 39 43 44 46 44 48 47 54 56 56 58 62 66 69 72 74 78 78 80 85 89 91 92 93 93 92 92 95 98 100 99 100 99 100 101 101 101 101
18 22 23 25 26 27 27 32 36 37 42 39 45 47 52 52 52 54 58 61 64 67 72 75 76 79 81 84 84 84 84 84 87 90 91 93 94 95 96 97 98 97 96 97
17 22 23 25 25 27 30 31 31 30 33 37 41 45 46 47 46 47 49 52 55 59 62 65 70 75 76 75 77 79 80 81 82 83 83 84 85 86 87 88 88 89 88 90
19 24 25 28 29 30 32 33 31 32 32 36 38 42 39 42 42 42 45 47 51 55 57 62 63 67 71 71 72 73 74 74 75 75 74 74 75 75 76 77 79 79 77 74
20 21 24 28 31 33 34 34 34 34 35 36 39 38 37 39 39 40 42 43 44 49 54 56 59 60 62 65 67 67 68 70 69 67 67 67 66 67 68 67 67 70 69 66
19 22 23 26 27 29 33 34 35 37 37 38 39 39 38 39 40 40 42 42 44 45 49 51 55 59 60 60 62 63 64 65 64 63 64 65 65 66 64 65 63 63 60 59
20 22 24 26 28 29 31 33 33 35 35 38 39 39 38 39 40 40 40 43 43 44 46 49 52 55 58 59 59 59 60 61 61 63 64 66 66 64 63 59 56 54 55 53
20 23 25 26 28 30 30 32 32 33 33 34 34 35 34 37 38 38 40 41 42 44 44 45 46 48 51 51 53 55 57 57 58 58 58 57 57 55 54 54 54 55 55 59
20 21 24 27 29 28 29 31 31 33 35 35 36 36 35 35 36 35 38 37 38 40 40 42 43 44 46 47 49 51 53 54 55 57 58 56 57 59 59 62 60 64 65 72
19 21 22 24 26 27 28 30 31 31 32 33 34 35 35 37 36 36 35 34 37 37 36 38 40 40 40 41 41 43 44 46 49 53 55 58 61 63 61 58 56 61 61 56
21 22 23 25 25 26 26 27 27 28 31 32 33 33 35 37 38 38 37 39 38 37 39 37 38 38 38 37 37 36 37 37 38 40 42 43 44 45 45 47 49 51 53 53
26 23 23 24 25 26 27 29 30 30 29 30 32 32 33 35 37 38 39 39 39 38 38 41 40 39 40 40 41 41 42 42 44 45 47 47 47 49 50 50 51 52 54 51
25 27 26 25 24 21 23 24 25 27 29 31 31 31 30 32 34 36 37 39 39 38 39 39 38 39 40 39 40 41 41 42 44 44 43 43 44 44 45 46 48 46 42 40

GFSCGP_250_spd_084.txt.gz
Wind_Speed
67 67 69 72 73 75 74 79 83 88 91 92 95 96 94 93 94 94 97 100 100 100 99 103 101 97 95 88 77 74 79 82 79 77 76 74 75 71 72 68 67 69 68 69
55 62 68 71 75 74 74 76 81 86 87 92 96 98 97 93 92 92 94 101 104 102 99 100 104 103 101 98 92 82 76 78 81 79 76 74 74 74 76 74 72 72 73 71
48 59 63 68 72 75 73 73 77 79 82 84 91 94 94 94 93 94 94 100 103 100 102 102 104 108 106 101 99 90 87 78 76 76 75 74 74 74 76 74 72 72 74 75
44 53 57 63 72 70 72 74 77 77 77 78 84 83 88 90 92 95 94 98 100 102 103 104 104 108 108 104 100 99 93 89 85 85 83 82 77 74 75 75 77 79 77 78
42 47 53 62 67 69 73 74 73 72 70 71 73 75 80 84 88 92 95 98 101 101 104 105 105 105 109 107 104 101 102 96 87 87 90 90 88 87 87 86 85 85 83 82
39 45 52 59 66 67 71 68 68 69 69 68 69 70 75 79 86 94 98 100 103 105 106 105 104 106 108 110 108 105 104 101 98 93 90 89 90 92 93 92 91 90 88 87
33 39 47 56 59 63 65 66 67 65 64 61 63 64 73 76 82 89 95 98 102 104 109 108 105 107 107 110 112 109 107 104 101 99 96 93 91 89 90 90 90 91 90 90
27 31 34 42 51 60 64 62 59 57 55 57 61 59 69 70 77 83 90 96 98 105 110 110 108 106 106 107 111 112 109 106 103 100 98 96 95 94 92 91 90 90 91 91
21 28 35 41 47 55 58 56 54 54 56 57 56 57 67 66 74 78 84 90 96 104 108 110 108 107 105 104 104 111 112 110 107 104 102 100 99 97 96 96 95 95 95 94
17 28 37 42 48 52 54 55 53 54 55 55 55 55 60 63 68 74 78 84 91 99 102 105 106 106 104 101 99 100 105 110 111 109 107 104 103 101 99 99 99 98 99 99
17 25 32 35 37 39 43 44 47 51 51 51 52 54 58 62 64 69 73 79 85 93 96 99 101 103 102 97 93 97 98 99 104 108 109 109 107 106 105 104 103 102 102 103
13 20 25 30 36 39 43 46 49 50 51 51 52 53 54 59 62 65 70 76 81 86 90 94 96 98 99 98 96 94 95 95 96 99 103 106 107 108 108 108 107 107 108 107
12 18 24 28 33 36 40 42 45 46 47 47 47 48 50 56 59 60 67 72 76 79 83 86 89 93 96 97 97 96 96 97 98 97 97 99 101 104 105 106 107 107 106 107
10 18 23 30 39 42 44 45 47 48 46 46 44 50 50 53 56 59 64 68 71 75 78 81 82 83 83 86 91 94 96 96 97 97 100 99 97 98 99 99 98 98 98 98
9 17 23 23 26 30 36 36 36 37 43 42 47 42 50 53 56 58 61 60 64 69 73 76 78 78 77 77 79 84 89 92 95 96 96 95 95 95 95 95 94 94 94 93
10 15 20 26 28 28 29 31 35 40 41 41 46 45 51 52 51 55 54 56 57 62 68 70 71 71 73 73 74 76 80 83 85 88 90 91 92 92 91 89 87 86 86 84
11 13 16 22 25 27 30 34 32 35 39 42 40 49 45 49 49 47 48 51 52 56 61 64 65 65 67 68 68 71 74 75 77 79 80 81 81 80 79 79 79 78 77 79
13 13 15 18 22 27 33 33 35 35 37 38 43 45 46 44 39 40 44 45 46 47 49 50 53 57 58 61 63 64 65 66 69 70 72 72 72 72 72 73 72 74 75 75
16 16 17 19 21 23 26 30 33 35 35 39 43 42 41 40 36 38 40 40 42 42 46 48 48 50 54 57 59 59 60 61 63 65 66 66 68 68 67 67 68 69 70 66
16 17 19 20 22 23 24 27 29 32 34 37 40 40 40 38 38 37 36 38 41 42 45 46 48 50 50 52 55 57 57 58 58 59 61 63 62 64 63 62 64 62 59 61
16 18 20 21 23 24 25 27 29 31 33 34 35 37 38 38 38 37 38 39 39 40 42 42 43 46 48 50 53 55 57 58 58 58 59 60 60 60 60 61 61 61 60 59
18 19 19 21 23 22 25 27 30 31 30 30 31 32 32 31 30 32 34 37 37 37 39 40 43 45 46 47 49 52 52 53 55 55 56 56 57 58 58 59 57 55 53 50
21 20 20 20 21 24 25 25 27 28 30 31 32 34 34 33 33 30 29 32 33 30 33 34 35 36 39 40 41 42 45 46 48 49 50 51 50 50 50 49 50 50 50 50
23 23 21 21 20 21 23 24 28 30 30 31 32 33 34 34 33 33 33 32 31 34 35 30 31 31 33 36 37 39 39 39 41 43 44 46 47 49 50 51 51 52 53 58
25 25 23 22 22 22 21 24 26 26 26 28 30 32 34 34 34 33 33 34 35 36 35 34 33 32 34 32 32 33 33 33 34 36 38 39 40 41 43 43 44 44 47 47
27 26 26 24 24 22 24 25 27 28 29 30 31 30 30 33 34 33 33 34 36 36 37 39 37 34 34 35 34 33 34 35 36 36 35 36 36 37 39 41 45 47 48 50

GFSCGP_250_spd_087.txt.gz
Wind_Speed
53 61 63 71 73 73 75 77 78 84 87 88 88 91 90 88 88 90 89 92 91 91 95 97 97 95 90 87 84 82 69 55 64 56 67 73 70 69 71 72 71 71 68 65
43 55 65 71 70 72 75 75 75 80 83 86 90 91 92 88 86 88 88 89 93 93 92 93 95 97 95 93 90 86 82 64 58 62 59 63 67 64 62 66 70 72 70 69
40 51 59 65 68 69 71 72 74 77 80 82 87 90 89 89 87 85 84 86 90 92 93 94 95 94 98 100 95 92 94 79 75 64 65 72 74 75 71 71 66 67 68 70
36 45 53 58 62 68 69 72 75 77 78 79 83 86 88 90 88 84 84 86 87 93 97 97 98 96 95 100 100 98 97 98 92 83 67 71 74 76 78 73 72 71 69 69
34 37 43 51 64 65 68 72 75 75 73 75 76 78 83 87 87 86 86 87 90 92 94 99 98 98 97 96 100 104 102 101 98 91 83 81 79 78 79 82 79 76 74 73
31 39 45 54 60 63 68 71 71 71 70 70 71 73 81 86 88 88 91 89 90 93 95 96 99 100 98 98 98 103 108 106 104 100 93 90 88 83 81 77 77 75 76 75
23 33 45 51 58 62 66 66 66 69 67 65 67 68 77 80 83 85 88 90 91 91 93 95 94 100 103 101 100 101 103 109 109 106 102 98 95 92 88 89 88 85 84 84
18 28 40 47 53 59 61 63 61 58 57 60 63 63 71 74 79 81 84 88 91 93 92 94 98 100 99 103 105 104 104 103 106 109 108 107 104 102 101 98 93 91 89 89
12 26 36 44 47 47 53 57 56 56 59 63 63 63 72 72 74 75 77 80 85 90 94 96 100 99 101 99 101 103 105 105 103 105 109 109 108 105 103 103 102 100 98 95
11 20 31 36 34 44 49 51 54 55 56 59 60 62 66 68 66 67 69 73 78 84 88 93 99 100 102 101 101 102 102 103 104 104 105 109 109 108 106 106 104 103 100 99
12 19 29 33 38 41 44 48 50 52 53 55 57 59 63 64 58 60 64 68 74 78 83 90 95 98 100 102 102 100 100 102 101 103 104 104 108 110 109 107 107 106 104 103
11 19 28 34 35 38 41 45 50 52 52 53 55 57 60 59 56 59 61 63 67 72 78 83 89 92 97 99 101 100 98 98 100 101 102 103 101 104 110 111 110 110 108 107
8 15 21 26 30 33 36 40 43 45 48 49 50 51 56 58 58 58 58 58 63 68 73 78 82 87 91 94 97 99 94 94 94 95 94 95 98 99 101 105 110 112 112 112
9 17 25 33 36 39 44 46 48 48 48 50 50 55 57 56 54 52 54 58 62 67 69 72 75 80 84 86 90 90 88 88 87 85 88 90 91 92 91 94 99 101 104 105
10 18 25 31 36 40 41 42 43 43 45 46 49 48 53 51 49 50 55 59 59 61 65 69 71 74 77 79 81 82 82 82 82 82 83 86 88 89 91 93 95 96 96 96
8 14 23 27 29 33 35 36 37 39 41 44 48 51 53 46 48 52 56 57 57 60 62 65 68 71 71 71 72 72 73 76 78 78 78 80 82 87 91 93 94 93 94 95
8 11 17 25 30 32 33 36 37 38 41 42 42 49 44 47 50 52 54 52 53 54 57 60 63 64 65 65 66 67 69 71 72 73 74 76 78 80 82 85 88 90 90 91
8 10 13 18 26 31 34 35 38 42 43 43 45 48 46 47 48 51 51 48 47 49 53 55 57 58 59 61 60 61 63 65 66 67 67 69 71 73 73 74 76 78 79 79
10 10 11 15 20 25 30 33 38 43 43 44 48 49 48 50 49 54 46 44 44 43 44 46 48 51 51 54 56 57 57 58 59 61 63 66 68 68 69 70 70 70 70 71
12 11 12 12 14 17 20 27 34 39 40 43 46 46 46 47 50 44 39 39 41 43 43 44 45 47 47 47 50 52 53 52 53 58 60 62 64 63 65 66 67 66 65 64
15 15 14 13 14 13 15 18 19 23 31 35 37 38 40 40 39 38 37 35 37 40 40 40 40 43 45 46 48 50 51 52 55 55 57 59 60 60 59 60 62 62 62 62
17 17 16 17 17 16 17 18 19 21 22 23 25 27 30 31 31 33 32 33 34 36 37 35 36 38 39 42 47 49 51 52 52 54 56 57 57 58 56 57 59 59 60 61
20 21 19 19 19 21 21 20 21 22 22 22 23 24 25 26 27 28 27 26 27 29 30 29 34 34 36 38 40 44 46 47 49 50 51 51 50 52 53 53 54 56 57 56
20 22 21 21 22 22 22 23 24 24 24 24 25 27 28 29 29 30 30 31 31 30 28 29 29 25 29 29 32 34 36 39 42 43 45 46 47 47 47 48 49 49 49 48
18 22 22 23 23 22 24 24 24 25 25 25 25 28 30 31 31 31 30 30 31 34 34 32 30 29 27 26 27 29 31 32 35 38 40 42 43 44 46 46 46 46 46 44
20 21 22 23 24 23 23 25 25 26 26 25 25 26 27 29 32 33 33 32 32 33 34 36 37 35 33 30 30 29 31 30 32 34 34 36 37 38 40 41 42 44 44 45

GFSCGP_250_spd_090.txt.gz
Wind_Speed
49 57 66 73 76 72 73 79 84 90 91 92 94 96 96 93 91 91 92 91 94 92 92 94 94 92 93 94 92 87 79 65 70 64 66 63 59 54 53 56 61 67 67 66
42 54 72 74 73 70 75 78 82 87 91 94 94 91 93 91 90 89 89 88 90 94 92 95 98 96 93 96 96 91 86 72 61 71 70 65 62 52 53 55 56 62 62 66
41 53 61 67 69 72 75 76 81 82 87 91 93 94 93 89 88 87 86 86 87 92 95 97 97 98 94 96 97 95 92 86 76 70 64 62 62 57 55 47 53 57 66 67
37 47 55 64 69 71 70 75 80 81 85 90 93 93 91 89 88 88 87 86 85 89 95 95 96 99 99 95 96 96 96 92 88 86 80 70 70 71 72 66 61 57 60 64
30 41 49 60 62 65 69 73 77 81 83 83 87 91 89 88 87 86 85 86 85 88 93 93 96 99 99 96 93 94 98 97 93 90 91 88 79 71 67 69 72 68 61 68
20 36 44 54 60 64 70 71 76 80 80 80 82 83 83 85 88 89 89 88 87 87 89 91 92 96 96 96 95 93 98 101 99 93 92 95 95 85 75 78 75 71 70 73
15 31 41 51 58 65 70 72 75 76 72 71 73 73 78 83 87 90 90 88 87 85 85 87 88 91 96 97 98 95 95 100 101 100 97 96 98 94 87 84 82 78 79 72
16 27 41 51 59 64 67 66 63 59 61 65 65 67 75 80 83 86 87 86 87 88 85 85 86 88 94 98 99 97 97 97 100 103 104 104 103 103 102 102 99 91 90 87
14 24 39 48 55 57 57 59 60 61 66 68 68 69 77 78 79 79 81 83 86 88 86 86 86 87 91 96 98 98 100 100 100 101 103 108 110 107 108 109 108 105 104 99
14 19 31 43 50 54 54 55 58 62 64 65 67 71 76 76 75 75 76 78 80 85 88 88 87 87 90 92 96 99 101 102 103 104 104 103 107 113 113 112 110 109 108 106
14 21 25 31 38 42 46 50 54 60 61 63 65 70 73 73 71 71 72 73 76 79 82 86 88 90 91 92 95 98 101 104 104 105 105 105 106 106 108 112 115 114 113 112
12 19 23 25 30 38 46 50 55 59 62 64 66 66 68 71 69 66 66 68 70 73 75 78 84 89 93 94 95 97 99 103 102 102 104 105 107 107 106 106 107 108 108 111
13 20 23 31 37 42 47 50 52 54 58 61 63 64 67 68 66 65 63 65 67 69 71 74 78 84 89 93 97 99 100 100 99 101 103 104 104 106 106 108 107 106 106 107
12 23 29 34 40 44 46 50 53 56 57 59 61 64 67 65 62 59 60 62 64 66 68 71 74 79 83 87 93 97 99 100 101 103 103 103 104 104 103 103 102 103 104 104
9 22 30 35 40 44 46 48 51 53 57 58 62 61 62 60 59 57 59 61 61 62 66 68 70 75 80 83 86 88 90 92 95 97 98 100 100 102 102 100 100 99 100 101
8 16 26 33 40 44 46 48 51 53 53 56 58 60 58 54 54 55 56 60 58 61 65 66 69 71 73 77 79 82 83 85 87 89 90 92 91 94 93 94 94 93 92 95
6 12 21 30 35 39 42 46 46 49 51 52 53 56 52 51 53 53 54 55 59 63 62 64 66 68 69 71 72 74 76 77 78 80 82 83 83 83 84 86 85 84 85 88
6 9 15 24 31 35 36 38 42 44 45 48 51 50 49 49 51 52 54 57 59 59 58 58 61 65 66 67 67 67 67 70 71 72 73 74 75 76 76 76 79 78 76 78
7 9 12 19 26 31 36 38 41 42 42 45 46 47 47 49 51 54 55 56 56 58 55 54 55 56 59 61 62 63 62 62 62 63 66 68 69 71 72 71 73 72 71 75
9 10 12 15 20 25 31 36 38 41 44 46 49 50 50 50 52 49 51 52 51 48 47 47 48 49 50 52 55 55 56 57 56 57 58 60 62 64 65 66 67 69 69 70
14 11 12 14 16 19 23 30 34 37 41 43 45 46 47 49 50 49 49 48 47 45 45 44 45 48 49 50 51 53 54 55 56 55 54 56 57 59 61 62 63 65 65 67
19 16 15 14 16 19 21 22 24 29 35 37 41 42 43 45 45 45 46 45 41 39 39 39 41 41 41 42 44 48 52 53 53 54 55 56 57 58 59 60 59 62 62 63
20 19 18 17 17 19 22 23 24 25 27 26 27 30 31 33 33 32 33 33 32 32 33 34 35 34 37 36 37 38 40 44 47 51 52 53 55 56 56 57 58 57 57 59
21 20 21 21 21 22 22 24 25 25 23 24 23 24 25 25 26 25 26 28 29 30 32 32 33 33 33 32 35 34 36 38 40 40 42 44 47 52 51 51 51 52 51 50
22 22 23 23 24 24 24 24 27 28 28 27 26 26 28 29 28 29 29 30 31 32 34 36 36 35 33 31 30 30 31 33 35 35 36 38 40 43 45 45 46 45 46 47
22 21 25 27 28 27 27 27 27 29 30 29 28 28 28 29 29 30 30 30 32 32 34 35 37 37 37 35 34 33 33 32 32 33 33 33 36 38 40 41 43 44 44 45

GFSCGP_250_spd_093.txt.gz
Wind_Speed
37 49 60 67 71 76 80 84 82 87 87 92 98 102 102 100 99 100 98 95 97 98 98 98 97 97 96 95 96 95 92 87 81 74 73 72 63 57 62 62 62 56 47 50
30 44 61 70 76 77 78 82 81 84 84 88 96 98 99 99 96 97 96 95 95 97 98 99 95 96 97 96 95 97 94 91 88 82 77 73 70 67 63 63 60 59 64 54
28 43 58 69 76 79 79 82 82 80 80 87 94 98 97 95 95 95 95 94 92 93 95 97 93 95 95 96 95 96 96 90 89 86 82 72 70 70 68 68 65 61 59 59
23 36 51 66 74 76 77 82 84 82 81 85 90 92 96 98 94 94 95 93 91 91 94 94 92 99 94 95 96 94 94 91 69 81 85 84 79 76 74 71 69 61 65 62
17 29 46 61 68 71 75 78 79 77 82 87 89 94 96 95 92 92 93 93 91 90 92 92 92 98 98 95 95 98 96 94 90 77 81 90 85 82 76 74 76 72 71 71
15 25 40 53 60 68 74 78 78 81 84 85 87 87 93 89 89 91 89 90 91 91 91 90 89 94 95 96 97 96 97 96 96 94 85 89 93 90 87 76 72 74 76 76
14 19 36 50 59 68 74 77 78 82 82 80 82 85 88 85 88 87 89 89 88 89 90 87 85 89 92 95 98 96 95 97 98 99 94 92 92 94 97 86 77 72 76 78
11 18 30 45 50 61 69 73 75 78 74 73 75 77 82 86 88 87 88 88 88 88 89 86 86 87 89 91 95 98 96 96 98 100 97 94 96 100 99 98 98 93 91 82
10 18 27 36 44 57 67 70 70 71 70 72 73 75 80 80 84 88 88 87 88 87 87 86 85 86 85 88 91 95 97 97 97 99 99 98 96 102 103 103 102 102 104 103
9 17 24 35 47 59 64 67 68 68 67 71 71 75 75 78 82 83 84 87 90 88 88 86 84 85 87 88 88 91 95 96 96 98 100 99 100 98 102 106 106 104 106 104
7 15 20 32 42 49 55 57 59 60 64 69 72 74 73 77 78 78 81 86 87 86 86 86 85 85 85 86 87 89 90 96 97 97 100 101 102 102 101 105 109 110 109 108
4 12 17 24 35 45 53 54 55 59 63 68 71 69 72 74 73 75 79 80 79 79 79 81 83 85 86 86 86 87 88 92 96 99 100 104 103 103 106 105 104 108 113 113
7 9 16 20 32 45 50 51 54 59 63 65 68 70 72 73 73 73 74 75 74 73 73 74 77 80 84 87 88 89 90 91 94 98 100 100 101 104 105 105 104 104 105 107
8 9 19 25 31 39 45 51 55 58 62 65 68 70 72 72 72 71 71 71 67 68 70 72 74 76 78 81 86 90 92 93 95 97 99 100 101 103 103 105 106 108 107 105
10 8 21 32 35 39 44 49 53 57 61 64 67 67 66 67 68 68 70 67 65 68 69 70 71 74 76 78 80 83 88 94 96 97 97 98 99 101 102 104 105 106 107 107
9 6 18 28 40 45 46 48 51 54 57 61 64 67 66 66 64 63 63 64 63 66 67 69 69 71 73 74 75 77 79 84 88 91 95 99 100 100 101 102 105 107 108 108
8 7 11 20 31 37 40 46 49 51 55 59 63 63 61 62 64 64 64 64 63 63 64 65 67 70 72 72 74 75 76 76 78 80 84 88 92 96 100 103 105 106 106 107
10 7 10 20 21 31 37 41 45 49 52 56 58 59 61 62 63 64 63 62 62 63 65 64 67 70 71 72 71 73 74 74 74 75 76 78 82 84 87 90 93 93 95 97
14 11 11 16 20 26 31 38 42 46 50 53 55 55 55 56 60 61 59 60 60 62 64 65 68 70 70 70 69 70 71 71 71 71 73 73 75 76 78 80 83 84 85 86
15 14 14 16 17 24 32 36 38 43 45 48 50 51 52 53 54 54 57 59 60 62 63 64 67 65 65 66 66 67 67 68 68 69 69 68 69 70 71 73 75 76 77 78
23 15 17 17 19 22 27 32 38 41 45 47 48 49 50 52 53 54 55 57 58 59 60 61 60 58 58 56 57 60 62 63 64 64 63 63 62 63 63 66 68 68 69 71
31 20 17 19 21 23 25 28 30 36 42 42 44 47 49 51 52 52 53 53 52 52 51 50 50 47 48 50 52 54 56 57 58 59 59 59 59 60 60 60 61 63 65 66
36 23 20 20 22 25 26 27 28 31 36 39 40 41 42 43 45 47 48 48 46 45 45 46 45 46 45 45 46 48 49 50 51 52 53 53 55 56 58 60 60 61 61 63
38 26 22 23 23 25 26 29 31 31 31 32 33 36 38 40 41 43 43 44 46 44 42 41 41 42 42 42 42 42 42 44 43 43 44 46 46 47 49 53 54 54 55 55
46 29 24 23 26 27 28 29 30 31 33 34 32 33 34 34 34 34 33 34 34 36 36 38 39 40 41 41 42 43 42 41 42 40 41 41 42 42 42 44 45 47 47 49
56 35 25 26 28 30 31 32 32 32 31 33 34 35 35 34 35 36 37 38 38 37 38 39 39 39 40 40 41 41 42 42 39 39 39 40 40 40 40 40 41 42 44 44

GFSCGP_250_spd_096.txt.gz
Wind_Speed
29 34 42 47 60 63 68 76 85 90 95 96 101 104 104 103 101 103 103 99 99 99 98 99 100 100 103 88 92 95 94 93 88 82 75 69 66 65 58 59 60 56 54 54
26 35 42 48 58 64 67 74 82 88 92 93 98 101 101 99 100 100 102 102 100 101 99 98 98 100 98 100 87 90 96 94 93 89 86 83 78 69 62 56 60 55 59 56
25 30 38 48 59 66 66 71 80 86 83 86 95 100 100 95 97 100 100 101 100 95 96 96 96 97 97 97 99 96 92 92 93 92 87 86 84 80 72 60 64 51 51 48
21 25 35 46 55 60 63 71 78 81 83 87 93 92 93 91 93 96 96 99 93 92 93 96 93 96 97 97 97 96 93 91 91 90 86 82 81 81 80 66 54 62 60 56
19 21 30 45 54 63 69 71 72 78 83 88 91 91 92 91 91 93 93 95 95 93 95 96 93 93 98 99 97 94 90 90 91 91 90 87 80 73 81 82 78 74 74 71
14 16 26 40 53 61 69 70 73 80 85 89 82 81 84 83 83 89 91 92 93 92 92 95 89 92 94 96 95 94 94 93 91 92 91 90 91 89 87 82 89 89 81 78
9 13 24 36 48 58 67 72 75 82 84 81 79 80 80 83 85 86 87 88 91 91 89 91 89 89 93 94 92 92 96 98 93 92 92 93 93 92 93 86 88 89 93 91
8 9 17 28 39 52 62 67 72 74 77 76 76 74 76 76 78 82 84 86 85 83 85 90 87 88 91 92 90 92 93 95 96 94 93 92 94 93 98 92 86 85 92 96
9 6 14 21 31 43 52 62 68 73 76 73 72 71 73 71 75 80 83 83 82 85 88 87 86 85 87 89 89 90 92 93 94 96 94 93 93 96 97 92 93 91 91 92
12 5 7 15 26 38 49 62 66 69 70 70 69 69 71 72 76 81 81 82 84 84 85 86 86 84 82 85 87 87 89 91 91 92 94 95 95 97 98 97 99 97 101 97
15 5 6 14 19 31 46 58 59 64 65 66 69 69 70 71 75 77 78 81 84 86 86 84 83 83 78 82 84 83 87 90 90 90 91 93 96 99 100 99 100 98 100 100
16 6 4 14 22 29 44 51 53 57 60 64 66 67 70 72 74 76 78 81 84 83 83 83 84 84 80 80 80 80 83 86 86 87 89 92 93 98 102 103 103 102 102 103
19 9 6 14 25 35 41 46 50 54 59 64 62 64 68 70 70 72 76 78 77 79 81 82 84 83 82 82 81 80 80 84 86 87 88 90 92 96 100 102 104 106 103 103
19 12 6 15 24 31 38 44 49 52 55 58 61 62 65 67 67 68 70 69 71 76 77 79 80 80 80 82 83 83 83 84 84 86 89 91 93 96 97 97 100 103 103 105
18 11 6 14 20 25 34 39 45 49 52 54 58 59 61 62 63 64 65 66 70 72 74 74 73 75 76 76 78 80 83 85 87 88 89 90 92 94 96 97 97 98 101 102
21 11 8 11 17 23 30 37 42 46 49 55 59 59 60 62 64 64 65 67 69 71 72 71 69 71 73 74 74 74 75 77 80 84 90 93 93 94 95 96 96 96 96 98
27 18 10 10 15 24 29 34 40 45 48 52 56 56 57 62 64 66 67 69 70 71 70 68 67 71 73 72 72 73 73 72 73 75 77 81 85 90 95 97 98 98 98 99
33 23 15 12 13 21 25 32 39 43 47 50 53 55 58 62 64 66 65 66 66 68 69 67 68 69 71 71 71 72 72 72 72 72 72 73 75 78 81 85 90 95 97 99
42 24 18 14 15 18 27 28 36 43 46 48 51 53 57 61 64 62 64 66 66 67 67 67 68 69 69 70 71 72 73 72 71 71 72 71 71 72 73 76 78 80 83 86
50 29 17 17 16 20 24 29 32 37 42 44 48 51 54 56 58 62 66 67 66 68 69 69 69 68 69 69 70 70 70 68 69 69 69 69 68 69 69 71 72 74 77 78
52 45 25 16 18 23 25 29 31 34 41 40 42 45 48 51 53 59 61 63 63 66 67 67 67 68 69 70 68 68 68 67 68 68 69 68 68 68 68 68 68 69 71 73
55 47 33 21 17 24 27 29 32 35 38 39 41 44 46 48 50 53 55 57 59 62 63 63 65 66 67 67 65 65 64 63 61 63 65 66 68 69 69 67 67 66 66 66
68 54 39 24 21 23 25 27 30 34 39 41 43 44 45 47 49 51 54 56 57 58 57 58 59 61 61 60 59 58 55 53 55 58 60 61 63 64 64 63 63 63 62 62
73 60 49 33 23 24 25 28 30 32 35 37 40 44 46 46 45 46 50 52 50 49 49 49 48 49 50 51 52 52 51 52 53 55 55 54 54 57 57 55 55 56 55 54
79 61 48 40 28 24 27 28 32 33 35 35 37 38 40 43 45 46 47 49 49 49 48 47 47 47 46 47 47 48 49 50 51 51 51 50 51 51 49 49 48 47 47 47
91 80 58 41 31 24 26 29 33 37 37 38 38 38 39 39 40 41 43 43 44 44 44 43 43 44 45 46 47 47 48 49 50 50 50 50 48 48 47 46 45 44 43 43

GFSCGP_250_spd_099.txt.gz
Wind_Speed
18 23 28 36 44 56 63 70 82 88 94 97 103 108 105 107 112 114 98 101 109 106 102 98 96 98 99 99 91 80 88 93 86 82 81 83 82 77 72 70 68 63 61 57
14 17 25 33 41 53 61 65 77 85 92 96 103 109 107 108 107 105 104 90 100 104 103 101 97 95 97 98 100 100 93 88 90 90 88 80 79 78 76 75 72 71 65 60
12 17 24 32 39 53 61 64 71 82 90 95 103 108 109 107 108 105 100 94 97 101 103 101 99 96 94 94 96 98 95 92 91 95 88 85 80 65 65 70 72 64 62 66
14 17 22 27 40 51 60 65 68 76 85 94 100 103 102 102 103 106 100 94 94 100 100 99 100 99 97 95 94 94 96 97 89 83 88 93 90 86 75 65 69 66 67 65
12 14 19 27 38 46 56 65 72 75 83 90 96 100 99 103 100 98 99 96 95 93 98 97 98 101 99 98 97 96 95 96 96 78 73 72 82 90 90 90 80 72 72 75
10 10 16 25 34 41 55 63 69 74 80 86 91 92 94 96 89 90 93 93 92 89 90 92 99 100 100 98 96 97 94 94 95 92 86 85 80 81 84 89 94 93 83 80
10 6 11 21 30 42 55 59 66 70 76 83 88 93 91 87 89 84 83 85 88 83 86 93 94 96 100 98 97 96 94 93 92 92 91 91 90 93 92 90 92 92 91 93
10 4 6 16 23 38 48 59 64 65 67 75 81 85 85 82 83 86 85 81 80 83 88 88 89 92 94 94 97 95 94 94 92 95 95 94 93 92 89 90 86 89 90 93
12 7 0 10 16 28 46 58 62 66 69 70 75 81 81 80 79 79 74 73 77 81 83 83 86 87 88 92 94 97 96 94 93 93 93 96 95 96 96 92 93 91 94 94
12 10 5 8 14 20 33 46 56 61 64 68 71 75 73 71 72 73 73 74 76 81 82 83 86 85 86 88 91 92 93 90 90 91 93 93 94 96 95 94 96 95 95 93
14 12 7 8 11 16 22 38 48 57 61 60 62 66 66 66 69 70 70 71 73 76 78 80 82 83 82 83 84 89 88 88 89 89 90 91 92 92 92 94 97 99 98 98
18 13 6 9 13 17 25 29 38 49 53 54 58 63 65 64 66 69 70 70 73 78 79 81 81 81 79 81 84 85 83 85 86 85 86 88 89 90 91 93 95 98 99 100
22 15 6 4 13 18 24 31 37 43 47 51 57 62 61 61 64 66 67 68 70 74 77 76 76 77 79 81 81 80 81 80 81 82 82 84 86 88 88 89 90 93 96 100
26 19 14 8 5 13 21 27 34 39 42 47 54 59 59 57 60 62 64 66 67 71 72 72 74 79 81 82 80 81 81 80 80 80 80 80 82 84 85 86 88 91 93 96
31 23 17 17 8 8 15 22 28 34 39 44 49 48 52 56 59 61 65 66 67 68 69 71 74 78 78 77 78 79 79 80 79 80 80 80 81 83 84 85 85 87 89 92
38 26 19 14 12 9 12 17 24 30 36 40 42 45 51 54 57 59 62 64 66 67 68 69 73 75 75 76 77 76 76 76 76 76 78 81 82 84 85 86 87 87 88 89
49 34 22 14 10 11 14 17 22 28 34 38 41 47 52 54 56 58 60 62 65 66 68 68 69 70 73 74 74 73 72 73 73 73 73 74 77 79 82 85 87 89 90 91
56 43 28 18 13 10 13 17 21 25 31 35 39 44 48 52 55 57 59 61 64 65 65 66 67 69 71 71 71 69 71 72 71 70 70 70 71 72 74 76 78 81 84 87
67 52 34 23 17 14 14 16 21 26 29 34 39 42 45 50 53 56 57 59 60 63 64 65 68 69 69 70 69 69 70 71 70 69 70 70 70 70 71 73 74 75 76 78
75 63 48 28 22 20 17 19 20 25 28 33 36 40 45 48 51 54 56 58 59 61 63 65 67 67 68 68 68 68 70 71 69 69 70 69 70 69 69 70 70 71 73 75
74 65 53 37 24 23 21 22 25 27 31 31 33 37 41 45 49 52 55 57 59 61 62 64 65 66 67 67 67 68 69 69 69 68 68 68 68 67 67 68 68 68 68 70
86 66 61 46 32 23 20 24 27 30 31 31 32 35 37 40 44 49 53 55 57 58 61 64 66 67 68 68 68 69 69 69 68 69 68 67 65 64 65 66 68 68 68 67
92 74 71 53 37 25 17 23 27 30 31 32 33 36 38 40 42 44 46 49 53 56 59 62 63 64 65 66 66 67 66 66 67 67 66 65 64 61 61 64 64 65 66 65
94 85 79 63 44 32 22 18 25 31 33 34 35 37 40 42 45 47 48 49 50 52 54 56 58 60 62 62 63 63 64 65 64 63 61 59 58 59 60 61 60 59 59 58
92 92 88 75 50 38 26 21 20 27 33 36 37 37 39 42 44 48 49 49 48 49 50 52 53 54 55 56 56 56 57 58 59 59 60 59 58 58 57 56 55 54 52 52
91 96 94 87 63 43 30 22 22 23 30 34 37 40 40 40 42 44 46 48 50 50 51 51 51 52 53 54 54 54 55 55 57 58 58 57 56 55 53 52 51 50 49 49

GFSCGP_250_spd_102.txt.gz
Wind_Speed
18 18 25 34 46 53 55 60 71 82 93 98 102 105 110 105 106 102 99 103 110 110 108 101 87 91 83 82 89 92 88 83 85 85 75 82 82 80 80 75 72 70 69 67
14 18 24 31 41 47 53 58 66 81 89 96 102 105 105 101 99 97 96 99 105 110 111 107 100 88 86 90 90 89 89 90 87 82 84 85 87 85 85 82 78 74 73 71
11 15 21 30 40 46 52 58 67 75 91 98 105 101 100 97 93 95 101 101 103 109 111 108 106 103 96 90 93 90 94 91 90 87 86 79 82 79 78 73 76 78 77 78
11 12 19 29 36 42 51 60 69 81 89 96 101 97 98 98 99 102 103 104 102 103 108 111 107 103 101 97 93 88 90 90 85 90 93 91 90 85 75 79 78 71 66 67
10 11 18 27 34 43 51 54 63 74 87 94 95 97 100 103 101 102 101 102 107 104 102 110 108 104 103 100 96 94 91 92 94 94 95 94 93 81 76 67 62 66 69 63
11 8 16 24 33 44 49 54 66 72 84 90 94 99 103 101 94 95 101 104 104 101 96 96 105 105 103 102 99 98 92 88 93 95 89 88 96 96 88 85 89 76 74 85
13 9 13 22 34 41 52 58 68 73 80 87 95 98 103 103 102 99 98 98 101 99 95 95 93 97 103 105 104 100 97 96 81 85 92 91 88 88 89 93 97 99 94 84
14 7 7 18 28 37 47 60 67 71 72 81 91 93 99 102 103 101 98 97 95 90 92 93 90 91 95 98 96 101 101 97 90 78 82 93 92 90 88 92 96 94 92 92
12 5 3 11 22 31 41 53 64 69 73 75 82 89 91 96 96 96 98 98 96 93 92 88 85 84 85 89 91 97 100 100 98 97 91 89 92 93 93 91 90 94 99 93
15 10 3 10 18 23 34 48 60 64 67 71 80 86 87 90 93 92 93 93 94 92 91 86 86 80 80 83 88 93 96 96 98 100 101 99 98 96 97 94 92 93 96 99
22 16 6 9 14 17 23 37 51 56 61 64 71 79 83 86 87 89 87 84 82 83 83 81 82 82 78 80 86 91 95 95 95 98 98 100 98 99 97 95 95 97 96 96
26 21 16 6 13 17 19 28 45 53 59 63 67 72 76 80 80 76 79 79 75 72 76 78 80 79 78 81 85 88 90 91 91 91 92 92 94 97 98 96 97 97 97 97
33 24 19 15 5 12 21 26 32 44 53 57 59 63 66 68 71 74 73 71 69 73 76 76 78 77 77 78 83 85 85 86 87 88 88 88 90 91 92 93 92 94 95 96
42 30 20 14 9 3 11 22 27 34 43 52 55 59 61 61 63 66 68 69 70 70 71 71 70 71 72 75 79 79 80 83 85 85 84 85 85 86 87 88 89 90 91 93
49 42 29 18 11 7 1 11 22 29 36 42 51 54 55 57 58 57 59 64 66 68 67 67 65 67 69 72 75 77 78 80 81 79 81 81 82 83 83 84 84 85 87 87
61 50 37 24 14 8 4 5 12 21 28 35 39 45 48 51 52 54 56 58 61 64 64 65 65 66 69 72 74 74 75 78 79 80 78 78 80 80 81 82 83 83 83 84
69 63 51 35 20 10 5 3 10 16 23 29 36 39 44 47 50 52 55 56 57 60 63 64 65 65 66 69 70 73 75 78 77 77 76 78 78 77 77 78 80 82 84 85
76 68 60 48 32 17 12 8 9 13 19 24 29 36 40 43 47 50 52 54 56 57 59 61 63 65 67 69 70 72 74 76 76 76 78 77 76 75 75 74 74 76 77 78
86 75 64 55 41 26 15 11 11 13 17 22 27 31 36 39 42 47 49 51 52 54 57 60 63 65 67 68 69 71 72 73 74 76 76 74 74 74 72 71 70 70 72 73
85 85 72 58 47 36 23 15 14 16 19 21 25 30 34 37 41 44 46 49 52 54 56 57 59 62 66 68 69 70 70 72 74 73 71 71 72 72 71 70 69 69 69 69
92 84 79 68 52 42 30 21 18 17 21 22 24 26 31 36 40 44 46 49 51 53 54 56 58 61 62 65 66 67 69 70 69 70 70 70 70 70 69 67 65 66 67 68
86 92 90 81 64 51 35 26 22 21 22 23 27 29 30 33 38 42 44 47 49 51 54 56 58 59 61 63 65 66 67 68 68 68 67 67 68 68 68 67 65 65 65 67
82 86 92 92 71 57 42 30 24 24 24 25 28 30 32 34 36 37 42 45 47 50 53 56 57 59 61 63 64 65 66 66 67 68 68 68 68 67 66 66 65 64 64 64
79 84 90 93 87 68 54 40 29 25 26 27 29 32 34 37 38 39 40 41 44 48 51 54 57 59 61 63 64 66 67 68 68 68 69 68 66 67 68 68 66 65 63 62
80 80 88 92 96 84 72 51 39 28 26 29 30 32 35 38 40 41 43 44 44 45 47 49 52 55 58 61 63 64 65 67 67 66 65 66 66 67 67 68 66 63 61 61
77 81 87 91 96 97 83 75 48 38 29 27 29 33 35 37 41 42 44 45 47 48 48 49 50 52 54 57 59 60 60 60 61 61 62 63 63 64 65 66 62 59 58 57

GFSCGP_250_spd_105.txt.gz
Wind_Speed
40 32 27 24 28 35 45 52 61 71 76 85 91 99 102 90 107 110 111 113 110 108 108 78 83 64 76 76 77 83 85 90 90 90 90 91 93 89 84 80 76 77 77 76
31 25 21 22 26 35 44 53 61 65 70 82 84 97 103 103 106 111 112 111 110 111 108 106 80 59 74 89 83 86 85 84 85 76 72 73 76 78 86 86 86 86 79 76
24 18 16 19 28 36 46 53 58 62 66 77 83 92 95 101 102 100 112 109 108 108 108 101 90 73 63 69 80 86 84 86 87 90 89 73 70 66 72 72 79 80 75 72
17 13 12 21 29 36 47 54 57 64 67 74 83 92 96 99 103 108 102 106 108 108 106 105 103 88 79 74 80 86 88 84 84 83 86 86 72 72 81 80 69 78 78 77
13 11 12 20 30 38 47 52 56 61 65 72 81 90 96 102 100 96 104 103 105 106 106 104 107 110 94 81 75 81 83 72 77 82 85 83 90 82 75 68 75 74 79 71
12 7 12 20 27 38 45 52 57 61 68 71 78 88 99 102 100 97 95 98 98 101 104 106 110 112 110 99 84 83 75 73 72 83 87 85 90 90 87 72 81 76 72 73
14 8 9 20 29 37 45 51 60 64 70 74 80 91 95 95 94 98 97 96 97 100 102 105 109 111 113 112 105 102 91 82 83 73 78 87 86 88 91 90 87 88 89 84
15 10 7 19 28 35 43 50 58 59 64 75 78 86 92 93 96 99 102 97 89 91 100 105 105 105 105 110 114 112 110 101 95 90 89 84 85 89 90 91 92 95 95 97
16 8 4 15 23 32 38 47 53 60 65 69 79 86 91 89 92 98 98 94 91 89 94 96 101 104 105 103 108 110 110 107 106 98 98 92 95 88 93 89 87 94 96 97
19 12 3 10 19 26 33 43 54 60 63 69 77 85 89 88 89 91 95 96 90 92 94 97 95 91 97 101 103 106 108 108 108 106 105 102 98 90 93 97 93 90 90 97
22 15 10 0 13 17 26 41 51 60 64 70 75 82 89 90 91 90 92 94 96 97 97 95 95 95 94 92 95 95 96 99 106 108 106 105 102 100 97 97 100 103 101 95
26 19 14 7 7 16 23 34 45 54 60 66 73 79 86 93 91 89 90 90 91 92 88 88 95 86 91 92 89 89 88 93 95 97 101 96 104 106 109 108 108 110 108 105
35 26 18 11 6 11 21 26 37 46 55 60 65 74 78 85 90 91 93 94 93 92 89 89 89 88 88 88 86 85 87 87 86 83 88 89 92 99 103 102 104 104 106 106
50 37 25 16 8 7 18 29 35 43 52 56 61 67 74 80 85 90 92 91 91 93 93 92 90 89 87 86 84 81 79 74 76 77 80 85 91 96 97 97 97 98 99 100
63 47 36 25 14 7 8 17 27 34 52 57 62 66 69 75 79 80 80 87 89 90 90 90 89 88 86 84 85 82 82 78 78 79 81 84 86 88 91 93 93 94 95 96
72 63 49 33 22 10 4 9 18 30 41 52 57 59 61 64 68 70 69 68 71 74 77 80 80 78 78 80 81 81 78 78 78 79 82 84 85 87 87 87 87 88 89 89
79 71 60 47 33 17 7 2 11 20 30 40 49 53 55 58 59 60 63 63 65 67 69 75 75 74 73 73 74 75 74 75 76 77 78 79 79 79 80 82 84 86 85 84
81 77 71 63 46 29 13 4 7 14 22 29 40 47 50 53 55 58 61 63 64 66 67 68 69 69 69 72 70 70 71 73 73 74 74 73 73 75 77 80 82 80 81 80
84 80 74 69 58 43 30 11 6 11 16 24 31 36 43 48 50 52 54 56 59 61 63 66 66 66 66 67 66 66 68 70 70 68 69 71 72 75 78 78 79 79 79 78
80 84 82 72 69 58 43 29 15 9 14 19 24 30 35 41 45 49 51 55 57 57 56 58 61 63 65 66 67 68 67 66 66 68 69 72 74 76 76 78 78 79 77 76
79 85 87 79 71 67 54 42 28 13 10 17 22 26 30 36 41 45 48 49 51 53 54 56 58 60 60 62 64 66 67 67 67 69 71 73 74 76 77 78 77 76 74 74
71 78 83 87 82 73 61 52 41 28 17 13 20 25 30 33 37 40 44 47 49 50 52 54 55 57 59 62 63 64 64 65 67 69 71 72 73 75 76 72 71 72 73 74
69 73 81 80 84 78 68 60 47 39 30 21 17 22 28 32 36 37 40 42 44 48 51 53 54 55 56 58 59 60 61 64 65 65 67 68 70 69 71 72 72 73 71 72
67 64 79 79 81 85 75 67 57 48 39 30 24 20 24 30 33 38 40 42 45 48 50 51 53 55 56 57 59 60 61 62 64 65 67 69 70 71 72 72 71 70 69 70
66 63 74 74 80 81 84 82 68 59 48 37 30 25 23 26 33 36 40 43 45 46 50 53 54 55 56 58 59 60 62 63 64 66 68 68 70 70 70 71 71 71 72 71
67 67 72 78 76 81 83 83 77 85 68 48 37 29 26 25 28 35 39 44 46 48 50 51 53 55 57 59 61 62 63 65 67 68 69 69 70 71 71 72 71 70 69 70

GFSCGP_250_spd_108.txt.gz
Wind_Speed
59 50 41 36 30 24 26 29 33 46 57 69 83 90 96 92 102 105 107 107 106 103 85 82 80 82 70 73 68 70 74 83 84 80 80 79 82 80 77 77 77 78 75 75
52 44 34 29 23 22 26 29 37 48 60 73 82 86 91 84 92 101 107 105 102 103 104 98 86 88 81 68 67 63 55 64 64 64 70 76 74 73 78 79 77 78 76 76
45 36 28 24 20 19 25 32 39 52 63 78 87 89 93 80 79 99 103 103 102 105 107 104 91 88 83 79 66 70 43 53 63 54 56 60 64 64 65 64 68 77 83 85
38 29 23 20 16 18 25 32 38 48 61 77 87 91 83 83 90 87 105 101 102 106 109 109 91 87 86 84 80 66 70 60 64 69 57 55 54 47 48 50 57 60 64 69
32 25 18 15 13 18 25 32 38 46 56 67 73 90 89 86 82 79 99 100 100 105 106 104 98 80 80 76 86 73 60 64 33 70 61 61 63 55 52 49 55 62 63 59
25 19 13 10 12 18 26 36 41 46 53 60 76 89 95 94 78 71 92 98 101 100 103 105 104 98 83 69 79 87 74 64 68 68 64 65 66 71 66 70 61 53 67 70
20 11 8 9 12 17 26 34 43 47 53 54 69 85 93 93 74 79 75 72 98 98 103 105 106 109 94 90 77 79 73 69 77 78 73 71 72 67 64 68 69 64 66 66
20 12 5 5 12 18 26 37 42 49 52 59 63 79 91 92 87 85 75 83 88 98 101 104 108 106 108 97 93 92 86 97 71 74 78 90 87 76 72 73 73 76 80 84
18 13 5 4 11 19 27 35 41 47 49 58 59 67 81 89 95 84 78 72 81 92 99 100 103 109 112 101 103 103 102 98 90 79 83 83 79 82 70 76 74 78 85 86
21 14 8 0 12 19 26 34 39 45 50 56 61 71 81 85 90 93 89 86 79 85 97 103 107 110 114 118 107 102 106 108 103 90 91 94 96 81 81 79 80 82 86 92
19 15 10 5 7 20 27 31 37 43 50 54 58 66 75 86 86 90 88 89 92 94 92 95 104 106 112 117 120 118 104 101 97 95 94 90 87 92 89 85 87 88 94 99
24 19 13 7 7 11 24 32 37 42 47 51 59 69 73 77 88 91 94 88 74 81 82 91 99 102 106 109 114 116 118 115 108 103 102 96 97 103 101 95 102 106 105 105
33 23 16 11 5 13 20 29 36 40 46 53 57 62 65 69 77 86 92 88 91 91 84 88 91 96 103 105 107 108 110 112 119 120 120 117 115 114 113 112 116 115 120 119
50 35 22 13 7 6 16 22 31 38 45 53 60 63 72 72 76 79 83 90 92 91 96 95 93 90 92 96 99 105 109 110 111 113 118 121 124 124 124 124 123 122 123 125
68 50 33 21 11 3 8 20 28 39 49 51 56 65 73 76 77 80 82 84 87 92 97 98 95 91 92 93 94 95 97 101 101 106 109 110 115 117 119 119 116 116 117 115
72 69 53 37 21 10 2 9 20 34 43 50 56 61 68 71 74 76 81 82 83 88 96 98 98 99 95 91 89 88 88 91 94 93 98 100 96 98 98 96 101 106 108 105
74 74 69 58 40 24 10 1 8 21 34 43 52 60 66 71 75 78 76 80 81 83 85 89 91 92 92 91 94 91 89 93 87 85 84 85 84 85 87 88 89 93 94 95
72 74 74 64 51 39 26 10 3 10 20 31 41 51 58 64 68 70 71 70 74 76 77 77 79 83 84 86 85 84 84 84 84 85 83 83 85 83 85 83 84 85 84 88
68 68 68 65 63 52 40 25 12 5 13 21 31 39 46 54 58 61 66 66 64 65 70 71 76 78 78 80 81 80 85 83 87 86 83 85 87 86 85 83 84 85 85 86
69 66 67 69 65 62 56 42 28 14 5 13 21 30 37 42 49 54 58 60 61 64 65 69 71 74 71 73 77 81 86 86 87 87 83 84 84 83 80 80 79 79 80 81
72 73 68 68 70 66 60 57 49 32 17 8 14 22 29 36 41 49 54 57 60 62 65 71 73 69 66 67 72 74 77 77 76 76 76 77 75 73 75 79 77 75 76 77
63 68 66 67 71 76 64 63 55 49 36 22 12 14 24 30 36 43 48 52 56 59 61 62 66 67 66 65 66 68 69 71 72 73 73 74 75 75 75 75 76 76 76 75
58 60 67 71 65 70 74 61 58 57 54 44 27 15 15 24 32 38 44 49 52 56 58 61 63 64 64 65 67 68 70 72 72 71 72 72 74 74 75 76 76 76 77 78
55 58 59 62 74 59 74 78 61 57 56 52 47 30 18 15 24 34 40 45 50 53 56 59 61 62 63 66 69 71 71 72 72 73 72 72 73 73 73 72 73 74 75 76
57 58 59 63 69 69 64 72 72 63 62 60 55 48 37 26 20 22 32 42 47 51 55 58 60 61 62 64 66 67 68 70 70 71 71 72 73 73 73 73 73 74 74 75
55 59 53 64 66 67 64 62 74 76 73 66 76 64 51 39 28 24 24 30 41 49 52 55 57 60 62 63 64 65 67 68 69 70 70 71 71 72 71 72 72 74 75 75

GFSCGP_250_spd_111.txt.gz
Wind_Speed
68 65 58 51 47 42 37 34 33 35 39 48 60 66 73 78 89 95 97 99 109 117 120 118 107 92 91 94 89 95 93 85 73 70 67 67 67 66 63 64 67 73 76 72
61 53 48 44 37 31 27 26 28 37 43 53 59 65 71 76 87 92 96 97 108 117 115 116 105 99 75 91 92 85 83 79 77 71 67 60 63 69 70 69 73 74 74 73
50 45 40 35 28 23 20 22 29 36 44 55 61 65 72 77 92 100 99 98 105 117 106 111 98 82 82 91 80 73 84 76 55 60 67 62 59 65 71 71 70 70 72 73
44 40 34 27 22 18 16 21 28 33 44 53 63 68 72 81 89 92 88 92 105 110 106 102 99 99 72 55 54 61 56 58 53 52 58 59 50 55 58 58 59 58 58 62
41 35 29 21 15 14 13 20 28 39 48 61 64 70 78 80 86 85 85 90 98 106 111 97 89 90 79 67 67 48 61 56 42 39 38 40 45 50 54 60 61 60 61 66
38 28 23 17 11 9 11 19 28 39 48 59 69 69 77 81 84 83 76 89 95 101 106 103 102 100 78 88 74 81 58 60 48 38 41 38 51 48 51 59 57 60 65 68
32 24 16 9 6 7 10 16 27 35 47 56 68 76 78 81 79 76 76 65 86 100 110 110 111 98 91 89 89 84 69 76 66 59 30 41 45 53 50 64 62 57 61 57
28 19 12 4 4 6 10 15 24 34 42 48 65 78 76 76 74 78 75 77 80 97 110 117 109 105 101 93 88 87 84 84 78 67 54 54 42 44 44 46 64 56 60 60
23 15 8 3 6 11 11 17 20 27 34 46 63 72 76 69 72 68 79 85 79 91 103 112 115 114 104 104 103 92 93 87 86 83 62 71 56 46 45 49 60 72 71 71
21 13 6 3 5 11 14 18 24 29 38 44 58 69 73 82 81 72 62 76 71 86 89 109 113 113 110 106 98 102 101 95 94 91 76 77 85 77 79 70 71 75 79 80
21 14 7 4 4 12 14 20 27 34 44 44 50 66 75 78 74 82 71 66 62 76 87 94 111 115 114 103 99 98 101 103 103 97 99 86 93 94 90 93 82 86 90 86
26 20 13 9 6 8 14 19 26 33 40 48 63 71 75 75 68 65 63 66 60 70 91 91 102 111 113 113 110 102 95 104 115 106 109 105 95 100 99 92 96 92 93 96
35 27 18 12 9 8 14 19 26 33 38 48 51 62 71 76 77 77 73 71 76 58 84 100 100 104 112 110 109 111 107 103 110 122 116 116 108 102 107 107 107 104 104 104
50 38 28 21 15 9 9 19 26 33 35 39 47 60 70 76 75 76 78 79 78 81 78 90 103 104 108 112 117 114 112 105 107 108 117 120 113 114 111 106 104 104 100 102
67 54 41 29 21 13 8 15 24 28 33 38 45 53 62 69 78 77 80 79 81 77 69 74 87 97 108 115 121 124 122 119 115 113 111 114 113 113 115 113 110 106 106 109
70 69 58 44 32 20 11 6 20 22 28 34 40 45 56 62 65 79 81 83 80 88 84 85 84 85 97 108 112 120 122 127 126 123 120 118 119 117 114 114 114 112 114 113
74 74 68 63 51 37 21 10 2 8 19 28 35 41 45 53 60 66 75 78 84 84 90 89 89 92 91 92 101 110 116 122 126 127 123 123 124 124 123 121 119 118 119 120
68 72 72 69 64 58 38 23 11 5 9 16 26 35 43 49 51 59 68 75 76 86 91 89 89 88 90 90 89 94 102 112 120 123 125 128 129 129 130 131 132 133 135 136
66 68 66 67 68 69 58 46 32 18 6 8 18 25 33 39 46 58 60 64 74 74 74 75 85 85 93 92 86 86 85 87 94 99 107 112 120 123 125 127 125 127 126 123
59 64 64 63 61 62 58 59 52 40 25 13 9 15 21 32 42 50 60 62 65 71 73 69 75 79 82 81 86 92 93 89 84 86 88 88 91 96 102 103 105 104 106 105
61 54 60 62 63 61 58 57 58 51 45 32 20 15 17 24 33 41 49 56 63 66 65 72 75 77 81 83 85 87 88 91 96 91 92 94 95 91 93 95 100 100 99 99
56 61 62 56 58 66 57 58 58 54 53 48 40 24 15 17 25 31 37 45 54 62 67 68 72 74 78 85 87 84 85 85 85 88 91 90 92 95 93 93 93 95 96 95
48 55 61 60 60 60 57 59 56 56 56 52 49 45 38 22 15 23 32 39 45 52 56 60 65 71 77 81 84 81 81 85 86 86 86 87 89 95 96 99 96 96 95 93
47 48 57 60 61 56 62 64 59 60 59 58 54 51 48 42 31 19 20 29 40 48 52 56 61 66 71 76 77 78 81 82 81 81 83 85 88 91 94 91 90 90 90 90
49 52 53 55 58 57 55 62 55 61 67 55 55 58 52 48 44 37 26 22 28 35 45 53 57 61 64 67 70 74 77 78 78 78 79 82 84 87 87 86 85 85 84 84
46 49 51 53 55 58 62 55 66 72 67 71 58 56 53 54 52 49 44 34 25 28 36 42 50 58 62 65 68 71 73 75 76 77 78 80 82 82 82 82 81 82 82 83

GFSCGP_250_spd_114.txt.gz
Wind_Speed
71 70 69 67 64 62 57 55 53 50 51 53 59 65 68 72 78 81 85 81 91 86 91 86 84 70 72 72 74 79 76 63 62 57 52 58 61 62 60 60 62 62 60 60
67 67 65 61 56 51 49 46 42 41 46 50 53 55 59 66 70 75 78 85 96 110 99 92 71 64 60 76 74 66 73 64 55 59 54 51 55 55 56 53 49 49 54 55
63 61 55 49 44 40 36 34 35 37 38 40 43 48 56 60 65 72 83 94 97 121 102 96 87 80 59 60 95 77 63 68 63 61 66 59 48 42 49 47 53 56 57 59
52 46 42 38 32 28 27 25 28 30 33 35 42 50 55 61 68 74 88 102 109 130 114 103 88 81 63 49 74 76 70 68 69 63 57 58 61 56 57 58 58 52 54 58
40 34 32 28 21 21 18 21 25 28 31 35 42 46 53 63 67 69 88 101 108 132 120 104 87 84 69 59 67 82 68 84 81 78 70 66 62 68 64 59 59 51 57 63
32 29 25 21 16 15 17 18 21 26 30 34 37 41 47 56 63 67 88 100 106 132 130 106 104 90 80 63 60 64 69 71 70 63 66 75 65 66 61 52 52 58 59 55
29 26 22 16 12 10 11 13 15 22 28 36 40 44 47 53 57 66 84 97 104 134 134 121 112 99 92 72 65 57 69 73 66 65 66 65 57 52 52 51 48 49 58 61
27 22 16 10 9 9 9 10 13 21 28 35 41 45 49 51 60 65 85 92 108 130 139 133 124 115 104 89 82 55 55 65 69 63 68 58 57 51 46 43 52 56 63 58
23 18 10 4 4 8 11 11 12 17 24 33 39 44 49 54 55 57 74 91 120 135 139 138 134 122 119 103 99 73 69 71 74 71 71 61 56 49 61 52 52 62 60 57
18 13 9 2 4 9 12 15 15 15 23 30 42 46 47 47 49 57 69 85 110 133 136 136 133 127 122 98 91 89 73 74 72 75 70 65 58 65 63 59 62 62 69 69
18 16 12 6 9 11 17 17 17 16 24 25 43 51 50 48 51 55 59 79 92 126 131 138 137 130 122 118 105 106 97 89 79 83 76 72 65 62 63 65 71 75 77 77
21 16 13 12 10 13 17 20 21 22 25 30 44 52 54 54 53 57 58 67 85 108 128 123 132 133 128 117 115 114 109 107 96 92 85 84 80 78 75 71 64 73 74 80
30 22 18 16 15 13 21 18 23 25 27 33 43 50 53 58 60 66 65 67 80 103 122 114 110 122 123 121 112 113 112 110 104 102 93 96 95 92 89 83 88 80 77 76
41 33 26 21 19 17 18 20 18 20 28 32 42 48 62 62 63 70 65 68 76 102 119 124 118 113 112 120 110 110 115 113 111 105 98 99 91 90 96 95 93 96 93 91
60 48 39 30 23 21 16 18 16 21 24 29 40 48 53 66 64 64 69 72 70 84 98 115 122 121 119 119 113 112 112 115 109 107 107 101 105 98 98 104 104 95 102 107
70 67 60 45 35 27 19 15 11 12 15 15 22 36 46 53 56 63 64 65 69 75 79 87 107 118 124 123 120 124 118 115 112 115 115 111 106 109 109 108 107 109 109 108
70 74 70 66 57 40 26 20 10 5 12 14 21 30 32 45 54 64 62 66 72 73 65 75 91 93 120 126 127 125 124 123 127 119 115 115 115 115 113 117 118 116 118 118
69 73 72 71 70 65 48 32 18 10 4 13 21 33 37 40 45 54 53 60 64 67 68 68 79 91 105 114 124 130 130 126 129 127 125 125 127 127 128 127 125 124 128 124
62 64 66 68 67 66 62 56 42 23 10 9 21 30 44 41 46 48 52 60 64 67 65 79 80 76 81 102 112 122 128 131 130 132 131 129 129 128 127 126 126 129 134 135
60 60 61 60 62 61 59 58 52 45 36 22 8 12 22 36 50 56 54 59 61 65 76 73 74 84 82 81 86 99 116 122 132 131 132 132 130 131 134 134 135 132 131 130
53 54 55 53 57 57 55 53 57 51 43 40 32 20 6 12 19 35 47 60 71 63 67 78 81 82 79 86 91 88 85 105 119 122 126 128 132 131 131 133 132 134 136 133
49 51 53 51 49 53 48 51 51 46 45 41 40 35 31 19 6 12 25 36 52 65 73 77 90 91 95 89 92 94 95 89 94 102 110 119 122 125 133 141 144 143 141 144
41 47 51 46 51 49 46 48 46 48 46 45 44 40 32 27 26 19 10 15 30 44 54 61 68 72 80 92 95 95 109 106 104 104 99 98 101 104 106 109 121 130 133 138
43 47 44 49 54 50 49 51 49 48 48 44 45 40 41 38 33 27 22 18 15 21 33 43 51 58 64 74 83 88 90 92 96 99 100 107 105 105 104 103 106 112 119 124
41 44 45 39 48 48 47 54 54 56 51 45 42 40 37 39 41 40 36 32 24 22 23 29 39 51 60 68 73 78 83 87 90 94 99 102 104 109 112 115 115 115 116 116
38 40 42 42 39 47 48 50 53 55 54 56 54 44 46 41 39 38 41 41 41 39 31 25 29 37 47 57 65 71 74 77 83 89 95 99 102 102 102 105 104 109 112 113

GFSCGP_250_spd_117.txt.gz
Wind_Speed
74 71 71 71 65 62 61 61 59 59 63 65 67 71 72 70 72 76 76 70 66 64 64 68 73 79 87 86 99 99 67 65 68 60 58 55 52 61 64 58 56 51 53 60
63 67 63 60 61 59 57 58 59 60 61 62 60 65 66 68 74 77 78 75 72 71 70 76 72 77 87 74 79 92 76 58 60 56 57 55 66 67 61 57 57 52 55 56
62 55 57 58 59 59 58 60 61 60 58 55 54 55 56 61 70 77 80 77 78 79 85 84 76 85 87 89 82 94 90 78 61 60 58 64 68 63 49 62 53 54 58 57
52 53 55 55 55 53 55 56 52 49 48 46 47 47 50 56 64 71 75 82 85 88 91 90 89 98 96 91 100 91 79 73 66 54 60 70 68 50 50 53 58 63 57 59
50 48 46 47 46 46 45 41 41 38 37 38 35 40 46 53 59 65 69 76 86 93 94 94 110 100 93 88 87 82 64 65 70 59 64 70 66 58 56 50 47 55 54 53
41 34 37 38 39 35 31 30 28 29 29 30 32 32 39 46 51 56 66 80 92 98 96 104 106 90 83 78 69 66 76 46 61 65 67 71 70 66 63 56 64 60 58 50
28 29 31 33 28 24 21 21 20 21 22 24 27 31 32 38 49 60 71 86 97 98 102 111 105 90 85 83 69 70 60 64 65 65 66 69 68 63 61 63 58 64 66 58
24 24 24 20 18 15 14 14 12 12 14 16 22 26 33 45 56 64 81 94 93 98 109 118 104 93 91 88 68 68 68 56 68 75 63 73 66 62 58 56 65 66 65 66
17 14 15 11 11 9 8 10 11 13 20 25 31 36 39 47 63 77 90 95 98 108 109 109 102 104 95 86 75 75 68 67 58 65 74 72 72 68 66 67 69 60 55 58
9 6 6 3 4 6 12 12 12 13 14 24 33 39 45 57 71 80 92 101 110 108 111 112 115 113 92 95 79 79 74 74 60 64 73 68 61 59 65 57 54 52 53 55
10 4 4 4 4 9 14 18 19 16 16 22 34 41 48 56 69 78 95 105 120 114 106 115 111 109 102 94 84 72 73 76 69 62 69 81 67 62 66 64 64 64 63 63
12 9 7 12 12 14 19 23 21 19 18 24 33 41 48 58 69 87 104 117 123 123 111 113 113 103 100 88 82 84 75 70 66 66 74 78 75 77 72 68 70 68 72 72
19 16 12 14 14 16 22 25 21 17 18 22 28 37 49 57 66 89 109 125 119 111 107 106 113 96 91 86 83 75 74 79 75 73 79 74 78 79 79 70 75 86 80 78
31 23 18 13 16 17 26 25 21 17 18 21 26 34 42 49 63 88 110 127 129 125 114 108 109 105 99 94 86 81 82 84 84 84 84 86 82 82 80 80 80 84 82 82
40 31 24 20 16 22 33 28 21 18 13 13 18 24 29 42 52 73 99 120 134 133 130 121 106 105 104 99 96 89 90 86 88 90 90 92 88 85 81 84 83 85 85 85
51 47 37 30 25 24 29 28 24 20 12 11 10 21 26 29 39 60 82 105 123 133 135 130 132 109 105 111 99 98 100 99 94 93 94 94 88 89 90 88 88 86 87 86
67 56 57 47 35 28 27 29 24 20 15 14 10 17 21 24 29 34 59 84 96 113 117 126 137 133 122 112 115 108 106 105 101 98 95 93 101 93 99 101 101 98 97 95
69 70 64 60 59 42 30 28 26 22 21 17 14 12 20 20 22 23 34 50 76 93 108 118 126 138 137 124 118 124 122 115 112 113 111 107 106 110 109 101 105 110 110 108
69 68 69 68 63 56 57 49 38 32 17 9 3 8 10 12 22 32 29 44 50 57 78 111 115 129 140 138 133 130 130 128 126 122 124 124 121 121 120 120 126 121 122 124
64 67 66 66 63 62 54 55 53 39 24 7 16 23 27 29 30 28 33 32 43 53 58 57 106 130 138 147 147 145 133 129 134 131 129 133 135 130 131 127 125 130 131 130
56 59 61 60 62 61 58 58 56 49 40 29 17 4 13 27 37 44 43 43 43 44 49 59 71 80 115 137 146 146 146 143 134 138 134 136 138 139 137 139 137 135 137 139
48 50 55 56 56 57 56 53 51 45 44 38 33 28 21 10 5 21 42 50 56 62 59 59 63 67 76 83 119 125 137 151 146 144 141 149 155 154 146 139 138 139 144 143
47 49 50 51 49 49 48 50 51 49 45 43 41 37 30 24 17 9 5 20 40 55 60 69 75 74 77 77 81 92 96 106 120 140 150 151 146 144 147 151 151 146 144 145
39 42 41 44 45 45 46 48 47 46 46 45 42 40 33 27 25 21 17 13 10 15 25 40 57 67 76 86 91 94 95 98 101 107 108 113 120 128 144 163 155 158 152 154
37 39 40 39 43 43 37 37 42 43 42 39 41 40 39 34 31 25 24 21 20 14 11 18 26 38 53 68 81 90 96 103 107 110 116 115 111 115 122 127 134 136 140 146
32 34 36 40 39 38 38 38 38 37 39 39 41 40 38 40 41 38 35 32 30 26 25 21 20 23 28 39 54 70 83 91 98 107 113 119 121 120 120 121 124 126 122 128